Time,TemperatureF,DewpointF,PressureIn,WindDirection,WindDirectionDegrees,WindSpeedMPH,WindSpeedGustMPH,Humidity,HourlyPrecipIn,Conditions,Clouds,dailyrainin,SoftwareType,DateUTC
2013-06-16 00:00:00,69.8,64.4,28.91,WSW,252,0.0,0.0,83,0.00,,---,0.00,VWS V14.01,2013-06-16 04:00:00,
2013-06-16 00:01:00,69.8,64.4,28.91,WSW,252,0.0,0.0,83,0.00,,---,0.00,VWS V14.01,2013-06-16 04:01:00,
2013-06-16 00:02:00,69.6,64.2,28.91,WSW,252,0.0,0.0,83,0.00,,---,0.00,VWS V14.01,2013-06-16 04:02:00,
2013-06-16 00:03:00,69.6,64.2,28.91,WSW,252,0.0,0.0,83,0.00,,---,0.00,VWS V14.01,2013-06-16 04:03:00,
2013-06-16 00:04:00,69.6,64.2,28.91,WSW,252,0.0,0.0,83,0.00,,---,0.00,VWS V14.01,2013-06-16 04:04:00,
2013-06-16 00:05:00,69.6,64.2,28.91,WSW,252,0.0,0.0,83,0.00,,---,0.00,VWS V14.01,2013-06-16 04:05:00,
2013-06-16 00:06:00,69.6,64.2,28.91,WSW,252,0.0,0.0,83,0.00,,---,0.00,VWS V14.01,2013-06-16 04:06:00,
2013-06-16 00:07:00,69.6,64.6,28.91,WSW,252,3.6,3.6,84,0.00,,---,0.00,VWS V14.01,2013-06-16 04:07:00,
2013-06-16 00:08:00,69.6,64.6,28.91,WSW,252,3.1,3.6,84,0.00,,---,0.00,VWS V14.01,2013-06-16 04:08:00,
2013-06-16 00:09:00,69.6,64.6,28.91,WSW,252,0.0,3.1,84,0.00,,---,0.00,VWS V14.01,2013-06-16 04:09:00,
2013-06-16 00:10:00,69.6,64.6,28.91,WSW,252,3.1,3.1,84,0.00,,---,0.00,VWS V14.01,2013-06-16 04:10:00,
2013-06-16 00:11:00,69.6,64.6,28.91,WSW,252,0.0,3.6,84,0.00,,---,0.00,VWS V14.01,2013-06-16 04:11:00,
2013-06-16 00:12:00,69.6,64.6,28.91,WSW,252,0.0,0.0,84,0.00,,---,0.00,VWS V14.01,2013-06-16 04:12:00,
2013-06-16 00:13:00,69.6,64.6,28.91,WSW,252,0.0,0.0,84,0.00,,---,0.00,VWS V14.01,2013-06-16 04:13:00,
2013-06-16 00:14:00,69.6,64.6,28.91,WSW,252,0.0,0.0,84,0.00,,---,0.00,VWS V14.01,2013-06-16 04:14:00,
2013-06-16 00:15:00,69.6,64.6,28.91,WSW,252,0.0,0.0,84,0.00,,---,0.00,VWS V14.01,2013-06-16 04:15:00,
2013-06-16 00:16:00,69.4,64.4,28.91,WSW,252,0.0,0.0,84,0.00,,---,0.00,VWS V14.01,2013-06-16 04:16:00,
2013-06-16 00:17:00,69.4,64.4,28.91,WSW,252,0.0,0.0,84,0.00,,---,0.00,VWS V14.01,2013-06-16 04:17:00,
2013-06-16 00:18:00,69.4,64.4,28.91,WSW,252,0.0,0.0,84,0.00,,---,0.00,VWS V14.01,2013-06-16 04:18:00,
2013-06-16 00:19:00,69.4,64.4,28.91,WSW,252,0.0,0.0,84,0.00,,---,0.00,VWS V14.01,2013-06-16 04:19:00,
2013-06-16 00:20:00,69.4,64.4,28.91,WSW,252,0.0,0.0,84,0.00,,---,0.00,VWS V14.01,2013-06-16 04:20:00,
2013-06-16 00:21:00,69.3,64.2,28.91,WSW,252,0.0,0.0,84,0.00,,---,0.00,VWS V14.01,2013-06-16 04:21:00,
2013-06-16 00:22:00,69.3,64.2,28.91,WSW,252,0.0,0.0,84,0.00,,---,0.00,VWS V14.01,2013-06-16 04:22:00,
2013-06-16 00:23:00,69.3,64.2,28.91,WSW,252,0.0,0.0,84,0.00,,---,0.00,VWS V14.01,2013-06-16 04:23:00,
2013-06-16 00:24:00,69.3,64.2,28.91,WSW,252,0.0,0.0,84,0.00,,---,0.00,VWS V14.01,2013-06-16 04:24:00,
2013-06-16 00:25:00,69.3,64.2,28.91,WSW,252,0.0,0.0,84,0.00,,---,0.00,VWS V14.01,2013-06-16 04:25:00,
2013-06-16 00:26:00,69.3,64.2,28.91,WSW,252,0.0,0.0,84,0.00,,---,0.00,VWS V14.01,2013-06-16 04:26:00,
2013-06-16 00:27:00,69.1,64.1,28.91,WSW,252,0.0,0.0,84,0.00,,---,0.00,VWS V14.01,2013-06-16 04:27:00,
2013-06-16 00:28:00,69.1,64.1,28.91,WSW,252,0.0,0.0,84,0.00,,---,0.00,VWS V14.01,2013-06-16 04:28:00,
2013-06-16 00:29:00,69.1,64.1,28.91,WSW,252,0.0,0.0,84,0.00,,---,0.00,VWS V14.01,2013-06-16 04:29:00,
2013-06-16 00:30:00,69.1,64.1,28.91,WSW,252,0.0,0.0,84,0.00,,---,0.00,VWS V14.01,2013-06-16 04:30:00,
2013-06-16 00:31:00,69.1,64.1,28.91,WSW,252,0.0,0.0,84,0.00,,---,0.00,VWS V14.01,2013-06-16 04:31:00,
2013-06-16 00:32:00,69.1,64.1,28.91,WSW,252,0.0,0.0,84,0.00,,---,0.00,VWS V14.01,2013-06-16 04:32:00,
2013-06-16 00:33:00,69.1,64.1,28.91,WSW,252,0.0,0.0,84,0.00,,---,0.00,VWS V14.01,2013-06-16 04:33:00,
2013-06-16 00:34:00,69.1,64.1,28.91,WSW,252,0.0,0.0,84,0.00,,---,0.00,VWS V14.01,2013-06-16 04:34:00,
2013-06-16 00:35:00,69.1,64.4,28.91,WSW,252,0.0,3.1,85,0.00,,---,0.00,VWS V14.01,2013-06-16 04:35:00,
2013-06-16 00:36:00,69.1,64.4,28.91,WSW,252,0.0,0.0,85,0.00,,---,0.00,VWS V14.01,2013-06-16 04:36:00,
2013-06-16 00:37:00,69.1,64.4,28.91,WSW,252,0.0,0.0,85,0.00,,---,0.00,VWS V14.01,2013-06-16 04:37:00,
2013-06-16 00:38:00,69.1,64.4,28.91,WSW,252,0.0,0.0,85,0.00,,---,0.00,VWS V14.01,2013-06-16 04:38:00,
2013-06-16 00:39:00,69.1,64.4,28.91,WSW,252,0.0,0.0,85,0.00,,---,0.00,VWS V14.01,2013-06-16 04:39:00,
2013-06-16 00:40:00,69.1,64.4,28.91,WSW,252,0.0,0.0,85,0.00,,---,0.00,VWS V14.01,2013-06-16 04:40:00,
2013-06-16 00:41:00,69.1,64.4,28.91,WSW,252,0.0,0.0,85,0.00,,---,0.00,VWS V14.01,2013-06-16 04:41:00,
2013-06-16 00:42:00,69.1,64.4,28.91,WSW,252,0.0,0.0,85,0.00,,---,0.00,VWS V14.01,2013-06-16 04:42:00,
2013-06-16 00:43:00,69.1,64.4,28.91,WSW,252,0.0,0.0,85,0.00,,---,0.00,VWS V14.01,2013-06-16 04:43:00,
2013-06-16 00:44:00,68.9,64.2,28.91,WSW,252,0.0,0.0,85,0.00,,---,0.00,VWS V14.01,2013-06-16 04:44:00,
2013-06-16 00:45:00,68.9,64.6,28.91,WSW,252,0.0,0.0,86,0.00,,---,0.00,VWS V14.01,2013-06-16 04:45:00,
2013-06-16 00:46:00,68.9,64.6,28.91,WSW,252,0.0,0.0,86,0.00,,---,0.00,VWS V14.01,2013-06-16 04:46:00,
2013-06-16 00:47:00,68.9,64.6,28.91,WSW,252,0.0,0.0,86,0.00,,---,0.00,VWS V14.01,2013-06-16 04:47:00,
2013-06-16 00:48:00,68.9,64.6,28.91,WSW,252,0.0,0.0,86,0.00,,---,0.00,VWS V14.01,2013-06-16 04:48:00,
2013-06-16 00:49:00,68.9,64.6,28.91,WSW,252,0.0,0.0,86,0.00,,---,0.00,VWS V14.01,2013-06-16 04:49:00,
2013-06-16 00:50:00,68.9,64.6,28.91,WSW,252,2.7,2.7,86,0.00,,---,0.00,VWS V14.01,2013-06-16 04:50:00,
2013-06-16 00:51:00,68.7,64.4,28.91,WSW,252,0.0,3.6,86,0.00,,---,0.00,VWS V14.01,2013-06-16 04:51:00,
2013-06-16 00:52:00,68.7,64.4,28.91,WSW,252,0.0,0.0,86,0.00,,---,0.00,VWS V14.01,2013-06-16 04:52:00,
2013-06-16 00:53:00,68.7,64.4,28.91,WSW,252,0.0,0.0,86,0.00,,---,0.00,VWS V14.01,2013-06-16 04:53:00,
2013-06-16 00:54:00,68.7,64.4,28.91,WSW,252,0.0,0.0,86,0.00,,---,0.00,VWS V14.01,2013-06-16 04:54:00,
2013-06-16 00:55:00,68.7,64.4,28.91,WSW,252,0.0,0.0,86,0.00,,---,0.00,VWS V14.01,2013-06-16 04:55:00,
2013-06-16 00:56:00,68.7,64.4,28.91,WSW,252,0.0,0.0,86,0.00,,---,0.00,VWS V14.01,2013-06-16 04:56:00,
2013-06-16 00:57:00,68.7,64.4,28.91,WSW,252,0.0,0.0,86,0.00,,---,0.00,VWS V14.01,2013-06-16 04:57:00,
2013-06-16 00:58:00,68.7,64.4,28.91,WSW,252,0.0,0.0,86,0.00,,---,0.00,VWS V14.01,2013-06-16 04:58:00,
2013-06-16 00:59:00,68.7,64.4,28.91,WSW,252,0.0,0.0,86,0.00,,---,0.00,VWS V14.01,2013-06-16 04:59:00,
2013-06-16 01:00:00,68.5,64.2,28.91,WSW,252,0.0,0.0,86,0.00,,---,0.00,VWS V14.01,2013-06-16 05:00:00,
2013-06-16 01:01:00,68.5,64.2,28.91,WSW,252,0.0,0.0,86,0.00,,---,0.00,VWS V14.01,2013-06-16 05:01:00,
2013-06-16 01:02:00,68.5,64.2,28.91,WSW,252,0.0,0.0,86,0.00,,---,0.00,VWS V14.01,2013-06-16 05:02:00,
2013-06-16 01:03:00,68.5,64.2,28.91,WSW,252,0.0,0.0,86,0.00,,---,0.00,VWS V14.01,2013-06-16 05:03:00,
2013-06-16 01:04:00,68.5,64.2,28.91,WSW,252,0.0,0.0,86,0.00,,---,0.00,VWS V14.01,2013-06-16 05:04:00,
2013-06-16 01:05:00,68.5,64.5,28.91,WSW,252,0.0,0.0,87,0.00,,---,0.00,VWS V14.01,2013-06-16 05:05:00,
2013-06-16 01:06:00,68.5,64.5,28.91,WSW,252,0.0,0.0,87,0.00,,---,0.00,VWS V14.01,2013-06-16 05:06:00,
2013-06-16 01:07:00,68.5,64.5,28.91,WSW,252,0.0,0.0,87,0.00,,---,0.00,VWS V14.01,2013-06-16 05:07:00,
2013-06-16 01:08:00,68.5,64.5,28.91,WSW,252,0.0,0.0,87,0.00,,---,0.00,VWS V14.01,2013-06-16 05:08:00,
2013-06-16 01:09:00,68.5,64.5,28.91,WSW,252,0.0,0.0,87,0.00,,---,0.00,VWS V14.01,2013-06-16 05:09:00,
2013-06-16 01:10:00,68.5,64.5,28.91,WSW,252,0.0,0.0,87,0.00,,---,0.00,VWS V14.01,2013-06-16 05:10:00,
2013-06-16 01:11:00,68.5,64.5,28.91,WSW,252,0.0,0.0,87,0.00,,---,0.00,VWS V14.01,2013-06-16 05:11:00,
2013-06-16 01:12:00,68.5,64.5,28.91,WSW,252,0.0,0.0,87,0.00,,---,0.00,VWS V14.01,2013-06-16 05:12:00,
2013-06-16 01:13:00,68.4,64.3,28.91,WSW,252,0.0,0.0,87,0.00,,---,0.00,VWS V14.01,2013-06-16 05:13:00,
2013-06-16 01:14:00,68.4,64.3,28.91,WSW,252,0.0,0.0,87,0.00,,---,0.00,VWS V14.01,2013-06-16 05:14:00,
2013-06-16 01:15:00,68.4,64.3,28.91,WSW,252,0.0,0.0,87,0.00,,---,0.00,VWS V14.01,2013-06-16 05:15:00,
2013-06-16 01:16:00,68.4,64.3,28.91,WSW,252,0.0,0.0,87,0.00,,---,0.00,VWS V14.01,2013-06-16 05:16:00,
2013-06-16 01:17:00,68.5,64.5,28.91,WSW,252,0.0,0.0,87,0.00,,---,0.00,VWS V14.01,2013-06-16 05:17:00,
2013-06-16 01:18:00,68.4,64.3,28.91,WSW,252,0.0,0.0,87,0.00,,---,0.00,VWS V14.01,2013-06-16 05:18:00,
2013-06-16 01:19:00,68.5,64.5,28.91,WSW,252,0.0,0.0,87,0.00,,---,0.00,VWS V14.01,2013-06-16 05:19:00,
2013-06-16 01:20:00,68.5,64.5,28.91,WSW,252,0.0,0.0,87,0.00,,---,0.00,VWS V14.01,2013-06-16 05:20:00,
2013-06-16 01:21:00,68.4,64.3,28.91,WSW,252,0.0,0.0,87,0.00,,---,0.00,VWS V14.01,2013-06-16 05:21:00,
2013-06-16 01:22:00,68.4,64.7,28.91,WSW,252,0.0,0.0,88,0.00,,---,0.00,VWS V14.01,2013-06-16 05:22:00,
2013-06-16 01:23:00,68.4,64.7,28.91,WSW,252,0.0,0.0,88,0.00,,---,0.00,VWS V14.01,2013-06-16 05:23:00,
2013-06-16 01:24:00,68.4,64.7,28.91,WSW,252,0.0,0.0,88,0.00,,---,0.00,VWS V14.01,2013-06-16 05:24:00,
2013-06-16 01:25:00,68.4,64.7,28.91,WSW,252,0.0,0.0,88,0.00,,---,0.00,VWS V14.01,2013-06-16 05:25:00,
2013-06-16 01:26:00,68.4,64.7,28.91,WSW,252,0.0,0.0,88,0.00,,---,0.00,VWS V14.01,2013-06-16 05:26:00,
2013-06-16 01:27:00,68.4,64.7,28.91,WSW,252,0.0,0.0,88,0.00,,---,0.00,VWS V14.01,2013-06-16 05:27:00,
2013-06-16 01:28:00,68.4,64.7,28.91,WSW,252,0.0,0.0,88,0.00,,---,0.00,VWS V14.01,2013-06-16 05:28:00,
2013-06-16 01:29:00,68.5,64.8,28.91,WSW,252,0.0,0.0,88,0.00,,---,0.00,VWS V14.01,2013-06-16 05:29:00,
2013-06-16 01:30:00,67.3,61.6,28.91,South,190,0.0,0.0,82,0.00,,---,0.00,VWS V14.01,2013-06-16 05:30:00,
2013-06-16 01:31:00,68.5,64.8,28.91,WSW,252,0.0,0.0,88,0.00,,---,0.00,VWS V14.01,2013-06-16 05:31:00,
2013-06-16 01:32:00,68.5,64.8,28.91,WSW,252,0.0,0.0,88,0.00,,---,0.00,VWS V14.01,2013-06-16 05:32:00,
2013-06-16 01:33:00,68.5,64.8,28.91,WSW,252,0.0,3.1,88,0.00,,---,0.00,VWS V14.01,2013-06-16 05:33:00,
2013-06-16 01:34:00,68.5,65.2,28.91,WSW,252,0.0,0.0,89,0.00,,---,0.00,VWS V14.01,2013-06-16 05:34:00,
2013-06-16 01:35:00,67.5,61.8,28.91,SSW,193,0.0,2.7,82,0.00,,---,0.00,VWS V14.01,2013-06-16 05:35:00,
2013-06-16 01:36:00,68.5,65.2,28.91,WSW,252,0.0,0.0,89,0.00,,---,0.00,VWS V14.01,2013-06-16 05:36:00,
2013-06-16 01:37:00,68.5,65.2,28.91,WSW,252,0.0,0.0,89,0.00,,---,0.00,VWS V14.01,2013-06-16 05:37:00,
2013-06-16 01:38:00,68.5,65.2,28.91,WSW,252,0.0,0.0,89,0.00,,---,0.00,VWS V14.01,2013-06-16 05:38:00,
2013-06-16 01:39:00,68.5,65.2,28.91,WSW,252,0.0,0.0,89,0.00,,---,0.00,VWS V14.01,2013-06-16 05:39:00,
2013-06-16 01:40:00,67.5,61.4,28.91,SSW,193,0.0,0.0,81,0.00,,---,0.00,VWS V14.01,2013-06-16 05:40:00,
2013-06-16 01:41:00,68.5,65.2,28.91,WSW,252,0.0,0.0,89,0.00,,---,0.00,VWS V14.01,2013-06-16 05:41:00,
2013-06-16 01:42:00,68.5,65.2,28.91,WSW,252,0.0,0.0,89,0.00,,---,0.00,VWS V14.01,2013-06-16 05:42:00,
2013-06-16 01:43:00,68.5,65.2,28.91,WSW,252,0.0,0.0,89,0.00,,---,0.00,VWS V14.01,2013-06-16 05:43:00,
2013-06-16 01:44:00,68.5,65.2,28.91,WSW,253,0.0,4.0,89,0.00,,---,0.00,VWS V14.01,2013-06-16 05:44:00,
2013-06-16 01:45:00,68.5,65.2,28.91,WSW,253,0.0,0.0,89,0.00,,---,0.00,VWS V14.01,2013-06-16 05:45:00,
2013-06-16 01:46:00,67.6,60.9,28.88,SSW,193,0.0,0.0,79,0.00,,---,0.00,VWS V14.01,2013-06-16 05:46:00,
2013-06-16 01:47:00,68.5,65.2,28.91,WSW,253,0.0,2.7,89,0.00,,---,0.00,VWS V14.01,2013-06-16 05:47:00,
2013-06-16 01:48:00,68.5,65.2,28.91,WSW,253,0.0,0.0,89,0.00,,---,0.00,VWS V14.01,2013-06-16 05:48:00,
2013-06-16 01:49:00,68.5,65.2,28.91,WSW,253,0.0,0.0,89,0.00,,---,0.00,VWS V14.01,2013-06-16 05:49:00,
2013-06-16 01:50:00,68.5,65.2,28.91,WSW,253,0.0,0.0,89,0.00,,---,0.00,VWS V14.01,2013-06-16 05:50:00,
2013-06-16 01:51:00,68.5,65.2,28.91,WSW,253,0.0,0.0,89,0.00,,---,0.00,VWS V14.01,2013-06-16 05:51:00,
2013-06-16 01:52:00,68.5,65.2,28.91,WSW,253,0.0,0.0,89,0.00,,---,0.00,VWS V14.01,2013-06-16 05:52:00,
2013-06-16 01:53:00,67.8,60.0,28.88,West,281,0.0,0.0,76,0.00,,---,0.00,VWS V14.01,2013-06-16 05:53:00,
2013-06-16 01:54:00,68.5,65.2,28.91,WSW,253,0.0,0.0,89,0.00,,---,0.00,VWS V14.01,2013-06-16 05:54:00,
2013-06-16 01:55:00,68.5,65.2,28.91,WSW,253,0.0,0.0,89,0.00,,---,0.00,VWS V14.01,2013-06-16 05:55:00,
2013-06-16 01:56:00,68.5,65.2,28.91,WSW,253,0.0,0.0,89,0.00,,---,0.00,VWS V14.01,2013-06-16 05:56:00,
2013-06-16 01:57:00,68.5,65.2,28.91,WSW,253,0.0,0.0,89,0.00,,---,0.00,VWS V14.01,2013-06-16 05:57:00,
2013-06-16 01:58:00,68.0,59.8,28.88,West,281,0.0,0.0,75,0.00,,---,0.00,VWS V14.01,2013-06-16 05:58:00,
2013-06-16 01:59:00,68.5,65.2,28.91,WSW,253,0.0,0.0,89,0.00,,---,0.00,VWS V14.01,2013-06-16 05:59:00,
2013-06-16 02:00:00,68.5,65.2,28.91,WSW,253,0.0,0.0,89,0.00,,---,0.00,VWS V14.01,2013-06-16 06:00:00,
2013-06-16 02:01:00,68.5,65.2,28.91,WSW,253,0.0,0.0,89,0.00,,---,0.00,VWS V14.01,2013-06-16 06:01:00,
2013-06-16 02:02:00,68.5,65.2,28.91,WSW,253,0.0,0.0,89,0.00,,---,0.00,VWS V14.01,2013-06-16 06:02:00,
2013-06-16 02:03:00,68.5,65.2,28.91,WSW,253,0.0,0.0,89,0.00,,---,0.00,VWS V14.01,2013-06-16 06:03:00,
2013-06-16 02:04:00,68.5,65.2,28.91,WSW,253,0.0,0.0,89,0.00,,---,0.00,VWS V14.01,2013-06-16 06:04:00,
2013-06-16 02:05:00,68.2,59.6,28.88,WSW,242,0.0,3.1,74,0.00,,---,0.00,VWS V14.01,2013-06-16 06:05:00,
2013-06-16 02:06:00,68.4,65.0,28.91,WSW,253,0.0,0.0,89,0.00,,---,0.00,VWS V14.01,2013-06-16 06:06:00,
2013-06-16 02:07:00,68.4,65.0,28.91,WSW,253,0.0,0.0,89,0.00,,---,0.00,VWS V14.01,2013-06-16 06:07:00,
2013-06-16 02:08:00,68.4,65.0,28.91,WSW,253,0.0,0.0,89,0.00,,---,0.00,VWS V14.01,2013-06-16 06:08:00,
2013-06-16 02:09:00,68.4,65.0,28.91,WSW,253,0.0,0.0,89,0.00,,---,0.00,VWS V14.01,2013-06-16 06:09:00,
2013-06-16 02:10:00,68.5,59.2,28.88,SW,227,2.7,4.5,72,0.00,,---,0.00,VWS V14.01,2013-06-16 06:10:00,
2013-06-16 02:11:00,68.4,65.0,28.91,WSW,253,0.0,0.0,89,0.00,,---,0.00,VWS V14.01,2013-06-16 06:11:00,
2013-06-16 02:12:00,68.2,64.8,28.91,WSW,253,0.0,0.0,89,0.00,,---,0.00,VWS V14.01,2013-06-16 06:12:00,
2013-06-16 02:13:00,68.2,64.8,28.91,WSW,253,0.0,0.0,89,0.00,,---,0.00,VWS V14.01,2013-06-16 06:13:00,
2013-06-16 02:14:00,68.2,64.8,28.91,WSW,253,0.0,0.0,89,0.00,,---,0.00,VWS V14.01,2013-06-16 06:14:00,
2013-06-16 02:15:00,68.2,64.8,28.91,WSW,253,0.0,0.0,89,0.00,,---,0.00,VWS V14.01,2013-06-16 06:15:00,
2013-06-16 02:16:00,68.7,58.5,28.88,SW,233,4.0,4.9,70,0.00,,---,0.00,VWS V14.01,2013-06-16 06:16:00,
2013-06-16 02:17:00,68.2,64.8,28.91,WSW,253,0.0,0.0,89,0.00,,---,0.00,VWS V14.01,2013-06-16 06:17:00,
2013-06-16 02:18:00,68.0,64.6,28.91,WSW,253,0.0,0.0,89,0.00,,---,0.00,VWS V14.01,2013-06-16 06:18:00,
2013-06-16 02:19:00,68.0,64.6,28.91,WSW,253,0.0,0.0,89,0.00,,---,0.00,VWS V14.01,2013-06-16 06:19:00,
2013-06-16 02:20:00,68.0,64.6,28.91,WSW,253,0.0,0.0,89,0.00,,---,0.00,VWS V14.01,2013-06-16 06:20:00,
2013-06-16 02:21:00,68.0,64.6,28.91,WSW,253,0.0,0.0,89,0.00,,---,0.00,VWS V14.01,2013-06-16 06:21:00,
2013-06-16 02:22:00,68.2,65.1,28.91,WSW,253,0.0,4.0,90,0.00,,---,0.00,VWS V14.01,2013-06-16 06:22:00,
2013-06-16 02:23:00,68.2,65.1,28.91,WSW,253,0.0,0.0,90,0.00,,---,0.00,VWS V14.01,2013-06-16 06:23:00,
2013-06-16 02:24:00,68.9,58.3,28.88,West,266,3.1,4.9,69,0.00,,---,0.00,VWS V14.01,2013-06-16 06:24:00,
2013-06-16 02:25:00,68.0,65.0,28.91,WSW,253,0.0,0.0,90,0.00,,---,0.00,VWS V14.01,2013-06-16 06:25:00,
2013-06-16 02:26:00,68.0,65.0,28.91,WSW,253,3.6,4.9,90,0.00,,---,0.00,VWS V14.01,2013-06-16 06:26:00,
2013-06-16 02:27:00,68.0,65.0,28.91,WSW,253,0.0,3.6,90,0.00,,---,0.00,VWS V14.01,2013-06-16 06:27:00,
2013-06-16 02:28:00,68.0,65.0,28.91,WSW,253,0.0,0.0,90,0.00,,---,0.00,VWS V14.01,2013-06-16 06:28:00,
2013-06-16 02:29:00,69.1,58.1,28.88,SW,234,0.0,0.0,68,0.00,,---,0.00,VWS V14.01,2013-06-16 06:29:00,
2013-06-16 02:30:00,68.0,65.0,28.91,WSW,253,0.0,0.0,90,0.00,,---,0.00,VWS V14.01,2013-06-16 06:30:00,
2013-06-16 02:31:00,68.0,65.0,28.91,WSW,253,0.0,0.0,90,0.00,,---,0.00,VWS V14.01,2013-06-16 06:31:00,
2013-06-16 02:32:00,67.8,64.8,28.91,WSW,253,0.0,0.0,90,0.00,,---,0.00,VWS V14.01,2013-06-16 06:32:00,
2013-06-16 02:33:00,67.8,64.8,28.91,WSW,253,0.0,0.0,90,0.00,,---,0.00,VWS V14.01,2013-06-16 06:33:00,
2013-06-16 02:34:00,69.3,57.8,28.88,SSW,203,0.0,3.1,67,0.00,,---,0.00,VWS V14.01,2013-06-16 06:34:00,
2013-06-16 02:35:00,67.8,64.8,28.91,WSW,253,0.0,0.0,90,0.00,,---,0.00,VWS V14.01,2013-06-16 06:35:00,
2013-06-16 02:36:00,67.8,64.8,28.91,WSW,253,0.0,0.0,90,0.00,,---,0.00,VWS V14.01,2013-06-16 06:36:00,
2013-06-16 02:37:00,67.8,64.8,28.91,WSW,253,0.0,0.0,90,0.00,,---,0.00,VWS V14.01,2013-06-16 06:37:00,
2013-06-16 02:38:00,67.6,64.6,28.91,WSW,253,0.0,0.0,90,0.00,,---,0.00,VWS V14.01,2013-06-16 06:38:00,
2013-06-16 02:39:00,69.4,57.6,28.88,WSW,249,4.9,7.4,66,0.00,,---,0.00,VWS V14.01,2013-06-16 06:39:00,
2013-06-16 02:40:00,67.6,64.6,28.91,WSW,253,0.0,0.0,90,0.00,,---,0.00,VWS V14.01,2013-06-16 06:40:00,
2013-06-16 02:41:00,67.8,64.8,28.91,WSW,252,0.0,4.9,90,0.00,,---,0.00,VWS V14.01,2013-06-16 06:41:00,
2013-06-16 02:42:00,67.8,64.8,28.91,WSW,252,0.0,0.0,90,0.00,,---,0.00,VWS V14.01,2013-06-16 06:42:00,
2013-06-16 02:43:00,67.8,64.8,28.91,WSW,252,0.0,0.0,90,0.00,,---,0.00,VWS V14.01,2013-06-16 06:43:00,
2013-06-16 02:44:00,67.8,64.8,28.91,WSW,252,0.0,0.0,90,0.00,,---,0.00,VWS V14.01,2013-06-16 06:44:00,
2013-06-16 02:45:00,67.8,64.8,28.91,WSW,252,0.0,2.7,90,0.00,,---,0.00,VWS V14.01,2013-06-16 06:45:00,
2013-06-16 02:46:00,69.8,57.5,28.88,West,263,3.1,6.3,65,0.00,,---,0.00,VWS V14.01,2013-06-16 06:46:00,
2013-06-16 02:47:00,67.8,64.8,28.91,WSW,252,0.0,4.9,90,0.00,,---,0.00,VWS V14.01,2013-06-16 06:47:00,
2013-06-16 02:48:00,67.8,64.8,28.91,WSW,252,0.0,0.0,90,0.00,,---,0.00,VWS V14.01,2013-06-16 06:48:00,
2013-06-16 02:49:00,67.8,64.8,28.91,WSW,252,0.0,0.0,90,0.00,,---,0.00,VWS V14.01,2013-06-16 06:49:00,
2013-06-16 02:50:00,67.8,65.1,28.91,WSW,252,0.0,0.0,91,0.00,,---,0.00,VWS V14.01,2013-06-16 06:50:00,
2013-06-16 02:51:00,70.0,57.7,28.88,West,270,3.6,6.7,65,0.00,,---,0.00,VWS V14.01,2013-06-16 06:51:00,
2013-06-16 02:52:00,67.8,65.1,28.91,WSW,252,0.0,0.0,91,0.00,,---,0.00,VWS V14.01,2013-06-16 06:52:00,
2013-06-16 02:53:00,67.8,65.1,28.91,WSW,252,0.0,0.0,91,0.00,,---,0.00,VWS V14.01,2013-06-16 06:53:00,
2013-06-16 02:54:00,67.8,65.1,28.91,WSW,252,0.0,0.0,91,0.00,,---,0.00,VWS V14.01,2013-06-16 06:54:00,
2013-06-16 02:55:00,67.8,65.1,28.91,WSW,252,0.0,0.0,91,0.00,,---,0.00,VWS V14.01,2013-06-16 06:55:00,
2013-06-16 02:56:00,70.3,57.6,28.88,NW,321,6.9,11.6,64,0.00,,---,0.00,VWS V14.01,2013-06-16 06:56:00,
2013-06-16 02:57:00,67.8,65.1,28.91,WSW,252,0.0,0.0,91,0.00,,---,0.00,VWS V14.01,2013-06-16 06:57:00,
2013-06-16 02:58:00,67.8,65.1,28.91,WSW,252,0.0,0.0,91,0.00,,---,0.00,VWS V14.01,2013-06-16 06:58:00,
2013-06-16 02:59:00,67.8,65.1,28.91,WSW,252,0.0,0.0,91,0.00,,---,0.00,VWS V14.01,2013-06-16 06:59:00,
2013-06-16 03:00:00,67.8,65.1,28.91,WSW,252,0.0,0.0,91,0.00,,---,0.00,VWS V14.01,2013-06-16 07:00:00,
2013-06-16 03:01:00,67.8,65.1,28.91,WSW,252,0.0,0.0,91,0.00,,---,0.00,VWS V14.01,2013-06-16 07:01:00,
2013-06-16 03:02:00,70.9,58.1,28.91,NW,307,10.1,10.1,64,0.00,,---,0.00,VWS V14.01,2013-06-16 07:02:00,
2013-06-16 03:03:00,68.0,65.3,28.91,WSW,252,0.0,0.0,91,0.00,,---,0.00,VWS V14.01,2013-06-16 07:03:00,
2013-06-16 03:04:00,68.0,65.3,28.91,WSW,252,0.0,0.0,91,0.00,,---,0.00,VWS V14.01,2013-06-16 07:04:00,
2013-06-16 03:05:00,68.0,65.3,28.91,WSW,252,0.0,0.0,91,0.00,,---,0.00,VWS V14.01,2013-06-16 07:05:00,
2013-06-16 03:06:00,68.0,65.3,28.91,WSW,252,0.0,0.0,91,0.00,,---,0.00,VWS V14.01,2013-06-16 07:06:00,
2013-06-16 03:07:00,71.1,59.6,28.91,West,278,5.8,11.6,67,0.00,,---,0.00,VWS V14.01,2013-06-16 07:07:00,
2013-06-16 03:08:00,68.2,65.5,28.91,WSW,252,0.0,0.0,91,0.00,,---,0.00,VWS V14.01,2013-06-16 07:08:00,
2013-06-16 03:09:00,68.2,65.8,28.91,WSW,252,0.0,0.0,92,0.00,,---,0.00,VWS V14.01,2013-06-16 07:09:00,
2013-06-16 03:10:00,68.2,65.8,28.91,WSW,252,0.0,0.0,92,0.00,,---,0.00,VWS V14.01,2013-06-16 07:10:00,
2013-06-16 03:11:00,68.2,65.8,28.91,WSW,252,0.0,3.1,92,0.00,,---,0.00,VWS V14.01,2013-06-16 07:11:00,
2013-06-16 03:12:00,71.1,60.8,28.91,WNW,283,6.9,11.2,70,0.00,,---,0.00,VWS V14.01,2013-06-16 07:12:00,
2013-06-16 03:13:00,68.2,65.8,28.91,WSW,252,0.0,0.0,92,0.00,,---,0.00,VWS V14.01,2013-06-16 07:13:00,
2013-06-16 03:14:00,68.2,65.8,28.91,WSW,252,0.0,0.0,92,0.00,,---,0.00,VWS V14.01,2013-06-16 07:14:00,
2013-06-16 03:15:00,68.2,65.8,28.91,WSW,252,0.0,0.0,92,0.00,,---,0.00,VWS V14.01,2013-06-16 07:15:00,
2013-06-16 03:16:00,68.2,65.8,28.91,WSW,252,0.0,0.0,92,0.00,,---,0.00,VWS V14.01,2013-06-16 07:16:00,
2013-06-16 03:17:00,70.2,62.6,28.91,SW,228,9.2,9.2,77,0.00,,---,0.00,VWS V14.01,2013-06-16 07:17:00,
2013-06-16 03:18:00,68.2,65.8,28.91,WSW,252,0.0,0.0,92,0.00,,---,0.00,VWS V14.01,2013-06-16 07:18:00,
2013-06-16 03:19:00,68.2,65.8,28.91,WSW,252,0.0,0.0,92,0.00,,---,0.00,VWS V14.01,2013-06-16 07:19:00,
2013-06-16 03:20:00,68.2,65.8,28.91,WSW,252,0.0,0.0,92,0.00,,---,0.00,VWS V14.01,2013-06-16 07:20:00,
2013-06-16 03:21:00,68.2,65.8,28.91,WSW,252,0.0,0.0,92,0.00,,---,0.00,VWS V14.01,2013-06-16 07:21:00,
2013-06-16 03:22:00,69.4,64.1,28.91,West,267,6.9,8.3,83,0.00,,---,0.00,VWS V14.01,2013-06-16 07:22:00,
2013-06-16 03:23:00,68.2,65.8,28.91,WSW,252,0.0,0.0,92,0.00,,---,0.00,VWS V14.01,2013-06-16 07:23:00,
2013-06-16 03:24:00,68.2,65.8,28.91,WSW,252,0.0,0.0,92,0.00,,---,0.00,VWS V14.01,2013-06-16 07:24:00,
2013-06-16 03:25:00,68.2,65.8,28.91,WSW,252,0.0,3.6,92,0.00,,---,0.00,VWS V14.01,2013-06-16 07:25:00,
2013-06-16 03:26:00,68.2,65.8,28.91,WSW,252,0.0,0.0,92,0.00,,---,0.00,VWS V14.01,2013-06-16 07:26:00,
2013-06-16 03:27:00,68.9,65.2,28.91,West,269,3.6,9.6,88,0.00,,---,0.00,VWS V14.01,2013-06-16 07:27:00,
2013-06-16 03:28:00,68.2,65.8,28.91,WSW,252,0.0,4.5,92,0.00,,---,0.00,VWS V14.01,2013-06-16 07:28:00,
2013-06-16 03:29:00,68.2,65.8,28.91,WSW,252,0.0,0.0,92,0.00,,---,0.00,VWS V14.01,2013-06-16 07:29:00,
2013-06-16 03:30:00,68.2,65.8,28.91,WSW,252,0.0,0.0,92,0.00,,---,0.00,VWS V14.01,2013-06-16 07:30:00,
2013-06-16 03:31:00,68.2,65.8,28.91,WSW,252,0.0,0.0,92,0.00,,---,0.00,VWS V14.01,2013-06-16 07:31:00,
2013-06-16 03:32:00,68.0,65.6,28.91,WSW,252,0.0,0.0,92,0.00,,---,0.00,VWS V14.01,2013-06-16 07:32:00,
2013-06-16 03:33:00,68.0,65.6,28.91,WSW,252,0.0,0.0,92,0.00,,---,0.00,VWS V14.01,2013-06-16 07:33:00,
2013-06-16 03:34:00,68.4,65.3,28.91,NW,304,6.9,7.8,90,0.00,,---,0.00,VWS V14.01,2013-06-16 07:34:00,
2013-06-16 03:35:00,68.0,65.6,28.91,WSW,252,0.0,0.0,92,0.00,,---,0.00,VWS V14.01,2013-06-16 07:35:00,
2013-06-16 03:36:00,68.0,65.6,28.91,WSW,252,0.0,0.0,92,0.00,,---,0.00,VWS V14.01,2013-06-16 07:36:00,
2013-06-16 03:37:00,68.0,65.6,28.91,WSW,252,3.1,3.1,92,0.00,,---,0.00,VWS V14.01,2013-06-16 07:37:00,
2013-06-16 03:38:00,68.0,65.6,28.91,WSW,252,0.0,3.1,92,0.00,,---,0.00,VWS V14.01,2013-06-16 07:38:00,
2013-06-16 03:39:00,68.0,65.6,28.91,WSW,252,0.0,0.0,92,0.00,,---,0.00,VWS V14.01,2013-06-16 07:39:00,
2013-06-16 03:40:00,68.2,65.8,28.91,WSW,241,6.3,7.8,92,0.00,,---,0.00,VWS V14.01,2013-06-16 07:40:00,
2013-06-16 03:41:00,67.8,65.4,28.91,WSW,252,0.0,4.0,92,0.00,,---,0.00,VWS V14.01,2013-06-16 07:41:00,
2013-06-16 03:42:00,67.8,65.4,28.91,WSW,252,0.0,0.0,92,0.00,,---,0.00,VWS V14.01,2013-06-16 07:42:00,
2013-06-16 03:43:00,67.8,65.4,28.91,WSW,252,0.0,0.0,92,0.00,,---,0.00,VWS V14.01,2013-06-16 07:43:00,
2013-06-16 03:44:00,67.8,65.4,28.91,WSW,252,0.0,3.6,92,0.00,,---,0.00,VWS V14.01,2013-06-16 07:44:00,
2013-06-16 03:45:00,68.2,66.1,28.88,SW,232,4.0,6.7,93,0.00,,---,0.00,VWS V14.01,2013-06-16 07:45:00,
2013-06-16 03:46:00,67.8,65.4,28.91,WSW,252,0.0,3.6,92,0.00,,---,0.00,VWS V14.01,2013-06-16 07:46:00,
2013-06-16 03:47:00,67.8,65.4,28.91,WSW,252,4.0,4.9,92,0.00,,---,0.00,VWS V14.01,2013-06-16 07:47:00,
2013-06-16 03:48:00,67.8,65.4,28.91,WSW,252,0.0,4.0,92,0.00,,---,0.00,VWS V14.01,2013-06-16 07:48:00,
2013-06-16 03:49:00,67.8,65.4,28.91,WSW,252,2.7,2.7,92,0.00,,---,0.00,VWS V14.01,2013-06-16 07:49:00,
2013-06-16 03:50:00,68.2,66.1,28.88,West,277,4.5,4.9,93,0.04,,---,0.04,VWS V14.01,2013-06-16 07:50:00,
2013-06-16 03:51:00,67.8,65.4,28.91,WSW,252,0.0,0.0,92,0.00,,---,0.00,VWS V14.01,2013-06-16 07:51:00,
2013-06-16 03:52:00,67.8,65.4,28.91,WSW,252,0.0,0.0,92,0.00,,---,0.00,VWS V14.01,2013-06-16 07:52:00,
2013-06-16 03:53:00,67.6,65.2,28.91,WSW,252,0.0,0.0,92,0.00,,---,0.00,VWS V14.01,2013-06-16 07:53:00,
2013-06-16 03:54:00,67.6,65.2,28.91,WSW,252,0.0,0.0,92,0.00,,---,0.00,VWS V14.01,2013-06-16 07:54:00,
2013-06-16 03:55:00,67.6,65.6,28.91,WSW,252,0.0,0.0,93,0.00,,---,0.00,VWS V14.01,2013-06-16 07:55:00,
2013-06-16 03:56:00,67.6,65.6,28.91,WSW,252,0.0,0.0,93,0.00,,---,0.00,VWS V14.01,2013-06-16 07:56:00,
2013-06-16 03:57:00,68.2,66.4,28.88,SW,227,4.0,6.7,94,0.04,,---,0.04,VWS V14.01,2013-06-16 07:57:00,
2013-06-16 03:58:00,67.6,65.6,28.91,WSW,252,0.0,2.7,93,0.00,,---,0.00,VWS V14.01,2013-06-16 07:58:00,
2013-06-16 03:59:00,67.6,65.6,28.91,WSW,252,0.0,0.0,93,0.00,,---,0.00,VWS V14.01,2013-06-16 07:59:00,
2013-06-16 04:00:00,67.6,65.6,28.91,WSW,252,0.0,3.1,93,0.00,,---,0.00,VWS V14.01,2013-06-16 08:00:00,
2013-06-16 04:01:00,67.6,65.6,28.91,WSW,252,0.0,0.0,93,0.00,,---,0.00,VWS V14.01,2013-06-16 08:01:00,
2013-06-16 04:02:00,68.0,66.2,28.88,WSW,247,0.0,5.8,94,0.04,,---,0.04,VWS V14.01,2013-06-16 08:02:00,
2013-06-16 04:03:00,67.6,65.6,28.91,WSW,252,0.0,0.0,93,0.00,,---,0.00,VWS V14.01,2013-06-16 08:03:00,
2013-06-16 04:04:00,67.6,65.6,28.91,WSW,252,0.0,0.0,93,0.00,,---,0.00,VWS V14.01,2013-06-16 08:04:00,
2013-06-16 04:05:00,67.6,65.6,28.91,WSW,252,0.0,0.0,93,0.00,,---,0.00,VWS V14.01,2013-06-16 08:05:00,
2013-06-16 04:06:00,67.6,65.6,28.91,WSW,252,0.0,0.0,93,0.00,,---,0.00,VWS V14.01,2013-06-16 08:06:00,
2013-06-16 04:07:00,68.0,66.5,28.88,WNW,294,0.0,4.0,95,0.04,,---,0.04,VWS V14.01,2013-06-16 08:07:00,
2013-06-16 04:08:00,67.6,65.6,28.91,WSW,252,0.0,0.0,93,0.00,,---,0.00,VWS V14.01,2013-06-16 08:08:00,
2013-06-16 04:09:00,67.6,65.6,28.91,WSW,252,0.0,0.0,93,0.00,,---,0.00,VWS V14.01,2013-06-16 08:09:00,
2013-06-16 04:10:00,67.6,65.6,28.91,WSW,252,0.0,0.0,93,0.00,,---,0.00,VWS V14.01,2013-06-16 08:10:00,
2013-06-16 04:11:00,67.6,65.6,28.91,WSW,252,0.0,0.0,93,0.00,,---,0.00,VWS V14.01,2013-06-16 08:11:00,
2013-06-16 04:12:00,68.0,66.5,28.88,West,271,0.0,4.0,95,0.04,,---,0.04,VWS V14.01,2013-06-16 08:12:00,
2013-06-16 04:13:00,67.6,65.6,28.88,WSW,252,0.0,0.0,93,0.00,,---,0.00,VWS V14.01,2013-06-16 08:13:00,
2013-06-16 04:14:00,67.6,65.6,28.88,WSW,252,0.0,0.0,93,0.00,,---,0.00,VWS V14.01,2013-06-16 08:14:00,
2013-06-16 04:15:00,67.5,65.4,28.88,WSW,252,0.0,0.0,93,0.00,,---,0.00,VWS V14.01,2013-06-16 08:15:00,
2013-06-16 04:16:00,67.5,65.4,28.88,WSW,252,0.0,0.0,93,0.00,,---,0.00,VWS V14.01,2013-06-16 08:16:00,
2013-06-16 04:17:00,67.5,65.4,28.88,WSW,252,0.0,0.0,93,0.00,,---,0.00,VWS V14.01,2013-06-16 08:17:00,
2013-06-16 04:18:00,68.0,66.5,28.88,West,281,6.7,6.7,95,0.04,,---,0.04,VWS V14.01,2013-06-16 08:18:00,
2013-06-16 04:19:00,67.5,65.4,28.88,WSW,252,0.0,0.0,93,0.00,,---,0.00,VWS V14.01,2013-06-16 08:19:00,
2013-06-16 04:20:00,67.5,65.4,28.88,WSW,252,0.0,0.0,93,0.00,,---,0.00,VWS V14.01,2013-06-16 08:20:00,
2013-06-16 04:21:00,67.5,65.4,28.88,WSW,252,0.0,0.0,93,0.00,,---,0.00,VWS V14.01,2013-06-16 08:21:00,
2013-06-16 04:22:00,67.5,65.4,28.88,WSW,252,3.1,3.1,93,0.00,,---,0.00,VWS V14.01,2013-06-16 08:22:00,
2013-06-16 04:23:00,67.5,65.4,28.88,WSW,252,0.0,3.6,93,0.00,,---,0.00,VWS V14.01,2013-06-16 08:23:00,
2013-06-16 04:24:00,67.8,66.3,28.88,WSW,252,3.6,4.9,95,0.04,,---,0.04,VWS V14.01,2013-06-16 08:24:00,
2013-06-16 04:25:00,67.6,65.6,28.88,WSW,252,0.0,3.1,93,0.00,,---,0.00,VWS V14.01,2013-06-16 08:25:00,
2013-06-16 04:26:00,67.6,65.6,28.88,WSW,252,0.0,0.0,93,0.00,,---,0.00,VWS V14.01,2013-06-16 08:26:00,
2013-06-16 04:27:00,67.6,65.6,28.91,WSW,252,0.0,0.0,93,0.00,,---,0.00,VWS V14.01,2013-06-16 08:27:00,
2013-06-16 04:28:00,67.6,65.6,28.91,WSW,252,0.0,0.0,93,0.00,,---,0.00,VWS V14.01,2013-06-16 08:28:00,
2013-06-16 04:29:00,67.8,66.3,28.88,WSW,247,0.0,6.9,95,0.04,,---,0.04,VWS V14.01,2013-06-16 08:29:00,
2013-06-16 04:30:00,67.6,65.6,28.91,WSW,252,0.0,0.0,93,0.00,,---,0.00,VWS V14.01,2013-06-16 08:30:00,
2013-06-16 04:31:00,67.6,65.6,28.91,WSW,252,0.0,3.1,93,0.00,,---,0.00,VWS V14.01,2013-06-16 08:31:00,
2013-06-16 04:32:00,67.6,65.6,28.91,WSW,252,0.0,0.0,93,0.00,,---,0.00,VWS V14.01,2013-06-16 08:32:00,
2013-06-16 04:33:00,67.6,65.6,28.91,WSW,252,0.0,0.0,93,0.00,,---,0.00,VWS V14.01,2013-06-16 08:33:00,
2013-06-16 04:34:00,67.8,66.3,28.88,WNW,282,0.0,0.0,95,0.04,,---,0.04,VWS V14.01,2013-06-16 08:34:00,
2013-06-16 04:35:00,67.6,65.6,28.91,WSW,252,3.1,5.8,93,0.00,,---,0.00,VWS V14.01,2013-06-16 08:35:00,
2013-06-16 04:36:00,67.6,65.6,28.91,WSW,252,0.0,3.1,93,0.00,,---,0.00,VWS V14.01,2013-06-16 08:36:00,
2013-06-16 04:37:00,67.6,65.6,28.91,WSW,252,3.6,3.6,93,0.00,,---,0.00,VWS V14.01,2013-06-16 08:37:00,
2013-06-16 04:38:00,67.6,65.6,28.91,WSW,252,0.0,4.0,93,0.00,,---,0.00,VWS V14.01,2013-06-16 08:38:00,
2013-06-16 04:39:00,67.8,66.6,28.88,SW,216,3.1,6.7,96,0.04,,---,0.04,VWS V14.01,2013-06-16 08:39:00,
2013-06-16 04:40:00,67.6,65.9,28.91,WSW,252,0.0,0.0,94,0.00,,---,0.00,VWS V14.01,2013-06-16 08:40:00,
2013-06-16 04:41:00,67.6,65.9,28.91,WSW,252,0.0,0.0,94,0.00,,---,0.00,VWS V14.01,2013-06-16 08:41:00,
2013-06-16 04:42:00,67.6,65.9,28.91,WSW,252,0.0,0.0,94,0.00,,---,0.00,VWS V14.01,2013-06-16 08:42:00,
2013-06-16 04:43:00,67.6,65.9,28.91,WSW,252,0.0,0.0,94,0.00,,---,0.00,VWS V14.01,2013-06-16 08:43:00,
2013-06-16 04:44:00,67.8,66.6,28.88,WNW,302,4.5,5.8,96,0.04,,---,0.04,VWS V14.01,2013-06-16 08:44:00,
2013-06-16 04:45:00,67.6,65.9,28.91,WSW,252,0.0,0.0,94,0.00,,---,0.00,VWS V14.01,2013-06-16 08:45:00,
2013-06-16 04:46:00,67.6,65.9,28.91,WSW,252,0.0,0.0,94,0.00,,---,0.00,VWS V14.01,2013-06-16 08:46:00,
2013-06-16 04:47:00,67.6,65.9,28.91,WSW,252,0.0,0.0,94,0.00,,---,0.00,VWS V14.01,2013-06-16 08:47:00,
2013-06-16 04:48:00,67.6,65.9,28.91,WSW,252,0.0,0.0,94,0.00,,---,0.00,VWS V14.01,2013-06-16 08:48:00,
2013-06-16 04:49:00,67.6,66.5,28.88,WSW,251,0.0,5.8,96,0.00,,---,0.04,VWS V14.01,2013-06-16 08:49:00,
2013-06-16 04:50:00,67.6,65.9,28.91,WSW,252,0.0,3.6,94,0.00,,---,0.00,VWS V14.01,2013-06-16 08:50:00,
2013-06-16 04:51:00,67.6,65.9,28.91,WSW,252,0.0,0.0,94,0.00,,---,0.00,VWS V14.01,2013-06-16 08:51:00,
2013-06-16 04:52:00,67.6,65.9,28.91,WSW,252,0.0,0.0,94,0.00,,---,0.00,VWS V14.01,2013-06-16 08:52:00,
2013-06-16 04:53:00,67.6,65.9,28.91,WSW,252,0.0,3.6,94,0.00,,---,0.00,VWS V14.01,2013-06-16 08:53:00,
2013-06-16 04:54:00,67.6,66.5,28.88,West,279,9.6,9.6,96,0.00,,---,0.04,VWS V14.01,2013-06-16 08:54:00,
2013-06-16 04:55:00,67.6,65.9,28.91,WSW,252,0.0,0.0,94,0.00,,---,0.00,VWS V14.01,2013-06-16 08:55:00,
2013-06-16 04:56:00,67.6,65.9,28.91,WSW,252,0.0,0.0,94,0.00,,---,0.00,VWS V14.01,2013-06-16 08:56:00,
2013-06-16 04:57:00,67.6,65.9,28.91,WSW,252,0.0,0.0,94,0.00,,---,0.00,VWS V14.01,2013-06-16 08:57:00,
2013-06-16 04:58:00,67.6,65.9,28.91,WSW,252,0.0,0.0,94,0.00,,---,0.00,VWS V14.01,2013-06-16 08:58:00,
2013-06-16 04:59:00,67.3,66.1,28.88,West,271,5.8,6.3,96,0.00,,---,0.04,VWS V14.01,2013-06-16 08:59:00,
2013-06-16 05:00:00,67.8,66.0,28.91,WSW,252,0.0,3.1,94,0.00,,---,0.00,VWS V14.01,2013-06-16 09:00:00,
2013-06-16 05:01:00,67.8,66.0,28.91,WSW,252,0.0,3.6,94,0.00,,---,0.00,VWS V14.01,2013-06-16 09:01:00,
2013-06-16 05:02:00,67.8,66.0,28.91,WSW,252,3.6,3.6,94,0.00,,---,0.00,VWS V14.01,2013-06-16 09:02:00,
2013-06-16 05:03:00,68.0,66.2,28.91,WSW,252,0.0,4.5,94,0.00,,---,0.00,VWS V14.01,2013-06-16 09:03:00,
2013-06-16 05:04:00,67.3,66.1,28.88,WNW,298,3.1,5.4,96,0.00,,---,0.04,VWS V14.01,2013-06-16 09:04:00,
2013-06-16 05:05:00,68.0,66.2,28.91,WSW,248,5.4,5.4,94,0.00,,---,0.00,VWS V14.01,2013-06-16 09:05:00,
2013-06-16 05:06:00,68.2,66.4,28.91,WSW,248,0.0,5.8,94,0.00,,---,0.00,VWS V14.01,2013-06-16 09:06:00,
2013-06-16 05:07:00,68.2,66.4,28.91,WSW,248,0.0,3.6,94,0.00,,---,0.00,VWS V14.01,2013-06-16 09:07:00,
2013-06-16 05:08:00,68.4,66.6,28.91,WSW,249,0.0,3.6,94,0.00,,---,0.00,VWS V14.01,2013-06-16 09:08:00,
2013-06-16 05:09:00,67.5,66.0,28.88,WSW,237,3.6,7.4,95,0.00,,---,0.04,VWS V14.01,2013-06-16 09:09:00,
2013-06-16 05:10:00,68.2,66.4,28.91,WSW,249,0.0,0.0,94,0.00,,---,0.00,VWS V14.01,2013-06-16 09:10:00,
2013-06-16 05:11:00,68.2,66.7,28.91,WSW,248,0.0,4.0,95,0.00,,---,0.00,VWS V14.01,2013-06-16 09:11:00,
2013-06-16 05:12:00,68.2,66.7,28.91,WSW,248,0.0,0.0,95,0.00,,---,0.00,VWS V14.01,2013-06-16 09:12:00,
2013-06-16 05:13:00,68.4,66.9,28.91,WSW,248,2.7,3.6,95,0.00,,---,0.00,VWS V14.01,2013-06-16 09:13:00,
2013-06-16 05:14:00,67.5,66.0,28.88,West,273,4.0,4.9,95,0.00,,---,0.04,VWS V14.01,2013-06-16 09:14:00,
2013-06-16 05:15:00,68.4,66.9,28.91,WSW,248,0.0,0.0,95,0.00,,---,0.00,VWS V14.01,2013-06-16 09:15:00,
2013-06-16 05:16:00,68.4,66.9,28.91,WSW,248,0.0,0.0,95,0.00,,---,0.00,VWS V14.01,2013-06-16 09:16:00,
2013-06-16 05:17:00,68.4,66.9,28.91,WSW,248,0.0,0.0,95,0.00,,---,0.00,VWS V14.01,2013-06-16 09:17:00,
2013-06-16 05:18:00,68.4,66.9,28.91,WSW,248,2.7,3.6,95,0.00,,---,0.00,VWS V14.01,2013-06-16 09:18:00,
2013-06-16 05:19:00,67.5,65.7,28.88,West,278,3.6,5.8,94,0.00,,---,0.04,VWS V14.01,2013-06-16 09:19:00,
2013-06-16 05:20:00,68.5,67.1,28.91,WSW,248,0.0,0.0,95,0.00,,---,0.00,VWS V14.01,2013-06-16 09:20:00,
2013-06-16 05:21:00,68.5,67.1,28.91,WSW,248,0.0,0.0,95,0.00,,---,0.00,VWS V14.01,2013-06-16 09:21:00,
2013-06-16 05:22:00,68.5,67.1,28.91,WSW,248,0.0,0.0,95,0.00,,---,0.00,VWS V14.01,2013-06-16 09:22:00,
2013-06-16 05:23:00,68.5,67.1,28.91,WSW,248,0.0,0.0,95,0.00,,---,0.00,VWS V14.01,2013-06-16 09:23:00,
2013-06-16 05:24:00,67.5,65.4,28.88,West,273,6.9,9.2,93,0.00,,---,0.04,VWS V14.01,2013-06-16 09:24:00,
2013-06-16 05:25:00,68.5,67.1,28.91,WSW,248,0.0,2.7,95,0.00,,---,0.00,VWS V14.01,2013-06-16 09:25:00,
2013-06-16 05:26:00,68.5,67.1,28.91,WSW,248,0.0,0.0,95,0.00,,---,0.00,VWS V14.01,2013-06-16 09:26:00,
2013-06-16 05:27:00,68.5,67.1,28.91,WSW,248,0.0,0.0,95,0.00,,---,0.00,VWS V14.01,2013-06-16 09:27:00,
2013-06-16 05:28:00,68.5,67.1,28.91,WSW,249,3.6,4.5,95,0.00,,---,0.00,VWS V14.01,2013-06-16 09:28:00,
2013-06-16 05:29:00,67.3,64.9,28.88,WNW,287,4.0,5.4,92,0.00,,---,0.04,VWS V14.01,2013-06-16 09:29:00,
2013-06-16 05:30:00,68.7,67.2,28.91,WSW,249,2.7,3.6,95,0.00,,---,0.00,VWS V14.01,2013-06-16 09:30:00,
2013-06-16 05:31:00,68.7,67.2,28.91,WSW,249,2.7,2.7,95,0.00,,---,0.00,VWS V14.01,2013-06-16 09:31:00,
2013-06-16 05:32:00,68.7,67.2,28.91,WSW,249,2.7,3.1,95,0.00,,---,0.00,VWS V14.01,2013-06-16 09:32:00,
2013-06-16 05:33:00,68.7,67.2,28.91,West,281,7.4,7.4,95,0.00,,---,0.00,VWS V14.01,2013-06-16 09:33:00,
2013-06-16 05:34:00,67.3,64.2,28.88,West,270,0.0,6.3,90,0.00,,---,0.04,VWS V14.01,2013-06-16 09:34:00,
2013-06-16 05:35:00,68.9,67.4,28.91,WSW,247,0.0,0.0,95,0.00,,---,0.00,VWS V14.01,2013-06-16 09:35:00,
2013-06-16 05:36:00,68.9,67.4,28.91,SW,235,3.6,5.8,95,0.00,,---,0.00,VWS V14.01,2013-06-16 09:36:00,
2013-06-16 05:37:00,68.9,67.4,28.91,West,260,5.4,6.3,95,0.00,,---,0.00,VWS V14.01,2013-06-16 09:37:00,
2013-06-16 05:38:00,68.9,67.4,28.91,SW,235,0.0,5.4,95,0.00,,---,0.00,VWS V14.01,2013-06-16 09:38:00,
2013-06-16 05:39:00,67.3,63.9,28.88,WNW,299,4.0,4.5,89,0.00,,---,0.04,VWS V14.01,2013-06-16 09:39:00,
2013-06-16 05:40:00,68.9,67.4,28.91,WSW,253,0.0,3.6,95,0.00,,---,0.00,VWS V14.01,2013-06-16 09:40:00,
2013-06-16 05:41:00,69.1,67.6,28.91,West,274,0.0,5.4,95,0.00,,---,0.00,VWS V14.01,2013-06-16 09:41:00,
2013-06-16 05:42:00,69.1,67.6,28.91,West,274,0.0,3.6,95,0.00,,---,0.00,VWS V14.01,2013-06-16 09:42:00,
2013-06-16 05:43:00,69.1,67.6,28.91,West,274,0.0,3.1,95,0.00,,---,0.00,VWS V14.01,2013-06-16 09:43:00,
2013-06-16 05:44:00,67.1,63.4,28.88,West,259,0.0,4.0,88,0.00,,---,0.04,VWS V14.01,2013-06-16 09:44:00,
2013-06-16 05:45:00,69.1,67.6,28.91,WSW,254,0.0,4.5,95,0.00,,---,0.00,VWS V14.01,2013-06-16 09:45:00,
2013-06-16 05:46:00,69.1,67.6,28.91,WSW,254,3.1,3.1,95,0.00,,---,0.00,VWS V14.01,2013-06-16 09:46:00,
2013-06-16 05:47:00,69.1,67.6,28.91,NW,309,4.5,4.9,95,0.00,,---,0.00,VWS V14.01,2013-06-16 09:47:00,
2013-06-16 05:48:00,69.1,67.6,28.91,NNW,341,0.0,4.5,95,0.00,,---,0.00,VWS V14.01,2013-06-16 09:48:00,
2013-06-16 05:49:00,66.9,63.3,28.88,WSW,247,0.0,0.0,88,0.00,,---,0.04,VWS V14.01,2013-06-16 09:49:00,
2013-06-16 05:50:00,68.9,67.4,28.91,West,281,4.5,6.9,95,0.00,,---,0.00,VWS V14.01,2013-06-16 09:50:00,
2013-06-16 05:51:00,69.1,67.6,28.91,West,261,3.1,7.4,95,0.00,,---,0.00,VWS V14.01,2013-06-16 09:51:00,
2013-06-16 05:52:00,69.1,67.6,28.91,West,261,2.7,3.6,95,0.00,,---,0.00,VWS V14.01,2013-06-16 09:52:00,
2013-06-16 05:53:00,69.1,67.6,28.91,West,261,3.1,3.6,95,0.00,,---,0.00,VWS V14.01,2013-06-16 09:53:00,
2013-06-16 05:54:00,66.9,63.3,28.88,WSW,247,0.0,0.0,88,0.00,,---,0.04,VWS V14.01,2013-06-16 09:54:00,
2013-06-16 05:55:00,69.1,67.6,28.91,West,259,5.4,6.3,95,0.00,,---,0.00,VWS V14.01,2013-06-16 09:55:00,
2013-06-16 05:56:00,69.1,67.6,28.91,WSW,246,4.0,5.4,95,0.00,,---,0.00,VWS V14.01,2013-06-16 09:56:00,
2013-06-16 05:57:00,69.1,67.6,28.91,WSW,246,3.1,4.5,95,0.00,,---,0.00,VWS V14.01,2013-06-16 09:57:00,
2013-06-16 05:58:00,69.1,67.6,28.91,WNW,296,6.7,6.7,95,0.00,,---,0.00,VWS V14.01,2013-06-16 09:58:00,
2013-06-16 05:59:00,66.9,63.3,28.88,WSW,247,0.0,0.0,88,0.00,,---,0.04,VWS V14.01,2013-06-16 09:59:00,
2013-06-16 06:00:00,68.9,67.4,28.91,NW,306,4.9,4.9,95,0.00,,---,0.00,VWS V14.01,2013-06-16 10:00:00,
2013-06-16 06:01:00,69.1,67.6,28.91,West,278,3.1,4.9,95,0.00,,---,0.00,VWS V14.01,2013-06-16 10:01:00,
2013-06-16 06:02:00,69.1,67.6,28.91,West,278,3.6,4.0,95,0.00,,---,0.00,VWS V14.01,2013-06-16 10:02:00,
2013-06-16 06:03:00,68.9,67.4,28.91,West,278,0.0,3.6,95,0.00,,---,0.00,VWS V14.01,2013-06-16 10:03:00,
2013-06-16 06:04:00,66.7,63.1,28.88,WSW,247,0.0,0.0,88,0.00,,---,0.04,VWS V14.01,2013-06-16 10:04:00,
2013-06-16 06:05:00,69.1,67.6,28.91,West,278,0.0,3.6,95,0.00,,---,0.00,VWS V14.01,2013-06-16 10:05:00,
2013-06-16 06:06:00,68.9,67.4,28.91,West,278,3.1,3.1,95,0.00,,---,0.00,VWS V14.01,2013-06-16 10:06:00,
2013-06-16 06:07:00,69.1,67.6,28.91,West,278,2.7,4.0,95,0.00,,---,0.00,VWS V14.01,2013-06-16 10:07:00,
2013-06-16 06:08:00,69.1,67.6,28.91,West,278,0.0,2.7,95,0.00,,---,0.00,VWS V14.01,2013-06-16 10:08:00,
2013-06-16 06:09:00,66.7,63.1,28.88,WSW,247,0.0,0.0,88,0.00,,---,0.04,VWS V14.01,2013-06-16 10:09:00,
2013-06-16 06:10:00,69.1,67.6,28.91,WNW,285,0.0,4.5,95,0.00,,---,0.00,VWS V14.01,2013-06-16 10:10:00,
2013-06-16 06:11:00,69.1,67.6,28.91,WNW,284,2.7,2.7,95,0.00,,---,0.00,VWS V14.01,2013-06-16 10:11:00,
2013-06-16 06:12:00,69.1,67.6,28.91,WNW,284,0.0,4.5,95,0.00,,---,0.00,VWS V14.01,2013-06-16 10:12:00,
2013-06-16 06:13:00,69.1,67.6,28.91,WNW,284,0.0,3.6,95,0.00,,---,0.00,VWS V14.01,2013-06-16 10:13:00,
2013-06-16 06:14:00,66.6,62.9,28.88,WSW,247,0.0,0.0,88,0.00,,---,0.04,VWS V14.01,2013-06-16 10:14:00,
2013-06-16 06:15:00,69.1,67.6,28.91,SW,226,3.1,4.0,95,0.00,,---,0.00,VWS V14.01,2013-06-16 10:15:00,
2013-06-16 06:16:00,69.1,67.9,28.91,SW,226,0.0,3.1,96,0.00,,---,0.00,VWS V14.01,2013-06-16 10:16:00,
2013-06-16 06:17:00,69.1,67.9,28.91,SW,226,0.0,0.0,96,0.00,,---,0.00,VWS V14.01,2013-06-16 10:17:00,
2013-06-16 06:18:00,69.1,67.9,28.91,WNW,289,2.7,4.9,96,0.00,,---,0.00,VWS V14.01,2013-06-16 10:18:00,
2013-06-16 06:19:00,66.6,62.9,28.88,WSW,247,0.0,0.0,88,0.00,,---,0.04,VWS V14.01,2013-06-16 10:19:00,
2013-06-16 06:20:00,69.1,67.9,28.91,WNW,289,0.0,0.0,96,0.00,,---,0.00,VWS V14.01,2013-06-16 10:20:00,
2013-06-16 06:21:00,69.1,67.9,28.91,WSW,258,0.0,3.6,96,0.00,,---,0.00,VWS V14.01,2013-06-16 10:21:00,
2013-06-16 06:22:00,69.1,67.9,28.91,WSW,258,0.0,0.0,96,0.00,,---,0.00,VWS V14.01,2013-06-16 10:22:00,
2013-06-16 06:23:00,69.1,67.9,28.91,WSW,258,0.0,4.0,96,0.00,,---,0.00,VWS V14.01,2013-06-16 10:23:00,
2013-06-16 06:24:00,66.6,62.9,28.88,WSW,247,0.0,0.0,88,0.00,,---,0.04,VWS V14.01,2013-06-16 10:24:00,
2013-06-16 06:25:00,69.1,67.9,28.91,WSW,258,0.0,3.1,96,0.00,,---,0.00,VWS V14.01,2013-06-16 10:25:00,
2013-06-16 06:26:00,69.1,67.9,28.91,West,259,4.0,4.5,96,0.00,,---,0.00,VWS V14.01,2013-06-16 10:26:00,
2013-06-16 06:27:00,69.1,67.9,28.91,West,262,2.7,6.7,96,0.00,,---,0.00,VWS V14.01,2013-06-16 10:27:00,
2013-06-16 06:28:00,69.1,67.9,28.91,West,262,0.0,3.1,96,0.00,,---,0.00,VWS V14.01,2013-06-16 10:28:00,
2013-06-16 06:29:00,66.4,62.7,28.88,WSW,247,0.0,0.0,88,0.00,,---,0.04,VWS V14.01,2013-06-16 10:29:00,
2013-06-16 06:30:00,69.1,67.9,28.91,West,262,2.7,3.6,96,0.00,,---,0.00,VWS V14.01,2013-06-16 10:30:00,
2013-06-16 06:31:00,69.3,68.1,28.91,West,262,0.0,4.0,96,0.00,,---,0.00,VWS V14.01,2013-06-16 10:31:00,
2013-06-16 06:32:00,69.3,68.1,28.91,West,262,0.0,0.0,96,0.00,,---,0.00,VWS V14.01,2013-06-16 10:32:00,
2013-06-16 06:33:00,69.3,68.1,28.91,West,262,0.0,0.0,96,0.00,,---,0.00,VWS V14.01,2013-06-16 10:33:00,
2013-06-16 06:34:00,66.4,62.7,28.88,WSW,247,0.0,0.0,88,0.00,,---,0.04,VWS V14.01,2013-06-16 10:34:00,
2013-06-16 06:35:00,69.3,68.1,28.91,West,262,0.0,0.0,96,0.00,,---,0.00,VWS V14.01,2013-06-16 10:35:00,
2013-06-16 06:36:00,69.3,68.1,28.91,West,262,3.6,3.6,96,0.00,,---,0.00,VWS V14.01,2013-06-16 10:36:00,
2013-06-16 06:37:00,69.3,68.1,28.91,West,262,0.0,4.0,96,0.00,,---,0.00,VWS V14.01,2013-06-16 10:37:00,
2013-06-16 06:38:00,69.3,68.1,28.91,West,262,0.0,0.0,96,0.00,,---,0.00,VWS V14.01,2013-06-16 10:38:00,
2013-06-16 06:39:00,66.4,62.7,28.88,WSW,247,0.0,0.0,88,0.00,,---,0.04,VWS V14.01,2013-06-16 10:39:00,
2013-06-16 06:40:00,69.3,68.1,28.91,WNW,282,4.9,4.9,96,0.00,,---,0.00,VWS V14.01,2013-06-16 10:40:00,
2013-06-16 06:41:00,69.3,68.1,28.91,WNW,286,0.0,4.9,96,0.00,,---,0.00,VWS V14.01,2013-06-16 10:41:00,
2013-06-16 06:42:00,69.3,68.1,28.91,WNW,286,0.0,0.0,96,0.00,,---,0.00,VWS V14.01,2013-06-16 10:42:00,
2013-06-16 06:43:00,69.3,68.1,28.91,WNW,286,4.0,5.4,96,0.00,,---,0.00,VWS V14.01,2013-06-16 10:43:00,
2013-06-16 06:44:00,66.4,62.7,28.88,WSW,247,0.0,0.0,88,0.00,,---,0.04,VWS V14.01,2013-06-16 10:44:00,
2013-06-16 06:45:00,69.3,68.1,28.91,West,269,0.0,4.9,96,0.00,,---,0.00,VWS V14.01,2013-06-16 10:45:00,
2013-06-16 06:46:00,69.3,68.1,28.91,SW,223,0.0,4.0,96,0.00,,---,0.00,VWS V14.01,2013-06-16 10:46:00,
2013-06-16 06:47:00,69.4,68.2,28.91,West,268,3.6,3.6,96,0.00,,---,0.00,VWS V14.01,2013-06-16 10:47:00,
2013-06-16 06:48:00,69.4,68.2,28.91,West,268,0.0,3.6,96,0.00,,---,0.00,VWS V14.01,2013-06-16 10:48:00,
2013-06-16 06:49:00,66.6,62.9,28.88,West,260,3.6,4.5,88,0.00,,---,0.04,VWS V14.01,2013-06-16 10:49:00,
2013-06-16 06:50:00,69.4,68.2,28.91,West,268,0.0,3.1,96,0.00,,---,0.00,VWS V14.01,2013-06-16 10:50:00,
2013-06-16 06:51:00,69.4,68.2,28.91,West,268,3.6,4.9,96,0.00,,---,0.00,VWS V14.01,2013-06-16 10:51:00,
2013-06-16 06:52:00,69.4,68.2,28.91,West,268,0.0,4.9,96,0.00,,---,0.00,VWS V14.01,2013-06-16 10:52:00,
2013-06-16 06:53:00,69.4,68.2,28.91,West,268,0.0,0.0,96,0.00,,---,0.00,VWS V14.01,2013-06-16 10:53:00,
2013-06-16 06:54:00,66.6,63.2,28.88,SW,235,0.0,5.4,89,0.00,,---,0.04,VWS V14.01,2013-06-16 10:54:00,
2013-06-16 06:55:00,69.6,68.4,28.91,West,268,0.0,0.0,96,0.00,,---,0.00,VWS V14.01,2013-06-16 10:55:00,
2013-06-16 06:56:00,69.6,68.4,28.91,West,268,2.7,2.7,96,0.00,,---,0.00,VWS V14.01,2013-06-16 10:56:00,
2013-06-16 06:57:00,69.6,68.4,28.91,West,268,0.0,4.0,96,0.00,,---,0.00,VWS V14.01,2013-06-16 10:57:00,
2013-06-16 06:58:00,69.6,68.4,28.91,West,268,4.9,4.9,96,0.00,,---,0.00,VWS V14.01,2013-06-16 10:58:00,
2013-06-16 06:59:00,66.7,63.7,28.88,WSW,244,0.0,0.0,90,0.00,,---,0.04,VWS V14.01,2013-06-16 10:59:00,
2013-06-16 07:00:00,69.6,68.4,28.91,West,268,3.1,4.5,96,0.00,,---,0.00,VWS V14.01,2013-06-16 11:00:00,
2013-06-16 07:01:00,69.6,68.4,28.91,West,268,4.5,4.5,96,0.00,,---,0.00,VWS V14.01,2013-06-16 11:01:00,
2013-06-16 07:02:00,69.6,68.4,28.91,West,268,0.0,4.5,96,0.00,,---,0.00,VWS V14.01,2013-06-16 11:02:00,
2013-06-16 07:03:00,69.6,68.4,28.91,West,275,4.0,4.0,96,0.00,,---,0.00,VWS V14.01,2013-06-16 11:03:00,
2013-06-16 07:04:00,66.7,63.7,28.88,WSW,252,0.0,4.9,90,0.00,,---,0.04,VWS V14.01,2013-06-16 11:04:00,
2013-06-16 07:05:00,69.6,68.4,28.91,West,276,3.1,4.5,96,0.00,,---,0.00,VWS V14.01,2013-06-16 11:05:00,
2013-06-16 07:06:00,69.6,68.4,28.91,West,270,4.0,4.0,96,0.00,,---,0.00,VWS V14.01,2013-06-16 11:06:00,
2013-06-16 07:07:00,69.6,68.4,28.91,West,270,4.5,4.5,96,0.00,,---,0.00,VWS V14.01,2013-06-16 11:07:00,
2013-06-16 07:08:00,69.6,68.4,28.91,WSW,251,5.8,6.3,96,0.00,,---,0.00,VWS V14.01,2013-06-16 11:08:00,
2013-06-16 07:09:00,66.7,63.7,28.88,NW,313,0.0,3.6,90,0.00,,---,0.04,VWS V14.01,2013-06-16 11:09:00,
2013-06-16 07:10:00,69.6,68.4,28.91,West,259,0.0,4.0,96,0.00,,---,0.00,VWS V14.01,2013-06-16 11:10:00,
2013-06-16 07:11:00,69.6,68.4,28.91,West,260,0.0,4.5,96,0.00,,---,0.00,VWS V14.01,2013-06-16 11:11:00,
2013-06-16 07:12:00,69.8,68.6,28.91,NNW,340,4.9,5.8,96,0.00,,---,0.00,VWS V14.01,2013-06-16 11:12:00,
2013-06-16 07:13:00,69.8,68.6,28.91,West,267,4.5,5.4,96,0.00,,---,0.00,VWS V14.01,2013-06-16 11:13:00,
2013-06-16 07:14:00,66.7,63.7,28.88,West,281,5.8,6.3,90,0.00,,---,0.04,VWS V14.01,2013-06-16 11:14:00,
2013-06-16 07:15:00,69.8,68.6,28.91,WNW,292,5.8,6.3,96,0.00,,---,0.00,VWS V14.01,2013-06-16 11:15:00,
2013-06-16 07:16:00,69.8,68.6,28.91,WSW,245,5.4,5.8,96,0.00,,---,0.00,VWS V14.01,2013-06-16 11:16:00,
2013-06-16 07:17:00,69.8,68.6,28.91,West,267,0.0,5.4,96,0.00,,---,0.00,VWS V14.01,2013-06-16 11:17:00,
2013-06-16 07:18:00,69.8,68.6,28.91,West,267,0.0,0.0,96,0.00,,---,0.00,VWS V14.01,2013-06-16 11:18:00,
2013-06-16 07:19:00,66.7,63.7,28.91,West,262,0.0,3.6,90,0.00,,---,0.04,VWS V14.01,2013-06-16 11:19:00,
2013-06-16 07:20:00,69.8,68.6,28.91,West,268,4.5,5.4,96,0.00,,---,0.00,VWS V14.01,2013-06-16 11:20:00,
2013-06-16 07:21:00,69.8,68.6,28.91,West,279,3.1,4.9,96,0.00,,---,0.00,VWS V14.01,2013-06-16 11:21:00,
2013-06-16 07:22:00,69.8,68.6,28.91,NNW,328,3.1,4.5,96,0.00,,---,0.00,VWS V14.01,2013-06-16 11:22:00,
2013-06-16 07:23:00,69.8,68.6,28.91,WNW,286,4.0,5.4,96,0.00,,---,0.00,VWS V14.01,2013-06-16 11:23:00,
2013-06-16 07:24:00,66.7,63.7,28.91,West,263,8.7,8.7,90,0.00,,---,0.04,VWS V14.01,2013-06-16 11:24:00,
2013-06-16 07:25:00,69.8,68.6,28.91,West,279,0.0,4.0,96,0.00,,---,0.00,VWS V14.01,2013-06-16 11:25:00,
2013-06-16 07:26:00,70.0,68.8,28.91,West,261,4.5,5.8,96,0.00,,---,0.00,VWS V14.01,2013-06-16 11:26:00,
2013-06-16 07:27:00,70.0,68.8,28.91,WSW,258,0.0,4.9,96,0.00,,---,0.00,VWS V14.01,2013-06-16 11:27:00,
2013-06-16 07:28:00,70.0,68.8,28.91,WNW,285,3.6,5.8,96,0.00,,---,0.00,VWS V14.01,2013-06-16 11:28:00,
2013-06-16 07:29:00,66.7,63.7,28.91,SW,235,0.0,0.0,90,0.00,,---,0.04,VWS V14.01,2013-06-16 11:29:00,
2013-06-16 07:30:00,70.0,68.8,28.91,North,0,0.0,4.9,96,0.00,,---,0.00,VWS V14.01,2013-06-16 11:30:00,
2013-06-16 07:31:00,70.0,68.8,28.91,NW,313,3.6,4.0,96,0.00,,---,0.00,VWS V14.01,2013-06-16 11:31:00,
2013-06-16 07:32:00,70.0,68.8,28.91,WNW,295,3.1,5.4,96,0.00,,---,0.00,VWS V14.01,2013-06-16 11:32:00,
2013-06-16 07:33:00,70.0,68.8,28.91,West,270,3.1,4.9,96,0.00,,---,0.00,VWS V14.01,2013-06-16 11:33:00,
2013-06-16 07:34:00,66.7,63.7,28.91,SSW,206,0.0,4.5,90,0.00,,---,0.04,VWS V14.01,2013-06-16 11:34:00,
2013-06-16 07:35:00,70.0,68.8,28.91,West,266,2.7,4.5,96,0.00,,---,0.00,VWS V14.01,2013-06-16 11:35:00,
2013-06-16 07:36:00,70.0,68.5,28.91,NNW,342,0.0,6.3,95,0.00,,---,0.00,VWS V14.01,2013-06-16 11:36:00,
2013-06-16 07:37:00,70.0,68.5,28.91,NW,317,4.5,4.5,95,0.00,,---,0.00,VWS V14.01,2013-06-16 11:37:00,
2013-06-16 07:38:00,70.0,68.5,28.91,NW,309,0.0,5.4,95,0.00,,---,0.00,VWS V14.01,2013-06-16 11:38:00,
2013-06-16 07:39:00,66.9,63.6,28.91,SW,231,0.0,6.3,89,0.00,,---,0.04,VWS V14.01,2013-06-16 11:39:00,
2013-06-16 07:40:00,70.0,68.5,28.91,NW,308,3.6,3.6,95,0.00,,---,0.00,VWS V14.01,2013-06-16 11:40:00,
2013-06-16 07:41:00,70.0,68.5,28.91,WNW,282,2.7,6.3,95,0.00,,---,0.00,VWS V14.01,2013-06-16 11:41:00,
2013-06-16 07:42:00,70.0,68.5,28.91,West,265,0.0,3.1,95,0.00,,---,0.00,VWS V14.01,2013-06-16 11:42:00,
2013-06-16 07:43:00,70.0,68.5,28.91,West,272,3.1,4.5,95,0.00,,---,0.00,VWS V14.01,2013-06-16 11:43:00,
2013-06-16 07:44:00,67.1,63.8,28.91,WSW,245,4.5,7.8,89,0.00,,---,0.04,VWS V14.01,2013-06-16 11:44:00,
2013-06-16 07:45:00,70.0,68.5,28.91,West,263,0.0,6.9,95,0.00,,---,0.00,VWS V14.01,2013-06-16 11:45:00,
2013-06-16 07:46:00,70.0,68.5,28.91,West,263,0.0,0.0,95,0.00,,---,0.00,VWS V14.01,2013-06-16 11:46:00,
2013-06-16 07:47:00,70.2,68.7,28.91,WNW,294,4.0,4.5,95,0.00,,---,0.00,VWS V14.01,2013-06-16 11:47:00,
2013-06-16 07:48:00,70.2,68.7,28.91,SSE,152,0.0,4.5,95,0.00,,---,0.00,VWS V14.01,2013-06-16 11:48:00,
2013-06-16 07:49:00,67.1,63.4,28.91,WSW,251,3.6,6.3,88,0.00,,---,0.04,VWS V14.01,2013-06-16 11:49:00,
2013-06-16 07:50:00,70.0,68.5,28.91,NW,307,2.7,6.3,95,0.00,,---,0.00,VWS V14.01,2013-06-16 11:50:00,
2013-06-16 07:51:00,70.0,68.5,28.91,NNE,24,0.0,4.0,95,0.00,,---,0.00,VWS V14.01,2013-06-16 11:51:00,
2013-06-16 07:52:00,70.2,68.7,28.91,WNW,303,2.7,4.9,95,0.00,,---,0.00,VWS V14.01,2013-06-16 11:52:00,
2013-06-16 07:53:00,70.2,68.7,28.91,West,269,4.0,6.7,95,0.00,,---,0.00,VWS V14.01,2013-06-16 11:53:00,
2013-06-16 07:54:00,67.3,63.3,28.91,WNW,285,4.0,4.0,87,0.00,,---,0.04,VWS V14.01,2013-06-16 11:54:00,
2013-06-16 07:55:00,70.3,68.8,28.91,West,272,3.6,6.7,95,0.00,,---,0.00,VWS V14.01,2013-06-16 11:55:00,
2013-06-16 07:56:00,70.3,68.8,28.91,WSW,256,3.6,4.9,95,0.00,,---,0.00,VWS V14.01,2013-06-16 11:56:00,
2013-06-16 07:57:00,70.3,68.8,28.91,WSW,246,0.0,3.6,95,0.00,,---,0.00,VWS V14.01,2013-06-16 11:57:00,
2013-06-16 07:58:00,70.3,68.8,28.91,West,269,4.9,6.3,95,0.00,,---,0.00,VWS V14.01,2013-06-16 11:58:00,
2013-06-16 07:59:00,67.3,63.3,28.91,WNW,286,2.7,4.9,87,0.00,,---,0.04,VWS V14.01,2013-06-16 11:59:00,
2013-06-16 08:00:00,70.3,68.8,28.91,WSW,257,0.0,4.0,95,0.00,,---,0.00,VWS V14.01,2013-06-16 12:00:00,
2013-06-16 08:01:00,70.2,68.7,28.91,West,272,3.1,6.7,95,0.00,,---,0.00,VWS V14.01,2013-06-16 12:01:00,
2013-06-16 08:02:00,70.2,68.4,28.91,SSE,158,4.0,4.0,94,0.00,,---,0.00,VWS V14.01,2013-06-16 12:02:00,
2013-06-16 08:03:00,70.3,68.5,28.91,SW,232,4.0,4.5,94,0.00,,---,0.00,VWS V14.01,2013-06-16 12:03:00,
2013-06-16 08:04:00,67.3,63.0,28.91,WSW,254,0.0,3.1,86,0.00,,---,0.04,VWS V14.01,2013-06-16 12:04:00,
2013-06-16 08:05:00,70.3,68.5,28.91,West,262,2.7,3.1,94,0.00,,---,0.00,VWS V14.01,2013-06-16 12:05:00,
2013-06-16 08:06:00,70.2,68.4,28.91,SW,225,0.0,6.9,94,0.00,,---,0.00,VWS V14.01,2013-06-16 12:06:00,
2013-06-16 08:07:00,70.2,68.4,28.91,West,273,6.7,6.7,94,0.00,,---,0.00,VWS V14.01,2013-06-16 12:07:00,
2013-06-16 08:08:00,70.2,68.4,28.91,WNW,290,4.0,6.7,94,0.00,,---,0.00,VWS V14.01,2013-06-16 12:08:00,
2013-06-16 08:09:00,67.3,63.0,28.91,WNW,297,3.6,4.5,86,0.00,,---,0.04,VWS V14.01,2013-06-16 12:09:00,
2013-06-16 08:10:00,70.3,68.2,28.91,WSW,245,0.0,3.6,93,0.00,,---,0.00,VWS V14.01,2013-06-16 12:10:00,
2013-06-16 08:11:00,70.5,68.4,28.91,WSW,255,2.7,3.1,93,0.00,,---,0.00,VWS V14.01,2013-06-16 12:11:00,
2013-06-16 08:12:00,70.5,68.4,28.91,WSW,255,3.1,3.1,93,0.00,,---,0.00,VWS V14.01,2013-06-16 12:12:00,
2013-06-16 08:13:00,70.7,68.6,28.91,SSW,194,0.0,3.1,93,0.00,,---,0.00,VWS V14.01,2013-06-16 12:13:00,
2013-06-16 08:14:00,67.3,62.6,28.91,SW,222,4.0,7.8,85,0.00,,---,0.04,VWS V14.01,2013-06-16 12:14:00,
2013-06-16 08:15:00,70.5,68.4,28.91,West,271,0.0,4.5,93,0.00,,---,0.00,VWS V14.01,2013-06-16 12:15:00,
2013-06-16 08:16:00,70.7,68.6,28.91,West,264,4.5,4.5,93,0.00,,---,0.00,VWS V14.01,2013-06-16 12:16:00,
2013-06-16 08:17:00,70.5,68.1,28.91,WNW,286,2.7,5.4,92,0.00,,---,0.00,VWS V14.01,2013-06-16 12:17:00,
2013-06-16 08:18:00,70.7,68.3,28.91,WNW,286,0.0,2.7,92,0.00,,---,0.00,VWS V14.01,2013-06-16 12:18:00,
2013-06-16 08:19:00,67.3,62.6,28.91,WSW,248,2.7,5.4,85,0.00,,---,0.04,VWS V14.01,2013-06-16 12:19:00,
2013-06-16 08:20:00,70.9,68.1,28.91,West,267,0.0,3.6,91,0.00,,---,0.00,VWS V14.01,2013-06-16 12:20:00,
2013-06-16 08:21:00,71.2,68.5,28.91,West,267,0.0,0.0,91,0.00,,---,0.00,VWS V14.01,2013-06-16 12:21:00,
2013-06-16 08:22:00,71.1,68.3,28.91,NW,324,2.7,3.1,91,0.00,,---,0.00,VWS V14.01,2013-06-16 12:22:00,
2013-06-16 08:23:00,71.1,68.3,28.91,WSW,255,4.9,5.4,91,0.00,,---,0.00,VWS V14.01,2013-06-16 12:23:00,
2013-06-16 08:24:00,67.5,62.8,28.91,West,266,5.8,6.7,85,0.00,,---,0.04,VWS V14.01,2013-06-16 12:24:00,
2013-06-16 08:25:00,71.2,68.2,28.91,West,281,4.9,5.4,90,0.00,,---,0.00,VWS V14.01,2013-06-16 12:25:00,
2013-06-16 08:26:00,71.1,68.0,28.91,West,276,3.1,5.8,90,0.00,,---,0.00,VWS V14.01,2013-06-16 12:26:00,
2013-06-16 08:27:00,71.1,68.0,28.91,West,264,3.1,6.9,90,0.00,,---,0.00,VWS V14.01,2013-06-16 12:27:00,
2013-06-16 08:28:00,71.2,68.2,28.91,West,264,2.7,3.1,90,0.00,,---,0.00,VWS V14.01,2013-06-16 12:28:00,
2013-06-16 08:29:00,67.5,62.5,28.91,West,265,4.0,11.2,84,0.00,,---,0.04,VWS V14.01,2013-06-16 12:29:00,
2013-06-16 08:30:00,71.1,67.7,28.91,WNW,286,2.7,7.4,89,0.00,,---,0.00,VWS V14.01,2013-06-16 12:30:00,
2013-06-16 08:31:00,71.1,67.3,28.91,WSW,249,4.9,4.9,88,0.00,,---,0.00,VWS V14.01,2013-06-16 12:31:00,
2013-06-16 08:32:00,71.1,67.3,28.91,SW,231,0.0,4.9,88,0.00,,---,0.00,VWS V14.01,2013-06-16 12:32:00,
2013-06-16 08:33:00,71.1,67.3,28.91,WSW,254,5.4,6.9,88,0.00,,---,0.00,VWS V14.01,2013-06-16 12:33:00,
2013-06-16 08:34:00,67.8,62.5,28.91,WSW,245,3.6,5.8,83,0.00,,---,0.04,VWS V14.01,2013-06-16 12:34:00,
2013-06-16 08:35:00,71.1,67.0,28.91,West,262,4.5,6.9,87,0.00,,---,0.00,VWS V14.01,2013-06-16 12:35:00,
2013-06-16 08:36:00,71.1,67.0,28.91,West,268,2.7,5.8,87,0.00,,---,0.00,VWS V14.01,2013-06-16 12:36:00,
2013-06-16 08:37:00,71.1,67.0,28.91,WNW,285,4.5,5.8,87,0.00,,---,0.00,VWS V14.01,2013-06-16 12:37:00,
2013-06-16 08:38:00,71.1,67.0,28.91,SW,223,0.0,5.4,87,0.00,,---,0.00,VWS V14.01,2013-06-16 12:38:00,
2013-06-16 08:39:00,68.0,62.7,28.91,SSE,150,4.0,5.4,83,0.00,,---,0.04,VWS V14.01,2013-06-16 12:39:00,
2013-06-16 08:40:00,71.2,66.8,28.91,West,266,0.0,5.4,86,0.00,,---,0.00,VWS V14.01,2013-06-16 12:40:00,
2013-06-16 08:41:00,71.2,66.8,28.91,West,267,0.0,4.0,86,0.00,,---,0.00,VWS V14.01,2013-06-16 12:41:00,
2013-06-16 08:42:00,71.4,67.0,28.91,West,267,0.0,0.0,86,0.00,,---,0.00,VWS V14.01,2013-06-16 12:42:00,
2013-06-16 08:43:00,71.6,67.2,28.91,West,267,0.0,0.0,86,0.00,,---,0.00,VWS V14.01,2013-06-16 12:43:00,
2013-06-16 08:44:00,68.4,62.7,28.91,WNW,290,6.7,6.7,82,0.00,,---,0.04,VWS V14.01,2013-06-16 12:44:00,
2013-06-16 08:45:00,71.8,67.4,28.91,SW,222,0.0,3.6,86,0.00,,---,0.00,VWS V14.01,2013-06-16 12:45:00,
2013-06-16 08:46:00,72.0,67.6,28.91,SW,230,0.0,0.0,86,0.00,,---,0.00,VWS V14.01,2013-06-16 12:46:00,
2013-06-16 08:47:00,72.0,67.6,28.91,West,259,0.0,4.0,86,0.00,,---,0.00,VWS V14.01,2013-06-16 12:47:00,
2013-06-16 08:48:00,72.1,67.4,28.91,SW,233,0.0,3.1,85,0.00,,---,0.00,VWS V14.01,2013-06-16 12:48:00,
2013-06-16 08:49:00,68.5,62.5,28.91,WSW,251,5.4,6.7,81,0.00,,---,0.04,VWS V14.01,2013-06-16 12:49:00,
2013-06-16 08:50:00,72.3,67.2,28.91,West,272,0.0,3.1,84,0.00,,---,0.00,VWS V14.01,2013-06-16 12:50:00,
2013-06-16 08:51:00,72.5,67.4,28.91,WSW,251,2.7,2.7,84,0.00,,---,0.00,VWS V14.01,2013-06-16 12:51:00,
2013-06-16 08:52:00,72.3,66.5,28.91,WSW,257,6.3,6.3,82,0.00,,---,0.00,VWS V14.01,2013-06-16 12:52:00,
2013-06-16 08:53:00,72.1,66.0,28.91,West,280,2.7,7.8,81,0.00,,---,0.00,VWS V14.01,2013-06-16 12:53:00,
2013-06-16 08:54:00,68.9,62.5,28.91,West,271,4.9,6.9,80,0.00,,---,0.04,VWS V14.01,2013-06-16 12:54:00,
2013-06-16 08:55:00,72.3,66.2,28.91,WSW,237,0.0,0.0,81,0.00,,---,0.00,VWS V14.01,2013-06-16 12:55:00,
2013-06-16 08:56:00,72.3,66.2,28.91,WNW,290,0.0,3.1,81,0.00,,---,0.00,VWS V14.01,2013-06-16 12:56:00,
2013-06-16 08:57:00,72.1,66.0,28.91,West,268,5.4,7.8,81,0.00,,---,0.00,VWS V14.01,2013-06-16 12:57:00,
2013-06-16 08:58:00,72.0,65.5,28.91,SW,234,2.7,7.8,80,0.00,,---,0.00,VWS V14.01,2013-06-16 12:58:00,
2013-06-16 08:59:00,69.3,61.8,28.91,WNW,286,5.4,7.8,77,0.00,,---,0.04,VWS V14.01,2013-06-16 12:59:00,
2013-06-16 09:00:00,72.5,66.0,28.91,SW,227,4.9,4.9,80,0.00,,---,0.00,VWS V14.01,2013-06-16 13:00:00,
2013-06-16 09:01:00,72.5,66.0,28.91,WSW,258,0.0,4.9,80,0.00,,---,0.00,VWS V14.01,2013-06-16 13:01:00,
2013-06-16 09:02:00,72.3,65.8,28.91,West,274,0.0,4.9,80,0.00,,---,0.00,VWS V14.01,2013-06-16 13:02:00,
2013-06-16 09:03:00,72.5,66.0,28.91,NW,314,3.1,3.1,80,0.00,,---,0.00,VWS V14.01,2013-06-16 13:03:00,
2013-06-16 09:04:00,69.6,61.7,28.91,West,268,7.4,9.2,76,0.00,,---,0.04,VWS V14.01,2013-06-16 13:04:00,
2013-06-16 09:05:00,72.5,66.0,28.91,West,280,4.0,5.8,80,0.00,,---,0.00,VWS V14.01,2013-06-16 13:05:00,
2013-06-16 09:06:00,72.7,65.8,28.91,WNW,282,2.7,4.0,79,0.00,,---,0.00,VWS V14.01,2013-06-16 13:06:00,
2013-06-16 09:07:00,72.9,66.3,28.91,WNW,283,0.0,2.7,80,0.00,,---,0.00,VWS V14.01,2013-06-16 13:07:00,
2013-06-16 09:08:00,72.9,66.0,28.91,WNW,283,0.0,4.0,79,0.00,,---,0.00,VWS V14.01,2013-06-16 13:08:00,
2013-06-16 09:09:00,69.6,61.0,28.91,NW,306,6.3,7.4,74,0.00,,---,0.04,VWS V14.01,2013-06-16 13:09:00,
2013-06-16 09:10:00,73.0,66.2,28.91,West,264,5.4,5.4,79,0.00,,---,0.00,VWS V14.01,2013-06-16 13:10:00,
2013-06-16 09:11:00,73.0,66.2,28.91,SW,218,0.0,5.4,79,0.00,,---,0.00,VWS V14.01,2013-06-16 13:11:00,
2013-06-16 09:12:00,73.2,66.0,28.91,WNW,287,4.9,5.8,78,0.00,,---,0.00,VWS V14.01,2013-06-16 13:12:00,
2013-06-16 09:13:00,73.2,66.0,28.91,West,280,0.0,4.9,78,0.00,,---,0.00,VWS V14.01,2013-06-16 13:13:00,
2013-06-16 09:14:00,69.8,60.8,28.91,WNW,287,5.8,6.7,73,0.00,,---,0.04,VWS V14.01,2013-06-16 13:14:00,
2013-06-16 09:15:00,73.9,66.7,28.91,SSE,156,0.0,0.0,78,0.00,,---,0.00,VWS V14.01,2013-06-16 13:15:00,
2013-06-16 09:16:00,74.3,67.0,28.91,SSE,156,0.0,0.0,78,0.00,,---,0.00,VWS V14.01,2013-06-16 13:16:00,
2013-06-16 09:17:00,74.7,67.3,28.91,SSE,152,0.0,0.0,78,0.00,,---,0.00,VWS V14.01,2013-06-16 13:17:00,
2013-06-16 09:18:00,74.7,67.0,28.91,WSW,253,0.0,0.0,77,0.00,,---,0.00,VWS V14.01,2013-06-16 13:18:00,
2013-06-16 09:19:00,70.0,60.5,28.91,WNW,284,4.9,4.9,72,0.00,,---,0.04,VWS V14.01,2013-06-16 13:19:00,
2013-06-16 09:20:00,74.7,65.8,28.91,WSW,243,4.9,8.7,74,0.00,,---,0.00,VWS V14.01,2013-06-16 13:20:00,
2013-06-16 09:21:00,75.0,65.8,28.91,SW,215,3.1,4.9,73,0.00,,---,0.00,VWS V14.01,2013-06-16 13:21:00,
2013-06-16 09:22:00,75.2,65.6,28.91,SSW,209,4.9,4.9,72,0.00,,---,0.00,VWS V14.01,2013-06-16 13:22:00,
2013-06-16 09:23:00,75.4,65.7,28.91,WNW,284,4.9,5.4,72,0.00,,---,0.00,VWS V14.01,2013-06-16 13:23:00,
2013-06-16 09:24:00,70.0,60.2,28.91,WNW,284,4.5,7.4,71,0.00,,---,0.04,VWS V14.01,2013-06-16 13:24:00,
2013-06-16 09:25:00,75.0,64.2,28.91,SW,217,0.0,3.6,69,0.00,,---,0.00,VWS V14.01,2013-06-16 13:25:00,
2013-06-16 09:26:00,75.0,64.2,28.91,SW,219,0.0,2.7,69,0.00,,---,0.00,VWS V14.01,2013-06-16 13:26:00,
2013-06-16 09:27:00,75.2,64.3,28.91,SW,219,0.0,0.0,69,0.00,,---,0.00,VWS V14.01,2013-06-16 13:27:00,
2013-06-16 09:28:00,75.4,64.5,28.91,SW,216,0.0,0.0,69,0.00,,---,0.00,VWS V14.01,2013-06-16 13:28:00,
2013-06-16 09:29:00,70.2,60.3,28.91,WNW,294,5.4,7.4,71,0.00,,---,0.04,VWS V14.01,2013-06-16 13:29:00,
2013-06-16 09:30:00,75.6,64.7,28.91,West,259,3.1,3.1,69,0.00,,---,0.00,VWS V14.01,2013-06-16 13:30:00,
2013-06-16 09:31:00,75.6,64.3,28.91,West,259,0.0,3.1,68,0.00,,---,0.00,VWS V14.01,2013-06-16 13:31:00,
2013-06-16 09:32:00,75.7,64.9,28.91,West,274,0.0,2.7,69,0.00,,---,0.00,VWS V14.01,2013-06-16 13:32:00,
2013-06-16 09:33:00,75.7,64.9,28.91,West,274,0.0,0.0,69,0.00,,---,0.00,VWS V14.01,2013-06-16 13:33:00,
2013-06-16 09:34:00,70.3,60.5,28.91,West,272,4.9,7.4,71,0.00,,---,0.04,VWS V14.01,2013-06-16 13:34:00,
2013-06-16 09:35:00,75.7,64.4,28.91,WSW,255,0.0,4.0,68,0.00,,---,0.00,VWS V14.01,2013-06-16 13:35:00,
2013-06-16 09:36:00,75.7,64.4,28.91,WNW,286,4.5,4.5,68,0.00,,---,0.00,VWS V14.01,2013-06-16 13:36:00,
2013-06-16 09:37:00,75.9,64.6,28.91,West,272,4.9,4.9,68,0.00,,---,0.00,VWS V14.01,2013-06-16 13:37:00,
2013-06-16 09:38:00,75.9,64.2,28.91,West,276,0.0,5.4,67,0.00,,---,0.00,VWS V14.01,2013-06-16 13:38:00,
2013-06-16 09:39:00,70.3,59.7,28.91,WNW,287,6.9,8.3,69,0.00,,---,0.04,VWS V14.01,2013-06-16 13:39:00,
2013-06-16 09:40:00,76.1,64.8,28.91,SW,214,3.1,3.6,68,0.00,,---,0.00,VWS V14.01,2013-06-16 13:40:00,
2013-06-16 09:41:00,76.1,64.8,28.91,SSW,211,0.0,3.1,68,0.00,,---,0.00,VWS V14.01,2013-06-16 13:41:00,
2013-06-16 09:42:00,76.3,64.9,28.91,SSW,211,0.0,0.0,68,0.00,,---,0.00,VWS V14.01,2013-06-16 13:42:00,
2013-06-16 09:43:00,76.5,65.1,28.91,West,269,0.0,4.5,68,0.00,,---,0.00,VWS V14.01,2013-06-16 13:43:00,
2013-06-16 09:44:00,70.5,59.9,28.91,West,266,5.8,8.3,69,0.00,,---,0.04,VWS V14.01,2013-06-16 13:44:00,
2013-06-16 09:45:00,76.6,64.4,28.91,SW,220,0.0,4.0,66,0.00,,---,0.00,VWS V14.01,2013-06-16 13:45:00,
2013-06-16 09:46:00,76.6,64.0,28.91,West,275,0.0,2.7,65,0.00,,---,0.00,VWS V14.01,2013-06-16 13:46:00,
2013-06-16 09:47:00,76.6,64.4,28.91,West,268,5.8,5.8,66,0.00,,---,0.00,VWS V14.01,2013-06-16 13:47:00,
2013-06-16 09:48:00,76.6,64.0,28.91,WSW,250,0.0,5.8,65,0.00,,---,0.00,VWS V14.01,2013-06-16 13:48:00,
2013-06-16 09:49:00,71.4,60.7,28.91,West,281,0.0,3.1,69,0.00,,---,0.04,VWS V14.01,2013-06-16 13:49:00,
2013-06-16 09:50:00,77.2,64.9,28.91,SW,225,0.0,0.0,66,0.00,,---,0.00,VWS V14.01,2013-06-16 13:50:00,
2013-06-16 09:51:00,77.2,64.9,28.91,SW,223,0.0,2.7,66,0.00,,---,0.00,VWS V14.01,2013-06-16 13:51:00,
2013-06-16 09:52:00,77.4,64.7,28.91,SW,233,0.0,4.9,65,0.00,,---,0.00,VWS V14.01,2013-06-16 13:52:00,
2013-06-16 09:53:00,77.4,64.7,28.91,NW,312,4.0,5.8,65,0.00,,---,0.00,VWS V14.01,2013-06-16 13:53:00,
2013-06-16 09:54:00,72.0,59.1,28.91,NW,308,3.1,7.4,64,0.00,,---,0.04,VWS V14.01,2013-06-16 13:54:00,
2013-06-16 09:55:00,77.5,64.4,28.91,SSE,167,2.7,5.4,64,0.00,,---,0.00,VWS V14.01,2013-06-16 13:55:00,
2013-06-16 09:56:00,77.5,64.0,28.91,West,277,3.6,4.9,63,0.00,,---,0.00,VWS V14.01,2013-06-16 13:56:00,
2013-06-16 09:57:00,77.2,63.2,28.91,West,272,6.9,6.9,62,0.00,,---,0.00,VWS V14.01,2013-06-16 13:57:00,
2013-06-16 09:58:00,76.8,62.4,28.91,West,269,5.4,6.9,61,0.00,,---,0.00,VWS V14.01,2013-06-16 13:58:00,
2013-06-16 09:59:00,72.3,59.5,28.91,WNW,288,0.0,7.4,64,0.00,,---,0.04,VWS V14.01,2013-06-16 13:59:00,
2013-06-16 10:00:00,76.5,63.8,28.91,WNW,285,0.0,5.4,65,0.00,,---,0.00,VWS V14.01,2013-06-16 14:00:00,
2013-06-16 10:01:00,76.6,64.4,28.91,West,280,0.0,5.4,66,0.00,,---,0.00,VWS V14.01,2013-06-16 14:01:00,
2013-06-16 10:02:00,77.0,64.8,28.91,West,275,3.1,3.6,66,0.00,,---,0.00,VWS V14.01,2013-06-16 14:02:00,
2013-06-16 10:03:00,77.2,64.9,28.91,West,275,0.0,3.1,66,0.00,,---,0.00,VWS V14.01,2013-06-16 14:03:00,
2013-06-16 10:04:00,73.6,60.2,28.91,NW,317,0.0,4.5,63,0.00,,---,0.04,VWS V14.01,2013-06-16 14:04:00,
2013-06-16 10:05:00,77.4,64.7,28.91,West,275,4.0,6.3,65,0.00,,---,0.00,VWS V14.01,2013-06-16 14:05:00,
2013-06-16 10:06:00,77.4,64.2,28.91,NW,308,3.1,4.0,64,0.00,,---,0.00,VWS V14.01,2013-06-16 14:06:00,
2013-06-16 10:07:00,77.4,63.8,28.91,West,274,6.3,7.4,63,0.00,,---,0.00,VWS V14.01,2013-06-16 14:07:00,
2013-06-16 10:08:00,77.2,62.7,28.91,WSW,249,4.5,7.4,61,0.00,,---,0.00,VWS V14.01,2013-06-16 14:08:00,
2013-06-16 10:09:00,73.8,58.1,28.91,WNW,298,7.8,7.8,58,0.00,,---,0.04,VWS V14.01,2013-06-16 14:09:00,
2013-06-16 10:10:00,76.8,62.4,28.91,WNW,302,0.0,6.7,61,0.00,,---,0.00,VWS V14.01,2013-06-16 14:10:00,
2013-06-16 10:11:00,77.0,63.5,28.91,WSW,257,3.6,6.7,63,0.00,,---,0.00,VWS V14.01,2013-06-16 14:11:00,
2013-06-16 10:12:00,76.8,63.3,28.91,WNW,284,4.0,6.9,63,0.00,,---,0.00,VWS V14.01,2013-06-16 14:12:00,
2013-06-16 10:13:00,77.2,64.1,28.91,WNW,291,4.9,4.9,64,0.00,,---,0.00,VWS V14.01,2013-06-16 14:13:00,
2013-06-16 10:14:00,73.6,57.4,28.91,WNW,282,3.6,7.8,57,0.00,,---,0.04,VWS V14.01,2013-06-16 14:14:00,
2013-06-16 10:15:00,77.4,63.8,28.91,West,273,0.0,5.4,63,0.00,,---,0.00,VWS V14.01,2013-06-16 14:15:00,
2013-06-16 10:16:00,77.4,64.2,28.91,SW,233,4.0,4.0,64,0.00,,---,0.00,VWS V14.01,2013-06-16 14:16:00,
2013-06-16 10:17:00,77.7,65.0,28.91,WNW,290,3.6,4.9,65,0.00,,---,0.00,VWS V14.01,2013-06-16 14:17:00,
2013-06-16 10:18:00,77.7,64.6,28.91,West,266,3.6,4.9,64,0.00,,---,0.00,VWS V14.01,2013-06-16 14:18:00,
2013-06-16 10:19:00,73.4,56.3,28.91,WNW,303,5.4,10.5,55,0.00,,---,0.04,VWS V14.01,2013-06-16 14:19:00,
2013-06-16 10:20:00,77.7,63.7,28.91,West,266,4.9,6.7,62,0.00,,---,0.00,VWS V14.01,2013-06-16 14:20:00,
2013-06-16 10:21:00,77.9,63.8,28.91,WSW,241,4.9,5.4,62,0.00,,---,0.00,VWS V14.01,2013-06-16 14:21:00,
2013-06-16 10:22:00,77.7,63.7,28.91,WNW,301,3.6,6.7,62,0.00,,---,0.00,VWS V14.01,2013-06-16 14:22:00,
2013-06-16 10:23:00,77.9,63.4,28.91,WNW,301,0.0,4.0,61,0.00,,---,0.00,VWS V14.01,2013-06-16 14:23:00,
2013-06-16 10:24:00,73.4,57.3,28.91,SSW,209,6.9,7.8,57,0.00,,---,0.04,VWS V14.01,2013-06-16 14:24:00,
2013-06-16 10:25:00,78.3,64.2,28.91,WNW,300,2.7,3.1,62,0.00,,---,0.00,VWS V14.01,2013-06-16 14:25:00,
2013-06-16 10:26:00,78.3,64.6,28.91,WSW,238,2.7,3.6,63,0.00,,---,0.00,VWS V14.01,2013-06-16 14:26:00,
2013-06-16 10:27:00,78.8,65.2,28.91,WSW,257,5.8,6.9,63,0.00,,---,0.00,VWS V14.01,2013-06-16 14:27:00,
2013-06-16 10:28:00,78.4,62.5,28.91,WNW,288,4.9,9.2,58,0.00,,---,0.00,VWS V14.01,2013-06-16 14:28:00,
2013-06-16 10:29:00,73.2,57.1,28.91,NW,310,3.1,11.2,57,0.00,,---,0.04,VWS V14.01,2013-06-16 14:29:00,
2013-06-16 10:30:00,78.1,61.6,28.91,WNW,297,6.7,6.9,57,0.00,,---,0.00,VWS V14.01,2013-06-16 14:30:00,
2013-06-16 10:31:00,77.5,61.6,28.91,NW,307,4.0,6.7,58,0.00,,---,0.00,VWS V14.01,2013-06-16 14:31:00,
2013-06-16 10:33:00,77.7,62.7,28.91,North,7,0.0,4.0,60,0.00,,---,0.00,VWS V14.01,2013-06-16 14:33:00,
2013-06-16 10:34:00,73.0,57.9,28.91,West,270,6.7,10.1,59,0.00,,---,0.04,VWS V14.01,2013-06-16 14:34:00,
2013-06-16 10:35:00,78.3,63.2,28.91,SSE,166,0.0,5.4,60,0.00,,---,0.00,VWS V14.01,2013-06-16 14:35:00,
2013-06-16 10:36:00,78.4,62.5,28.91,WSW,246,3.1,4.5,58,0.00,,---,0.00,VWS V14.01,2013-06-16 14:36:00,
2013-06-16 10:37:00,78.6,62.1,28.91,SW,231,3.1,4.5,57,0.00,,---,0.00,VWS V14.01,2013-06-16 14:37:00,
2013-06-16 10:38:00,78.8,61.8,28.91,WNW,297,4.5,5.4,56,0.00,,---,0.00,VWS V14.01,2013-06-16 14:38:00,
2013-06-16 10:39:00,72.9,57.7,28.91,West,268,0.0,10.1,59,0.00,,---,0.04,VWS V14.01,2013-06-16 14:39:00,
2013-06-16 10:40:00,79.2,61.6,28.91,West,278,4.5,4.5,55,0.00,,---,0.00,VWS V14.01,2013-06-16 14:40:00,
2013-06-16 10:41:00,79.2,61.1,28.91,WNW,290,3.6,7.4,54,0.00,,---,0.00,VWS V14.01,2013-06-16 14:41:00,
2013-06-16 10:42:00,79.3,61.3,28.91,NW,307,4.9,5.4,54,0.00,,---,0.00,VWS V14.01,2013-06-16 14:42:00,
2013-06-16 10:43:00,79.2,61.6,28.91,SSW,208,4.5,5.4,55,0.00,,---,0.00,VWS V14.01,2013-06-16 14:43:00,
2013-06-16 10:44:00,73.4,58.2,28.91,WSW,237,4.9,11.6,59,0.00,,---,0.04,VWS V14.01,2013-06-16 14:44:00,
2013-06-16 10:45:00,79.3,61.8,28.91,WNW,282,4.9,5.4,55,0.00,,---,0.00,VWS V14.01,2013-06-16 14:45:00,
2013-06-16 10:46:00,79.5,62.0,28.91,SW,218,3.1,5.4,55,0.00,,---,0.00,VWS V14.01,2013-06-16 14:46:00,
2013-06-16 10:47:00,79.5,62.0,28.91,West,274,4.5,5.4,55,0.00,,---,0.00,VWS V14.01,2013-06-16 14:47:00,
2013-06-16 10:48:00,79.5,62.5,28.91,NW,312,4.5,6.3,56,0.00,,---,0.00,VWS V14.01,2013-06-16 14:48:00,
2013-06-16 10:49:00,74.1,57.9,28.91,WNW,286,4.5,10.1,57,0.00,,---,0.04,VWS V14.01,2013-06-16 14:49:00,
2013-06-16 10:50:00,79.7,62.1,28.91,WSW,250,3.1,5.8,55,0.00,,---,0.00,VWS V14.01,2013-06-16 14:50:00,
2013-06-16 10:51:00,79.9,61.2,28.91,WSW,242,5.4,5.8,53,0.00,,---,0.00,VWS V14.01,2013-06-16 14:51:00,
2013-06-16 10:52:00,80.1,61.4,28.91,WSW,251,3.1,5.4,53,0.00,,---,0.00,VWS V14.01,2013-06-16 14:52:00,
2013-06-16 10:53:00,80.2,62.1,28.91,SW,227,0.0,4.0,54,0.00,,---,0.00,VWS V14.01,2013-06-16 14:53:00,
2013-06-16 10:54:00,73.6,56.4,28.91,WSW,249,6.3,10.1,55,0.00,,---,0.04,VWS V14.01,2013-06-16 14:54:00,
2013-06-16 10:55:00,80.6,60.3,28.91,West,271,4.0,5.4,50,0.00,,---,0.00,VWS V14.01,2013-06-16 14:55:00,
2013-06-16 10:56:00,81.0,59.4,28.91,SSW,201,4.9,4.9,48,0.00,,---,0.00,VWS V14.01,2013-06-16 14:56:00,
2013-06-16 10:57:00,81.1,59.6,28.91,SSE,155,0.0,4.9,48,0.00,,---,0.00,VWS V14.01,2013-06-16 14:57:00,
2013-06-16 10:58:00,81.1,60.2,28.91,West,272,5.4,5.8,49,0.00,,---,0.00,VWS V14.01,2013-06-16 14:58:00,
2013-06-16 10:59:00,73.0,56.4,28.91,SSW,195,4.5,6.3,56,0.00,,---,0.04,VWS V14.01,2013-06-16 14:59:00,
2013-06-16 11:00:00,81.0,60.0,28.91,WSW,246,3.1,6.7,49,0.00,,---,0.00,VWS V14.01,2013-06-16 15:00:00,
2013-06-16 11:01:00,81.3,60.9,28.91,WNW,289,4.5,5.4,50,0.00,,---,0.00,VWS V14.01,2013-06-16 15:01:00,
2013-06-16 11:02:00,81.1,58.4,28.91,WNW,293,6.7,7.4,46,0.00,,---,0.00,VWS V14.01,2013-06-16 15:02:00,
2013-06-16 11:03:00,81.0,58.3,28.91,NW,306,3.1,6.7,46,0.00,,---,0.00,VWS V14.01,2013-06-16 15:03:00,
2013-06-16 11:04:00,72.9,55.8,28.91,WSW,254,4.0,9.2,55,0.00,,---,0.04,VWS V14.01,2013-06-16 15:04:00,
2013-06-16 11:05:00,81.5,59.3,28.91,West,280,0.0,0.0,47,0.00,,---,0.00,VWS V14.01,2013-06-16 15:05:00,
2013-06-16 11:06:00,81.5,59.3,28.91,SSW,213,0.0,4.0,47,0.00,,---,0.00,VWS V14.01,2013-06-16 15:06:00,
2013-06-16 11:07:00,82.0,61.0,28.91,SSW,213,0.0,0.0,49,0.00,,---,0.00,VWS V14.01,2013-06-16 15:07:00,
2013-06-16 11:08:00,82.2,60.6,28.91,WSW,256,4.0,4.9,48,0.00,,---,0.00,VWS V14.01,2013-06-16 15:08:00,
2013-06-16 11:09:00,73.4,56.8,28.91,West,269,6.7,9.2,56,0.00,,---,0.04,VWS V14.01,2013-06-16 15:09:00,
2013-06-16 11:10:00,82.2,60.0,28.91,WSW,243,2.7,4.5,47,0.00,,---,0.00,VWS V14.01,2013-06-16 15:10:00,
2013-06-16 11:11:00,82.4,60.2,28.91,WSW,255,0.0,3.6,47,0.00,,---,0.00,VWS V14.01,2013-06-16 15:11:00,
2013-06-16 11:12:00,82.4,59.0,28.91,West,271,5.4,6.3,45,0.00,,---,0.00,VWS V14.01,2013-06-16 15:12:00,
2013-06-16 11:13:00,82.4,57.0,28.91,WSW,243,0.0,6.3,42,0.00,,---,0.00,VWS V14.01,2013-06-16 15:13:00,
2013-06-16 11:14:00,73.9,57.3,28.91,West,259,4.9,11.6,56,0.00,,---,0.04,VWS V14.01,2013-06-16 15:14:00,
2013-06-16 11:15:00,82.6,57.8,28.91,WSW,243,0.0,0.0,43,0.00,,---,0.00,VWS V14.01,2013-06-16 15:15:00,
2013-06-16 11:16:00,82.8,57.3,28.91,WNW,288,3.6,4.9,42,0.00,,---,0.00,VWS V14.01,2013-06-16 15:16:00,
2013-06-16 11:17:00,82.8,57.3,28.91,West,270,3.6,6.7,42,0.00,,---,0.00,VWS V14.01,2013-06-16 15:17:00,
2013-06-16 11:18:00,82.9,58.2,28.91,SW,234,3.6,5.8,43,0.00,,---,0.00,VWS V14.01,2013-06-16 15:18:00,
2013-06-16 11:19:00,74.3,56.6,28.91,NNW,332,4.5,8.7,54,0.00,,---,0.04,VWS V14.01,2013-06-16 15:19:00,
2013-06-16 11:20:00,83.7,58.2,28.91,WSW,240,6.3,6.3,42,0.00,,---,0.00,VWS V14.01,2013-06-16 15:20:00,
2013-06-16 11:21:00,83.5,55.9,28.91,West,264,2.7,7.4,39,0.00,,---,0.00,VWS V14.01,2013-06-16 15:21:00,
2013-06-16 11:22:00,84.0,56.4,28.91,WNW,287,5.8,5.8,39,0.00,,---,0.00,VWS V14.01,2013-06-16 15:22:00,
2013-06-16 11:23:00,83.8,55.5,28.91,NNW,335,0.0,6.7,38,0.00,,---,0.00,VWS V14.01,2013-06-16 15:23:00,
2013-06-16 11:24:00,74.3,57.1,28.91,NNW,328,6.3,13.0,55,0.00,,---,0.04,VWS V14.01,2013-06-16 15:24:00,
2013-06-16 11:25:00,84.0,56.4,28.91,WNW,282,4.5,4.5,39,0.00,,---,0.00,VWS V14.01,2013-06-16 15:25:00,
2013-06-16 11:26:00,84.4,56.7,28.91,West,261,3.6,6.3,39,0.00,,---,0.00,VWS V14.01,2013-06-16 15:26:00,
2013-06-16 11:27:00,84.4,56.0,28.91,WNW,289,4.0,6.7,38,0.00,,---,0.00,VWS V14.01,2013-06-16 15:27:00,
2013-06-16 11:28:00,84.7,54.9,28.91,West,281,4.5,4.5,36,0.00,,---,0.00,VWS V14.01,2013-06-16 15:28:00,
2013-06-16 11:29:00,75.2,57.9,28.91,West,268,0.0,4.9,55,0.00,,---,0.04,VWS V14.01,2013-06-16 15:29:00,
2013-06-16 11:30:00,84.7,54.9,28.91,West,276,4.5,4.9,36,0.00,,---,0.00,VWS V14.01,2013-06-16 15:30:00,
2013-06-16 11:31:00,84.4,55.3,28.91,West,261,5.8,6.9,37,0.00,,---,0.00,VWS V14.01,2013-06-16 15:31:00,
2013-06-16 11:32:00,84.4,54.5,28.91,West,279,3.1,8.3,36,0.00,,---,0.00,VWS V14.01,2013-06-16 15:32:00,
2013-06-16 11:33:00,84.4,53.0,28.91,West,275,6.9,6.9,34,0.00,,---,0.00,VWS V14.01,2013-06-16 15:33:00,
2013-06-16 11:34:00,76.6,56.1,28.91,West,270,11.6,11.6,49,0.00,,---,0.04,VWS V14.01,2013-06-16 15:34:00,
2013-06-16 11:35:00,84.6,53.1,28.91,SW,214,0.0,5.4,34,0.00,,---,0.00,VWS V14.01,2013-06-16 15:35:00,
2013-06-16 11:36:00,84.9,55.0,28.91,North,351,3.6,4.0,36,0.00,,---,0.00,VWS V14.01,2013-06-16 15:36:00,
2013-06-16 11:37:00,85.3,55.3,28.91,West,265,3.1,4.0,36,0.00,,---,0.00,VWS V14.01,2013-06-16 15:37:00,
2013-06-16 11:38:00,85.6,55.7,28.91,WSW,255,6.3,6.3,36,0.00,,---,0.00,VWS V14.01,2013-06-16 15:38:00,
2013-06-16 11:39:00,77.9,54.9,28.91,West,279,7.4,13.0,45,0.00,,---,0.04,VWS V14.01,2013-06-16 15:39:00,
2013-06-16 11:40:00,85.8,54.2,28.91,NW,305,3.1,5.8,34,0.00,,---,0.00,VWS V14.01,2013-06-16 15:40:00,
2013-06-16 11:41:00,86.0,55.2,28.91,NW,304,0.0,3.1,35,0.00,,---,0.00,VWS V14.01,2013-06-16 15:41:00,
2013-06-16 11:42:00,86.4,57.8,28.91,NW,304,0.0,3.6,38,0.00,,---,0.00,VWS V14.01,2013-06-16 15:42:00,
2013-06-16 11:43:00,86.0,55.2,28.91,North,356,3.1,4.9,35,0.00,,---,0.00,VWS V14.01,2013-06-16 15:43:00,
2013-06-16 11:44:00,76.5,54.8,28.91,SW,226,5.8,10.1,47,0.00,,---,0.04,VWS V14.01,2013-06-16 15:44:00,
2013-06-16 11:45:00,85.5,53.1,28.91,WSW,253,6.3,7.8,33,0.00,,---,0.00,VWS V14.01,2013-06-16 15:45:00,
2013-06-16 11:46:00,85.8,52.6,28.91,West,278,8.3,8.3,32,0.00,,---,0.00,VWS V14.01,2013-06-16 15:46:00,
2013-06-16 11:47:00,85.3,51.2,28.91,NW,318,8.7,8.7,31,0.00,,---,0.00,VWS V14.01,2013-06-16 15:47:00,
2013-06-16 11:48:00,84.4,51.3,28.91,WNW,298,7.4,10.5,32,0.00,,---,0.00,VWS V14.01,2013-06-16 15:48:00,
2013-06-16 11:49:00,84.0,51.0,28.91,West,275,4.5,7.4,32,0.00,,---,0.00,VWS V14.01,2013-06-16 15:49:00,
2013-06-16 11:50:00,75.2,55.3,28.91,WNW,294,5.4,7.8,50,0.00,,---,0.04,VWS V14.01,2013-06-16 15:50:00,
2013-06-16 11:51:00,84.7,56.3,28.91,West,275,0.0,3.1,38,0.00,,---,0.00,VWS V14.01,2013-06-16 15:51:00,
2013-06-16 11:52:00,84.9,53.5,28.91,North,2,3.6,6.3,34,0.00,,---,0.00,VWS V14.01,2013-06-16 15:52:00,
2013-06-16 11:53:00,85.1,53.6,28.91,NW,323,4.5,4.5,34,0.00,,---,0.00,VWS V14.01,2013-06-16 15:53:00,
2013-06-16 11:54:00,84.7,52.5,28.91,NW,304,6.3,6.7,33,0.00,,---,0.00,VWS V14.01,2013-06-16 15:54:00,
2013-06-16 11:55:00,74.7,56.4,28.91,West,261,4.9,9.2,53,0.00,,---,0.04,VWS V14.01,2013-06-16 15:55:00,
2013-06-16 11:56:00,84.7,51.7,28.91,North,351,4.9,5.8,32,0.00,,---,0.00,VWS V14.01,2013-06-16 15:56:00,
2013-06-16 11:57:00,85.1,52.0,28.91,NNW,342,5.8,5.8,32,0.00,,---,0.00,VWS V14.01,2013-06-16 15:57:00,
2013-06-16 11:58:00,85.1,52.0,28.91,West,261,4.5,5.8,32,0.00,,---,0.00,VWS V14.01,2013-06-16 15:58:00,
2013-06-16 11:59:00,85.3,52.1,28.91,WNW,282,5.4,5.4,32,0.00,,---,0.00,VWS V14.01,2013-06-16 15:59:00,
2013-06-16 12:00:00,74.8,56.6,28.91,WNW,291,11.0,11.0,53,0.00,,---,0.04,VWS V14.01,2013-06-16 16:00:00,
2013-06-16 12:01:00,85.5,52.3,28.91,West,272,5.4,6.3,32,0.00,,---,0.00,VWS V14.01,2013-06-16 16:01:00,
2013-06-16 12:02:00,85.1,52.0,28.91,NNW,339,4.9,8.7,32,0.00,,---,0.00,VWS V14.01,2013-06-16 16:02:00,
2013-06-16 12:03:00,84.9,53.5,28.91,West,266,5.8,5.8,34,0.00,,---,0.00,VWS V14.01,2013-06-16 16:03:00,
2013-06-16 12:04:00,84.9,50.9,28.91,West,273,5.4,7.4,31,0.00,,---,0.00,VWS V14.01,2013-06-16 16:04:00,
2013-06-16 12:05:00,76.5,56.5,28.91,SSW,203,11.0,11.0,50,0.00,,---,0.04,VWS V14.01,2013-06-16 16:05:00,
2013-06-16 12:06:00,85.5,50.5,28.91,West,278,4.0,4.5,30,0.00,,---,0.00,VWS V14.01,2013-06-16 16:06:00,
2013-06-16 12:07:00,85.6,51.6,28.91,North,4,2.7,5.4,31,0.00,,---,0.00,VWS V14.01,2013-06-16 16:07:00,
2013-06-16 12:08:00,85.8,50.8,28.91,WNW,292,4.9,5.8,30,0.00,,---,0.00,VWS V14.01,2013-06-16 16:08:00,
2013-06-16 12:09:00,86.5,52.3,28.91,SSW,203,4.0,4.9,31,0.00,,---,0.00,VWS V14.01,2013-06-16 16:09:00,
2013-06-16 12:10:00,77.2,54.2,28.91,West,278,11.6,11.6,45,0.00,,---,0.04,VWS V14.01,2013-06-16 16:10:00,
2013-06-16 12:11:00,86.7,51.6,28.91,West,280,2.7,6.3,30,0.00,,---,0.00,VWS V14.01,2013-06-16 16:11:00,
2013-06-16 12:12:00,86.5,50.5,28.91,North,0,4.5,5.8,29,0.00,,---,0.00,VWS V14.01,2013-06-16 16:12:00,
2013-06-16 12:13:00,86.4,50.4,28.91,North,351,2.7,4.9,29,0.00,,---,0.00,VWS V14.01,2013-06-16 16:13:00,
2013-06-16 12:14:00,86.4,50.4,28.91,NNW,338,3.6,6.9,29,0.00,,---,0.00,VWS V14.01,2013-06-16 16:14:00,
2013-06-16 12:15:00,77.0,54.7,28.91,WNW,295,14.8,14.8,46,0.00,,---,0.04,VWS V14.01,2013-06-16 16:15:00,
2013-06-16 12:16:00,86.4,50.4,28.91,SSW,212,0.0,5.4,29,0.00,,---,0.00,VWS V14.01,2013-06-16 16:16:00,
2013-06-16 12:17:00,86.7,51.6,28.91,WSW,245,0.0,3.6,30,0.00,,---,0.00,VWS V14.01,2013-06-16 16:17:00,
2013-06-16 12:18:00,87.1,51.0,28.91,NW,319,0.0,3.1,29,0.00,,---,0.00,VWS V14.01,2013-06-16 16:18:00,
2013-06-16 12:19:00,87.1,51.0,28.91,SW,231,4.0,4.0,29,0.00,,---,0.00,VWS V14.01,2013-06-16 16:19:00,
2013-06-16 12:20:00,77.0,55.2,28.91,NNE,15,6.9,10.5,47,0.00,,---,0.04,VWS V14.01,2013-06-16 16:20:00,
2013-06-16 12:21:00,87.6,49.5,28.91,NNW,343,3.1,4.9,27,0.00,,---,0.00,VWS V14.01,2013-06-16 16:21:00,
2013-06-16 12:22:00,88.0,50.8,28.91,North,0,2.7,5.8,28,0.00,,---,0.00,VWS V14.01,2013-06-16 16:22:00,
2013-06-16 12:23:00,87.8,50.7,28.91,West,277,4.0,4.9,28,0.00,,---,0.00,VWS V14.01,2013-06-16 16:23:00,
2013-06-16 12:24:00,87.8,50.7,28.91,WNW,297,4.0,4.9,28,0.00,,---,0.00,VWS V14.01,2013-06-16 16:24:00,
2013-06-16 12:25:00,78.8,54.4,28.91,SSW,206,5.8,11.2,43,0.00,,---,0.04,VWS V14.01,2013-06-16 16:25:00,
2013-06-16 12:26:00,88.2,46.9,28.91,West,268,4.5,4.5,24,0.00,,---,0.00,VWS V14.01,2013-06-16 16:26:00,
2013-06-16 12:27:00,88.2,43.3,28.91,WNW,300,5.4,6.3,21,0.00,,---,0.00,VWS V14.01,2013-06-16 16:27:00,
2013-06-16 12:28:00,88.3,44.7,28.91,WNW,301,3.6,5.4,22,0.00,,---,0.00,VWS V14.01,2013-06-16 16:28:00,
2013-06-16 12:29:00,87.6,44.1,28.91,WSW,242,6.7,8.3,22,0.00,,---,0.00,VWS V14.01,2013-06-16 16:29:00,
2013-06-16 12:30:00,80.1,54.3,28.91,WSW,247,5.8,11.6,41,0.00,,---,0.04,VWS V14.01,2013-06-16 16:30:00,
2013-06-16 12:31:00,88.2,45.7,28.91,WNW,295,4.0,7.8,23,0.00,,---,0.00,VWS V14.01,2013-06-16 16:31:00,
2013-06-16 12:32:00,87.8,46.6,28.91,NNW,345,4.5,7.8,24,0.00,,---,0.00,VWS V14.01,2013-06-16 16:32:00,
2013-06-16 12:33:00,87.8,46.6,28.91,NW,310,3.1,5.8,24,0.00,,---,0.00,VWS V14.01,2013-06-16 16:33:00,
2013-06-16 12:34:00,88.0,46.7,28.91,West,275,5.4,5.4,24,0.00,,---,0.00,VWS V14.01,2013-06-16 16:34:00,
2013-06-16 12:35:00,81.1,53.9,28.91,WSW,239,6.7,13.0,39,0.00,,---,0.04,VWS V14.01,2013-06-16 16:35:00,
2013-06-16 12:36:00,88.3,48.1,28.91,SW,235,4.5,7.8,25,0.00,,---,0.00,VWS V14.01,2013-06-16 16:36:00,
2013-06-16 12:37:00,88.2,51.0,28.91,West,269,6.3,6.3,28,0.00,,---,0.00,VWS V14.01,2013-06-16 16:37:00,
2013-06-16 12:38:00,88.0,41.9,28.91,WNW,283,6.3,8.3,20,0.00,,---,0.00,VWS V14.01,2013-06-16 16:38:00,
2013-06-16 12:39:00,88.2,42.1,28.91,West,280,0.0,6.3,20,0.00,,---,0.00,VWS V14.01,2013-06-16 16:39:00,
2013-06-16 12:40:00,79.3,54.3,28.91,WSW,256,6.9,12.5,42,0.00,,---,0.04,VWS V14.01,2013-06-16 16:40:00,
2013-06-16 12:41:00,88.2,43.3,28.91,NNE,17,2.7,6.9,21,0.00,,---,0.00,VWS V14.01,2013-06-16 16:41:00,
2013-06-16 12:42:00,88.0,43.2,28.91,NW,305,6.7,7.8,21,0.00,,---,0.00,VWS V14.01,2013-06-16 16:42:00,
2013-06-16 12:43:00,87.6,42.9,28.91,WSW,245,3.6,9.2,21,0.00,,---,0.00,VWS V14.01,2013-06-16 16:43:00,
2013-06-16 12:44:00,88.0,43.2,28.91,West,276,4.9,5.4,21,0.00,,---,0.00,VWS V14.01,2013-06-16 16:44:00,
2013-06-16 12:45:00,79.0,54.6,28.91,West,262,13.0,13.0,43,0.00,,---,0.04,VWS V14.01,2013-06-16 16:45:00,
2013-06-16 12:46:00,87.4,46.2,28.91,West,279,3.1,4.5,24,0.00,,---,0.00,VWS V14.01,2013-06-16 16:46:00,
2013-06-16 12:47:00,87.4,46.2,28.91,West,279,3.1,4.0,24,0.00,,---,0.00,VWS V14.01,2013-06-16 16:47:00,
2013-06-16 12:48:00,87.3,47.2,28.91,West,279,4.0,4.0,25,0.00,,---,0.00,VWS V14.01,2013-06-16 16:48:00,
2013-06-16 12:49:00,86.9,46.9,28.91,SW,232,4.9,6.3,25,0.00,,---,0.00,VWS V14.01,2013-06-16 16:49:00,
2013-06-16 12:50:00,79.5,55.1,28.91,West,266,10.5,12.5,43,0.00,,---,0.04,VWS V14.01,2013-06-16 16:50:00,
2013-06-16 12:51:00,86.9,46.9,28.91,West,261,3.1,6.3,25,0.00,,---,0.00,VWS V14.01,2013-06-16 16:51:00,
2013-06-16 12:52:00,87.3,50.2,28.91,SW,229,0.0,5.8,28,0.00,,---,0.00,VWS V14.01,2013-06-16 16:52:00,
2013-06-16 12:53:00,87.8,48.7,28.91,SW,236,5.4,5.4,26,0.00,,---,0.00,VWS V14.01,2013-06-16 16:53:00,
2013-06-16 12:54:00,88.2,45.7,28.91,West,279,4.5,5.4,23,0.00,,---,0.00,VWS V14.01,2013-06-16 16:54:00,
2013-06-16 12:55:00,79.5,55.1,28.91,West,259,6.7,13.4,43,0.00,,---,0.04,VWS V14.01,2013-06-16 16:55:00,
2013-06-16 12:56:00,88.7,43.8,28.91,WNW,294,6.9,6.9,21,0.00,,---,0.00,VWS V14.01,2013-06-16 16:56:00,
2013-06-16 12:57:00,88.3,43.5,28.91,WNW,286,4.9,6.9,21,0.00,,---,0.00,VWS V14.01,2013-06-16 16:57:00,
2013-06-16 12:58:00,88.2,45.7,28.91,West,271,3.6,4.9,23,0.00,,---,0.00,VWS V14.01,2013-06-16 16:58:00,
2013-06-16 12:59:00,87.8,44.3,28.91,NW,305,6.3,6.9,22,0.00,,---,0.00,VWS V14.01,2013-06-16 16:59:00,
2013-06-16 13:00:00,80.6,55.4,28.91,NW,315,4.9,9.6,42,0.00,,---,0.04,VWS V14.01,2013-06-16 17:00:00,
2013-06-16 13:01:00,86.7,45.7,28.91,NW,318,4.0,4.9,24,0.00,,---,0.00,VWS V14.01,2013-06-16 17:01:00,
2013-06-16 13:02:00,86.4,44.2,28.91,WNW,297,3.1,5.8,23,0.00,,---,0.00,VWS V14.01,2013-06-16 17:02:00,
2013-06-16 13:03:00,86.4,45.3,28.91,West,271,4.9,4.9,24,0.00,,---,0.00,VWS V14.01,2013-06-16 17:03:00,
2013-06-16 13:04:00,85.8,44.9,28.91,NW,304,5.8,7.8,24,0.00,,---,0.00,VWS V14.01,2013-06-16 17:04:00,
2013-06-16 13:05:00,79.7,55.9,28.91,NW,309,5.8,13.0,44,0.00,,---,0.04,VWS V14.01,2013-06-16 17:05:00,
2013-06-16 13:06:00,85.8,47.0,28.91,NNW,347,4.9,5.4,26,0.00,,---,0.00,VWS V14.01,2013-06-16 17:06:00,
2013-06-16 13:07:00,85.6,48.8,28.91,North,351,3.6,7.4,28,0.00,,---,0.00,VWS V14.01,2013-06-16 17:07:00,
2013-06-16 13:08:00,85.6,48.8,28.91,SSW,213,3.1,4.0,28,0.00,,---,0.00,VWS V14.01,2013-06-16 17:08:00,
2013-06-16 13:09:00,85.6,48.8,28.91,NW,304,2.7,4.5,28,0.00,,---,0.00,VWS V14.01,2013-06-16 17:09:00,
2013-06-16 13:10:00,79.3,55.6,28.91,WSW,244,9.6,10.1,44,0.00,,---,0.04,VWS V14.01,2013-06-16 17:10:00,
2013-06-16 13:11:00,86.2,47.3,28.91,West,266,4.0,6.3,26,0.00,,---,0.00,VWS V14.01,2013-06-16 17:11:00,
2013-06-16 13:12:00,86.7,47.8,28.91,WSW,251,2.7,4.5,26,0.00,,---,0.00,VWS V14.01,2013-06-16 17:12:00,
2013-06-16 13:13:00,87.1,50.1,28.91,WSW,251,0.0,2.7,28,0.00,,---,0.00,VWS V14.01,2013-06-16 17:13:00,
2013-06-16 13:14:00,87.8,49.7,28.91,West,269,4.9,4.9,27,0.00,,---,0.00,VWS V14.01,2013-06-16 17:14:00,
2013-06-16 13:15:00,88.2,45.7,28.91,SSW,204,4.5,6.7,23,0.00,,---,0.00,VWS V14.01,2013-06-16 17:15:00,
2013-06-16 13:16:00,80.1,56.2,28.91,NW,323,0.0,5.4,44,0.00,,---,0.04,VWS V14.01,2013-06-16 17:16:00,
2013-06-16 13:17:00,88.3,45.9,28.91,West,276,7.4,7.4,23,0.00,,---,0.00,VWS V14.01,2013-06-16 17:17:00,
2013-06-16 13:18:00,87.8,40.5,28.91,West,264,4.5,7.8,19,0.00,,---,0.00,VWS V14.01,2013-06-16 17:18:00,
2013-06-16 13:19:00,87.6,38.9,28.91,West,280,7.8,9.2,18,0.00,,---,0.00,VWS V14.01,2013-06-16 17:19:00,
2013-06-16 13:20:00,87.4,38.8,28.91,WSW,256,3.6,7.8,18,0.00,,---,0.00,VWS V14.01,2013-06-16 17:20:00,
2013-06-16 13:21:00,87.8,39.1,28.91,WNW,282,2.7,5.4,18,0.00,,---,0.00,VWS V14.01,2013-06-16 17:21:00,
2013-06-16 13:22:00,87.8,39.1,28.91,WNW,296,0.0,4.5,18,0.00,,---,0.00,VWS V14.01,2013-06-16 17:22:00,
2013-06-16 13:23:00,88.0,40.6,28.91,West,274,3.1,5.4,19,0.00,,---,0.00,VWS V14.01,2013-06-16 17:23:00,
2013-06-16 13:24:00,80.1,54.3,28.91,WSW,257,7.4,11.6,41,0.00,,---,0.04,VWS V14.01,2013-06-16 17:24:00,
2013-06-16 13:25:00,88.5,41.0,28.91,NW,304,6.3,6.7,19,0.00,,---,0.00,VWS V14.01,2013-06-16 17:25:00,
2013-06-16 13:26:00,87.8,40.5,28.91,WNW,287,4.0,6.3,19,0.00,,---,0.00,VWS V14.01,2013-06-16 17:26:00,
2013-06-16 13:27:00,87.8,41.8,28.91,WNW,303,2.7,5.8,20,0.00,,---,0.00,VWS V14.01,2013-06-16 17:27:00,
2013-06-16 13:28:00,88.2,43.3,28.91,WNW,303,0.0,2.7,21,0.00,,---,0.00,VWS V14.01,2013-06-16 17:28:00,
2013-06-16 13:29:00,88.2,44.6,28.91,WNW,303,0.0,0.0,22,0.00,,---,0.00,VWS V14.01,2013-06-16 17:29:00,
2013-06-16 13:30:00,88.2,44.6,28.91,WNW,303,0.0,0.0,22,0.00,,---,0.00,VWS V14.01,2013-06-16 17:30:00,
2013-06-16 13:31:00,88.3,45.9,28.91,NW,317,5.8,5.8,23,0.00,,---,0.00,VWS V14.01,2013-06-16 17:31:00,
2013-06-16 13:32:00,88.5,43.6,28.91,West,281,4.0,5.8,21,0.00,,---,0.00,VWS V14.01,2013-06-16 17:32:00,
2013-06-16 13:33:00,88.5,43.6,28.91,WNW,287,3.6,4.5,21,0.00,,---,0.00,VWS V14.01,2013-06-16 17:33:00,
2013-06-16 13:34:00,88.5,43.6,28.91,WNW,301,4.0,6.3,21,0.00,,---,0.00,VWS V14.01,2013-06-16 17:34:00,
2013-06-16 13:35:00,88.3,43.5,28.91,WSW,252,4.9,5.4,21,0.00,,---,0.00,VWS V14.01,2013-06-16 17:35:00,
2013-06-16 13:36:00,88.2,43.3,28.91,NNW,331,4.0,6.7,21,0.00,,---,0.00,VWS V14.01,2013-06-16 17:36:00,
2013-06-16 13:37:00,88.0,43.2,28.91,WNW,283,3.1,7.4,21,0.00,,---,0.00,VWS V14.01,2013-06-16 17:37:00,
2013-06-16 13:38:00,88.3,42.2,28.91,WSW,243,3.1,5.4,20,0.00,,---,0.00,VWS V14.01,2013-06-16 17:38:00,
2013-06-16 13:39:00,88.5,41.0,28.91,West,270,4.9,5.4,19,0.00,,---,0.00,VWS V14.01,2013-06-16 17:39:00,
2013-06-16 13:40:00,88.7,41.2,28.91,WSW,249,0.0,6.3,19,0.00,,---,0.00,VWS V14.01,2013-06-16 17:40:00,
2013-06-16 13:41:00,89.1,41.5,28.91,WNW,284,4.5,4.5,19,0.00,,---,0.00,VWS V14.01,2013-06-16 17:41:00,
2013-06-16 13:42:00,89.2,41.6,28.91,WNW,282,4.0,4.5,19,0.00,,---,0.00,VWS V14.01,2013-06-16 17:42:00,
2013-06-16 13:43:00,89.6,41.9,28.91,West,267,4.9,4.9,19,0.00,,---,0.00,VWS V14.01,2013-06-16 17:43:00,
2013-06-16 13:44:00,89.8,40.7,28.91,WSW,238,3.6,6.7,18,0.00,,---,0.00,VWS V14.01,2013-06-16 17:44:00,
2013-06-16 13:45:00,90.1,42.4,28.91,SSE,159,0.0,3.6,19,0.00,,---,0.00,VWS V14.01,2013-06-16 17:45:00,
2013-06-16 13:46:00,90.5,42.7,28.91,South,190,0.0,4.5,19,0.00,,---,0.00,VWS V14.01,2013-06-16 17:46:00,
2013-06-16 13:47:00,90.7,41.4,28.91,NW,318,0.0,6.7,18,0.00,,---,0.00,VWS V14.01,2013-06-16 17:47:00,
2013-06-16 13:48:00,91.2,41.8,28.91,West,266,3.1,4.0,18,0.00,,---,0.00,VWS V14.01,2013-06-16 17:48:00,
2013-06-16 13:49:00,91.6,42.1,28.91,WSW,255,4.9,4.9,18,0.00,,---,0.00,VWS V14.01,2013-06-16 17:49:00,
2013-06-16 13:50:00,91.0,40.2,28.91,WNW,295,4.0,9.2,17,0.00,,---,0.00,VWS V14.01,2013-06-16 17:50:00,
2013-06-16 13:51:00,90.7,39.9,28.91,SSW,212,4.5,8.3,17,0.00,,---,0.00,VWS V14.01,2013-06-16 17:51:00,
2013-06-16 13:52:00,90.5,41.3,28.91,NW,316,3.6,7.8,18,0.00,,---,0.00,VWS V14.01,2013-06-16 17:52:00,
2013-06-16 13:53:00,89.8,40.7,28.91,WSW,247,4.9,6.3,18,0.00,,---,0.00,VWS V14.01,2013-06-16 17:53:00,
2013-06-16 13:54:00,89.6,40.5,28.91,South,178,0.0,4.9,18,0.00,,---,0.00,VWS V14.01,2013-06-16 17:54:00,
2013-06-16 13:55:00,89.6,40.5,28.91,SW,232,4.5,5.8,18,0.00,,---,0.00,VWS V14.01,2013-06-16 17:55:00,
2013-06-16 13:56:00,89.8,40.7,28.91,South,180,2.7,5.4,18,0.00,,---,0.00,VWS V14.01,2013-06-16 17:56:00,
2013-06-16 13:57:00,90.0,40.8,28.91,North,351,5.8,5.8,18,0.00,,---,0.00,VWS V14.01,2013-06-16 17:57:00,
2013-06-16 13:58:00,90.1,41.0,28.91,West,265,6.3,6.3,18,0.00,,---,0.00,VWS V14.01,2013-06-16 17:58:00,
2013-06-16 13:59:00,90.3,41.1,28.91,West,270,4.0,6.3,18,0.00,,---,0.00,VWS V14.01,2013-06-16 17:59:00,
2013-06-16 14:00:00,90.3,39.6,28.91,WNW,298,5.8,8.3,17,0.00,,---,0.00,VWS V14.01,2013-06-16 18:00:00,
2013-06-16 14:01:00,90.3,41.1,28.91,West,265,7.4,7.4,18,0.00,,---,0.00,VWS V14.01,2013-06-16 18:01:00,
2013-06-16 14:02:00,90.3,41.1,28.91,WNW,297,4.5,7.4,18,0.00,,---,0.00,VWS V14.01,2013-06-16 18:02:00,
2013-06-16 14:03:00,90.1,39.5,28.91,West,267,4.9,7.8,17,0.00,,---,0.00,VWS V14.01,2013-06-16 18:03:00,
2013-06-16 14:04:00,89.8,39.2,28.91,WNW,303,7.8,7.8,17,0.00,,---,0.00,VWS V14.01,2013-06-16 18:04:00,
2013-06-16 14:05:00,89.1,38.6,28.91,WSW,258,4.0,9.2,17,0.00,,---,0.00,VWS V14.01,2013-06-16 18:05:00,
2013-06-16 14:06:00,89.2,38.8,28.91,West,262,6.9,6.9,17,0.00,,---,0.00,VWS V14.01,2013-06-16 18:06:00,
2013-06-16 14:07:00,89.1,38.6,28.91,SW,236,4.0,6.9,17,0.00,,---,0.00,VWS V14.01,2013-06-16 18:07:00,
2013-06-16 14:08:00,89.4,38.9,28.91,West,268,3.1,4.5,17,0.00,,---,0.00,VWS V14.01,2013-06-16 18:08:00,
2013-06-16 14:09:00,89.6,39.1,28.91,SSW,212,3.1,6.7,17,0.00,,---,0.00,VWS V14.01,2013-06-16 18:09:00,
2013-06-16 14:10:00,89.2,38.8,28.91,WSW,252,6.3,7.4,17,0.00,,---,0.00,VWS V14.01,2013-06-16 18:10:00,
2013-06-16 14:11:00,89.2,40.2,28.91,WNW,291,6.7,6.7,18,0.00,,---,0.00,VWS V14.01,2013-06-16 18:11:00,
2013-06-16 14:12:00,89.2,38.8,28.91,West,261,4.5,7.4,17,0.00,,---,0.00,VWS V14.01,2013-06-16 18:12:00,
2013-06-16 14:13:00,89.8,39.2,28.91,West,261,0.0,4.5,17,0.00,,---,0.00,VWS V14.01,2013-06-16 18:13:00,
2013-06-16 14:14:00,90.1,39.5,28.91,West,261,3.1,3.1,17,0.00,,---,0.00,VWS V14.01,2013-06-16 18:14:00,
2013-06-16 14:15:00,90.3,39.6,28.91,West,259,7.4,7.4,17,0.00,,---,0.00,VWS V14.01,2013-06-16 18:15:00,
2013-06-16 14:16:00,90.3,39.6,28.91,NNW,343,0.0,7.4,17,0.00,,---,0.00,VWS V14.01,2013-06-16 18:16:00,
2013-06-16 14:17:00,90.7,41.4,28.91,North,351,5.4,6.3,18,0.00,,---,0.00,VWS V14.01,2013-06-16 18:17:00,
2013-06-16 14:18:00,90.5,39.8,28.91,West,280,4.9,5.4,17,0.00,,---,0.00,VWS V14.01,2013-06-16 18:18:00,
2013-06-16 14:19:00,90.5,39.8,28.91,NW,316,4.9,5.8,17,0.00,,---,0.00,VWS V14.01,2013-06-16 18:19:00,
2013-06-16 14:20:00,90.7,39.9,28.91,NW,315,3.6,4.9,17,0.00,,---,0.00,VWS V14.01,2013-06-16 18:20:00,
2013-06-16 14:21:00,90.5,39.8,28.91,NNW,336,4.5,7.4,17,0.00,,---,0.00,VWS V14.01,2013-06-16 18:21:00,
2013-06-16 14:22:00,90.3,39.6,28.91,NNW,338,4.0,5.4,17,0.00,,---,0.00,VWS V14.01,2013-06-16 18:22:00,
2013-06-16 14:23:00,90.3,39.6,28.91,West,263,0.0,4.0,17,0.00,,---,0.00,VWS V14.01,2013-06-16 18:23:00,
2013-06-16 14:24:00,90.5,39.8,28.91,West,271,3.6,4.0,17,0.00,,---,0.00,VWS V14.01,2013-06-16 18:24:00,
2013-06-16 14:25:00,90.9,40.1,28.91,SW,220,4.9,6.3,17,0.00,,---,0.00,VWS V14.01,2013-06-16 18:25:00,
2013-06-16 14:26:00,91.2,40.4,28.91,West,278,0.0,4.9,17,0.00,,---,0.00,VWS V14.01,2013-06-16 18:26:00,
2013-06-16 14:27:00,91.6,40.7,28.91,SW,230,0.0,4.0,17,0.00,,---,0.00,VWS V14.01,2013-06-16 18:27:00,
2013-06-16 14:28:00,91.8,40.8,28.91,WNW,290,2.7,3.1,17,0.00,,---,0.00,VWS V14.01,2013-06-16 18:28:00,
2013-06-16 14:29:00,91.4,40.5,28.91,SW,233,4.0,6.7,17,0.00,,---,0.00,VWS V14.01,2013-06-16 18:29:00,
2013-06-16 14:30:00,91.2,40.4,28.91,NNW,332,6.3,6.3,17,0.00,,---,0.00,VWS V14.01,2013-06-16 18:30:00,
2013-06-16 14:31:00,90.7,39.9,28.91,South,187,4.0,7.8,17,0.00,,---,0.00,VWS V14.01,2013-06-16 18:31:00,
2013-06-16 14:32:00,90.0,39.3,28.91,WNW,291,3.1,6.9,17,0.00,,---,0.00,VWS V14.01,2013-06-16 18:32:00,
2013-06-16 14:33:00,89.8,39.2,28.91,WSW,253,4.0,4.0,17,0.00,,---,0.00,VWS V14.01,2013-06-16 18:33:00,
2013-06-16 14:34:00,89.4,38.9,28.91,NW,314,3.6,6.3,17,0.00,,---,0.00,VWS V14.01,2013-06-16 18:34:00,
2013-06-16 14:35:00,89.2,38.8,28.91,NW,307,5.8,6.7,17,0.00,,---,0.00,VWS V14.01,2013-06-16 18:35:00,
2013-06-16 14:36:00,89.2,38.8,28.91,WNW,296,6.3,6.3,17,0.00,,---,0.00,VWS V14.01,2013-06-16 18:36:00,
2013-06-16 14:37:00,89.1,38.6,28.91,WNW,299,3.6,6.3,17,0.00,,---,0.00,VWS V14.01,2013-06-16 18:37:00,
2013-06-16 14:38:00,88.7,39.8,28.91,WNW,299,4.0,5.8,18,0.00,,---,0.00,VWS V14.01,2013-06-16 18:38:00,
2013-06-16 14:39:00,88.5,39.7,28.91,NNW,328,4.9,4.9,18,0.00,,---,0.00,VWS V14.01,2013-06-16 18:39:00,
2013-06-16 14:40:00,88.2,34.7,28.91,WNW,288,5.4,8.3,15,0.00,,---,0.00,VWS V14.01,2013-06-16 18:40:00,
2013-06-16 14:41:00,88.0,34.6,28.91,NW,315,3.1,6.3,15,0.00,,---,0.00,VWS V14.01,2013-06-16 18:41:00,
2013-06-16 14:42:00,88.0,34.6,28.91,WSW,257,4.0,4.9,15,0.00,,---,0.00,VWS V14.01,2013-06-16 18:42:00,
2013-06-16 14:43:00,88.0,34.6,28.91,SW,233,3.6,4.9,15,0.00,,---,0.00,VWS V14.01,2013-06-16 18:43:00,
2013-06-16 14:44:00,88.3,34.9,28.91,SW,217,2.7,4.0,15,0.00,,---,0.00,VWS V14.01,2013-06-16 18:44:00,
2013-06-16 14:45:00,88.5,39.7,28.91,SW,226,0.0,3.6,18,0.00,,---,0.00,VWS V14.01,2013-06-16 18:45:00,
2013-06-16 14:46:00,88.7,38.3,28.91,NW,319,2.7,4.5,17,0.00,,---,0.00,VWS V14.01,2013-06-16 18:46:00,
2013-06-16 14:47:00,88.9,38.5,28.91,North,351,3.6,4.9,17,0.00,,---,0.00,VWS V14.01,2013-06-16 18:47:00,
2013-06-16 14:48:00,89.1,38.6,28.91,NNW,343,3.1,3.6,17,0.00,,---,0.00,VWS V14.01,2013-06-16 18:48:00,
2013-06-16 14:49:00,89.4,38.9,28.91,North,351,5.4,5.4,17,0.00,,---,0.00,VWS V14.01,2013-06-16 18:49:00,
2013-06-16 14:50:00,89.2,38.8,28.91,WNW,284,3.6,5.4,17,0.00,,---,0.00,VWS V14.01,2013-06-16 18:50:00,
2013-06-16 14:51:00,89.2,38.8,28.91,WSW,251,5.4,5.4,17,0.00,,---,0.00,VWS V14.01,2013-06-16 18:51:00,
2013-06-16 14:52:00,79.9,54.1,28.91,NW,311,9.6,11.2,41,0.00,,---,0.04,VWS V14.01,2013-06-16 18:52:00,
2013-06-16 14:53:00,89.6,39.1,28.91,West,281,4.0,6.3,17,0.00,,---,0.00,VWS V14.01,2013-06-16 18:53:00,
2013-06-16 14:54:00,90.0,39.3,28.91,WNW,282,0.0,4.0,17,0.00,,---,0.00,VWS V14.01,2013-06-16 18:54:00,
2013-06-16 14:55:00,89.8,39.2,28.91,WNW,299,4.0,5.4,17,0.00,,---,0.00,VWS V14.01,2013-06-16 18:55:00,
2013-06-16 14:56:00,89.8,36.0,28.91,West,267,4.5,6.9,15,0.00,,---,0.00,VWS V14.01,2013-06-16 18:56:00,
2013-06-16 14:57:00,89.8,36.0,28.91,West,270,7.8,8.7,15,0.00,,---,0.00,VWS V14.01,2013-06-16 18:57:00,
2013-06-16 14:58:00,80.1,54.9,28.91,West,259,4.9,7.8,42,0.00,,---,0.04,VWS V14.01,2013-06-16 18:58:00,
2013-06-16 14:59:00,89.8,36.0,28.91,WSW,239,5.8,5.8,15,0.00,,---,0.00,VWS V14.01,2013-06-16 18:59:00,
2013-06-16 15:00:00,90.0,36.2,28.91,NNE,18,3.1,5.8,15,0.00,,---,0.00,VWS V14.01,2013-06-16 19:00:00,
2013-06-16 15:01:00,90.0,36.2,28.91,WNW,288,3.6,4.9,15,0.00,,---,0.00,VWS V14.01,2013-06-16 19:01:00,
2013-06-16 15:02:00,90.0,39.3,28.91,NW,306,2.7,4.5,17,0.00,,---,0.00,VWS V14.01,2013-06-16 19:02:00,
2013-06-16 15:03:00,90.1,39.5,28.91,NNW,340,3.6,3.6,17,0.00,,---,0.00,VWS V14.01,2013-06-16 19:03:00,
2013-06-16 15:04:00,90.1,39.5,28.91,NW,325,4.0,4.0,17,0.00,,---,0.00,VWS V14.01,2013-06-16 19:04:00,
2013-06-16 15:05:00,81.0,53.7,28.91,WNW,290,3.6,8.3,39,0.00,,---,0.04,VWS V14.01,2013-06-16 19:05:00,
2013-06-16 15:06:00,90.0,36.2,28.91,NNW,340,4.9,5.8,15,0.00,,---,0.00,VWS V14.01,2013-06-16 19:06:00,
2013-06-16 15:07:00,89.8,36.0,28.91,NW,325,0.0,5.8,15,0.00,,---,0.00,VWS V14.01,2013-06-16 19:07:00,
2013-06-16 15:08:00,90.1,39.5,28.91,West,260,3.6,5.8,17,0.00,,---,0.00,VWS V14.01,2013-06-16 19:08:00,
2013-06-16 15:09:00,90.3,39.6,28.91,NW,304,5.4,5.8,17,0.00,,---,0.00,VWS V14.01,2013-06-16 19:09:00,
2013-06-16 15:10:00,90.7,39.9,28.91,WSW,254,4.5,5.8,17,0.00,,---,0.00,VWS V14.01,2013-06-16 19:10:00,
2013-06-16 15:11:00,90.7,39.9,28.91,NW,316,0.0,5.4,17,0.00,,---,0.00,VWS V14.01,2013-06-16 19:11:00,
2013-06-16 15:12:00,91.2,40.4,28.88,NNW,335,4.9,4.9,17,0.00,,---,0.00,VWS V14.01,2013-06-16 19:12:00,
2013-06-16 15:13:00,79.7,55.2,28.91,NW,322,5.4,7.8,43,0.00,,---,0.04,VWS V14.01,2013-06-16 19:13:00,
2013-06-16 15:14:00,92.1,41.1,28.88,NNE,17,0.0,0.0,17,0.00,,---,0.00,VWS V14.01,2013-06-16 19:14:00,
2013-06-16 15:15:00,92.5,39.8,28.88,NW,309,4.0,4.9,16,0.00,,---,0.00,VWS V14.01,2013-06-16 19:15:00,
2013-06-16 15:16:00,92.3,41.2,28.88,NW,322,5.8,7.4,17,0.00,,---,0.00,VWS V14.01,2013-06-16 19:16:00,
2013-06-16 15:17:00,91.2,40.4,28.88,NW,317,6.3,8.7,17,0.00,,---,0.00,VWS V14.01,2013-06-16 19:17:00,
2013-06-16 15:18:00,81.0,53.0,28.88,WSW,243,7.8,13.4,38,0.00,,---,0.04,VWS V14.01,2013-06-16 19:18:00,
2013-06-16 15:19:00,90.1,39.5,28.88,West,269,5.8,7.8,17,0.00,,---,0.00,VWS V14.01,2013-06-16 19:19:00,
2013-06-16 15:20:00,89.8,39.2,28.88,WNW,286,5.8,7.8,17,0.00,,---,0.00,VWS V14.01,2013-06-16 19:20:00,
2013-06-16 15:21:00,89.8,39.2,28.88,SW,236,3.1,5.8,17,0.00,,---,0.00,VWS V14.01,2013-06-16 19:21:00,
2013-06-16 15:22:00,89.8,39.2,28.88,WNW,294,6.7,6.7,17,0.00,,---,0.00,VWS V14.01,2013-06-16 19:22:00,
2013-06-16 15:23:00,80.4,53.9,28.88,WNW,284,7.4,8.7,40,0.00,,---,0.04,VWS V14.01,2013-06-16 19:23:00,
2013-06-16 15:24:00,90.0,39.3,28.88,West,281,3.6,8.3,17,0.00,,---,0.00,VWS V14.01,2013-06-16 19:24:00,
2013-06-16 15:25:00,90.0,39.3,28.88,WSW,242,3.6,7.8,17,0.00,,---,0.00,VWS V14.01,2013-06-16 19:25:00,
2013-06-16 15:26:00,90.3,39.6,28.88,West,279,4.0,4.5,17,0.00,,---,0.00,VWS V14.01,2013-06-16 19:26:00,
2013-06-16 15:27:00,90.1,39.5,28.88,NW,321,4.9,6.3,17,0.00,,---,0.00,VWS V14.01,2013-06-16 19:27:00,
2013-06-16 15:28:00,80.6,54.1,28.88,West,277,4.5,6.7,40,0.00,,---,0.04,VWS V14.01,2013-06-16 19:28:00,
2013-06-16 15:29:00,90.3,39.6,28.88,West,277,3.6,5.8,17,0.00,,---,0.00,VWS V14.01,2013-06-16 19:29:00,
2013-06-16 15:30:00,90.3,36.5,28.88,West,259,4.9,6.3,15,0.00,,---,0.00,VWS V14.01,2013-06-16 19:30:00,
2013-06-16 15:31:00,90.9,35.1,28.88,West,259,0.0,4.9,14,0.00,,---,0.00,VWS V14.01,2013-06-16 19:31:00,
2013-06-16 15:32:00,91.4,40.5,28.88,West,259,0.0,0.0,17,0.00,,---,0.00,VWS V14.01,2013-06-16 19:32:00,
2013-06-16 15:33:00,80.6,54.1,28.91,West,270,11.6,11.6,40,0.00,,---,0.04,VWS V14.01,2013-06-16 19:33:00,
2013-06-16 15:34:00,92.3,41.2,28.88,West,264,4.9,4.9,17,0.00,,---,0.00,VWS V14.01,2013-06-16 19:34:00,
2013-06-16 15:35:00,92.5,39.8,28.88,SW,219,0.0,5.4,16,0.00,,---,0.00,VWS V14.01,2013-06-16 19:35:00,
2013-06-16 15:36:00,92.7,36.5,28.88,SW,232,2.7,4.5,14,0.00,,---,0.00,VWS V14.01,2013-06-16 19:36:00,
2013-06-16 15:37:00,92.7,36.5,28.88,SW,232,0.0,3.1,14,0.00,,---,0.00,VWS V14.01,2013-06-16 19:37:00,
2013-06-16 15:38:00,80.8,53.5,28.91,WSW,253,6.9,11.6,39,0.00,,---,0.04,VWS V14.01,2013-06-16 19:38:00,
2013-06-16 15:39:00,92.8,36.7,28.88,WNW,285,6.7,7.8,14,0.00,,---,0.00,VWS V14.01,2013-06-16 19:39:00,
2013-06-16 15:40:00,92.8,36.7,28.88,WNW,288,4.0,6.7,14,0.00,,---,0.00,VWS V14.01,2013-06-16 19:40:00,
2013-06-16 15:41:00,92.8,36.7,28.88,WNW,288,2.7,4.0,14,0.00,,---,0.00,VWS V14.01,2013-06-16 19:41:00,
2013-06-16 15:42:00,92.8,40.1,28.88,WNW,288,0.0,3.1,16,0.00,,---,0.00,VWS V14.01,2013-06-16 19:42:00,
2013-06-16 15:43:00,81.3,52.6,28.91,SW,224,4.9,11.2,37,0.00,,---,0.04,VWS V14.01,2013-06-16 19:43:00,
2013-06-16 15:44:00,93.0,40.2,28.88,WNW,295,4.0,4.9,16,0.00,,---,0.00,VWS V14.01,2013-06-16 19:44:00,
2013-06-16 15:45:00,92.8,40.1,28.88,West,271,3.1,6.7,16,0.00,,---,0.00,VWS V14.01,2013-06-16 19:45:00,
2013-06-16 15:46:00,92.8,40.1,28.88,WNW,292,4.0,4.9,16,0.00,,---,0.00,VWS V14.01,2013-06-16 19:46:00,
2013-06-16 15:47:00,92.5,39.8,28.88,SSE,167,0.0,4.0,16,0.00,,---,0.00,VWS V14.01,2013-06-16 19:47:00,
2013-06-16 15:48:00,81.1,53.2,28.91,West,269,9.2,9.2,38,0.00,,---,0.04,VWS V14.01,2013-06-16 19:48:00,
2013-06-16 15:49:00,92.8,40.1,28.88,South,176,0.0,0.0,16,0.00,,---,0.00,VWS V14.01,2013-06-16 19:49:00,
2013-06-16 15:50:00,93.4,40.5,28.88,SSW,210,0.0,3.1,16,0.00,,---,0.00,VWS V14.01,2013-06-16 19:50:00,
2013-06-16 15:51:00,93.4,40.5,28.88,WNW,284,4.5,5.8,16,0.00,,---,0.00,VWS V14.01,2013-06-16 19:51:00,
2013-06-16 15:52:00,93.2,37.0,28.88,West,274,6.3,8.3,14,0.00,,---,0.00,VWS V14.01,2013-06-16 19:52:00,
2013-06-16 15:53:00,82.0,54.0,28.91,West,264,6.9,13.9,38,0.00,,---,0.04,VWS V14.01,2013-06-16 19:53:00,
2013-06-16 15:54:00,92.3,36.3,28.88,SW,228,3.6,4.9,14,0.00,,---,0.00,VWS V14.01,2013-06-16 19:54:00,
2013-06-16 15:55:00,92.1,36.1,28.88,West,269,4.5,5.8,14,0.00,,---,0.00,VWS V14.01,2013-06-16 19:55:00,
2013-06-16 15:56:00,91.4,35.6,28.88,NW,311,4.5,6.3,14,0.00,,---,0.00,VWS V14.01,2013-06-16 19:56:00,
2013-06-16 15:57:00,90.9,35.1,28.88,NW,312,3.6,5.8,14,0.00,,---,0.00,VWS V14.01,2013-06-16 19:57:00,
2013-06-16 15:58:00,81.1,51.7,28.91,NW,305,9.6,13.4,36,0.00,,---,0.04,VWS V14.01,2013-06-16 19:58:00,
2013-06-16 15:59:00,90.3,36.5,28.88,SW,236,0.0,3.1,15,0.00,,---,0.00,VWS V14.01,2013-06-16 19:59:00,
2013-06-16 16:00:00,90.0,39.3,28.88,West,273,3.1,4.0,17,0.00,,---,0.00,VWS V14.01,2013-06-16 20:00:00,
2013-06-16 16:01:00,90.0,36.2,28.88,East,80,0.0,4.5,15,0.00,,---,0.00,VWS V14.01,2013-06-16 20:01:00,
2013-06-16 16:02:00,90.0,39.3,28.88,West,262,2.7,3.6,17,0.00,,---,0.00,VWS V14.01,2013-06-16 20:02:00,
2013-06-16 16:03:00,81.7,54.3,28.91,WSW,257,6.3,11.0,39,0.00,,---,0.04,VWS V14.01,2013-06-16 20:03:00,
2013-06-16 16:04:00,89.6,39.1,28.88,WNW,296,0.0,5.8,17,0.00,,---,0.00,VWS V14.01,2013-06-16 20:04:00,
2013-06-16 16:05:00,89.4,38.9,28.88,NNW,328,4.0,4.5,17,0.00,,---,0.00,VWS V14.01,2013-06-16 20:05:00,
2013-06-16 16:06:00,89.4,38.9,28.88,West,276,0.0,4.9,17,0.00,,---,0.00,VWS V14.01,2013-06-16 20:06:00,
2013-06-16 16:07:00,89.4,40.4,28.88,West,276,0.0,0.0,18,0.00,,---,0.00,VWS V14.01,2013-06-16 20:07:00,
2013-06-16 16:08:00,81.9,52.3,28.91,WNW,302,6.3,6.9,36,0.00,,---,0.04,VWS V14.01,2013-06-16 20:08:00,
2013-06-16 16:09:00,89.8,39.2,28.88,West,274,2.7,4.5,17,0.00,,---,0.00,VWS V14.01,2013-06-16 20:09:00,
2013-06-16 16:10:00,89.8,40.7,28.88,West,280,0.0,3.6,18,0.00,,---,0.00,VWS V14.01,2013-06-16 20:10:00,
2013-06-16 16:11:00,89.8,40.7,28.88,WNW,290,5.4,5.4,18,0.00,,---,0.00,VWS V14.01,2013-06-16 20:11:00,
2013-06-16 16:12:00,89.4,38.9,28.88,WNW,297,4.9,5.8,17,0.00,,---,0.00,VWS V14.01,2013-06-16 20:12:00,
2013-06-16 16:13:00,81.9,53.1,28.91,WNW,296,7.4,8.3,37,0.00,,---,0.04,VWS V14.01,2013-06-16 20:13:00,
2013-06-16 16:14:00,89.2,40.2,28.88,NW,324,0.0,4.0,18,0.00,,---,0.00,VWS V14.01,2013-06-16 20:14:00,
2013-06-16 16:15:00,89.4,40.4,28.88,NNW,345,2.7,4.5,18,0.00,,---,0.00,VWS V14.01,2013-06-16 20:15:00,
2013-06-16 16:16:00,89.2,38.8,28.88,NNW,339,0.0,3.6,17,0.00,,---,0.00,VWS V14.01,2013-06-16 20:16:00,
2013-06-16 16:17:00,89.4,38.9,28.88,WNW,295,3.6,3.6,17,0.00,,---,0.00,VWS V14.01,2013-06-16 20:17:00,
2013-06-16 16:18:00,81.9,53.1,28.91,West,266,5.8,12.1,37,0.00,,---,0.04,VWS V14.01,2013-06-16 20:18:00,
2013-06-16 16:19:00,89.2,38.8,28.88,WNW,291,4.0,6.3,17,0.00,,---,0.00,VWS V14.01,2013-06-16 20:19:00,
2013-06-16 16:20:00,89.1,38.6,28.88,NNW,331,2.7,5.8,17,0.00,,---,0.00,VWS V14.01,2013-06-16 20:20:00,
2013-06-16 16:21:00,89.1,40.1,28.88,NE,48,0.0,2.7,18,0.00,,---,0.00,VWS V14.01,2013-06-16 20:21:00,
2013-06-16 16:22:00,88.7,39.8,28.88,NW,308,3.6,4.9,18,0.00,,---,0.00,VWS V14.01,2013-06-16 20:22:00,
2013-06-16 16:23:00,82.0,53.2,28.91,West,268,12.5,12.5,37,0.00,,---,0.04,VWS V14.01,2013-06-16 20:23:00,
2013-06-16 16:24:00,88.7,39.8,28.88,NW,314,5.8,6.7,18,0.00,,---,0.00,VWS V14.01,2013-06-16 20:24:00,
2013-06-16 16:25:00,88.5,39.7,28.88,WNW,300,6.7,6.9,18,0.00,,---,0.00,VWS V14.01,2013-06-16 20:25:00,
2013-06-16 16:26:00,88.3,39.5,28.88,West,276,5.4,6.7,18,0.00,,---,0.00,VWS V14.01,2013-06-16 20:26:00,
2013-06-16 16:27:00,88.3,39.5,28.88,WNW,291,2.7,6.3,18,0.00,,---,0.00,VWS V14.01,2013-06-16 20:27:00,
2013-06-16 16:28:00,82.4,52.0,28.91,WSW,249,4.0,9.2,35,0.00,,---,0.04,VWS V14.01,2013-06-16 20:28:00,
2013-06-16 16:29:00,88.3,39.5,28.88,NW,316,0.0,2.7,18,0.00,,---,0.00,VWS V14.01,2013-06-16 20:29:00,
2013-06-16 16:30:00,88.5,41.0,28.88,NW,308,5.8,5.8,19,0.00,,---,0.00,VWS V14.01,2013-06-16 20:30:00,
2013-06-16 16:31:00,88.3,39.5,28.88,WSW,251,3.6,5.8,18,0.00,,---,0.00,VWS V14.01,2013-06-16 20:31:00,
2013-06-16 16:32:00,88.3,39.5,28.88,WNW,302,4.0,6.3,18,0.00,,---,0.00,VWS V14.01,2013-06-16 20:32:00,
2013-06-16 16:33:00,82.9,51.7,28.88,WNW,290,6.9,9.2,34,0.00,,---,0.04,VWS V14.01,2013-06-16 20:33:00,
2013-06-16 16:34:00,88.2,40.8,28.88,WNW,284,2.7,4.9,19,0.00,,---,0.00,VWS V14.01,2013-06-16 20:34:00,
2013-06-16 16:35:00,88.2,40.8,28.88,WNW,286,4.0,4.0,19,0.00,,---,0.00,VWS V14.01,2013-06-16 20:35:00,
2013-06-16 16:36:00,88.2,39.4,28.88,WNW,286,2.7,4.0,18,0.00,,---,0.00,VWS V14.01,2013-06-16 20:36:00,
2013-06-16 16:37:00,88.2,39.4,28.88,WNW,297,0.0,3.6,18,0.00,,---,0.00,VWS V14.01,2013-06-16 20:37:00,
2013-06-16 16:38:00,82.6,50.6,28.88,West,275,0.0,12.1,33,0.00,,---,0.04,VWS V14.01,2013-06-16 20:38:00,
2013-06-16 16:39:00,88.5,41.0,28.88,NW,309,4.5,4.5,19,0.00,,---,0.00,VWS V14.01,2013-06-16 20:39:00,
2013-06-16 16:40:00,88.5,42.4,28.88,NW,309,0.0,4.5,20,0.00,,---,0.00,VWS V14.01,2013-06-16 20:40:00,
2013-06-16 16:41:00,88.3,40.9,28.88,WNW,286,4.9,6.7,19,0.00,,---,0.00,VWS V14.01,2013-06-16 20:41:00,
2013-06-16 16:42:00,88.2,40.8,28.85,NW,323,4.5,5.4,19,0.00,,---,0.00,VWS V14.01,2013-06-16 20:42:00,
2013-06-16 16:43:00,82.9,50.1,28.88,WSW,258,6.3,11.6,32,0.00,,---,0.04,VWS V14.01,2013-06-16 20:43:00,
2013-06-16 16:44:00,88.0,40.6,28.85,NNW,331,3.1,4.0,19,0.00,,---,0.00,VWS V14.01,2013-06-16 20:44:00,
2013-06-16 16:45:00,88.0,41.9,28.85,NNW,331,0.0,3.1,20,0.00,,---,0.00,VWS V14.01,2013-06-16 20:45:00,
2013-06-16 16:46:00,87.8,41.8,28.85,West,279,4.9,6.9,20,0.00,,---,0.00,VWS V14.01,2013-06-16 20:46:00,
2013-06-16 16:47:00,88.0,40.6,28.85,West,278,3.6,4.9,19,0.00,,---,0.00,VWS V14.01,2013-06-16 20:47:00,
2013-06-16 16:48:00,83.3,51.2,28.88,WNW,289,4.5,8.3,33,0.00,,---,0.04,VWS V14.01,2013-06-16 20:48:00,
2013-06-16 16:49:00,88.3,39.5,28.85,WNW,296,4.5,5.8,18,0.00,,---,0.00,VWS V14.01,2013-06-16 20:49:00,
2013-06-16 16:50:00,88.3,39.5,28.85,NNW,341,3.6,6.7,18,0.00,,---,0.00,VWS V14.01,2013-06-16 20:50:00,
2013-06-16 16:51:00,88.5,39.7,28.85,NW,304,4.0,5.4,18,0.00,,---,0.00,VWS V14.01,2013-06-16 20:51:00,
2013-06-16 16:52:00,88.7,39.8,28.85,WSW,242,3.1,5.8,18,0.00,,---,0.00,VWS V14.01,2013-06-16 20:52:00,
2013-06-16 16:53:00,84.6,50.6,28.88,WNW,289,10.1,13.4,31,0.00,,---,0.04,VWS V14.01,2013-06-16 20:53:00,
2013-06-16 16:54:00,89.2,38.8,28.85,WNW,302,3.1,4.9,17,0.00,,---,0.00,VWS V14.01,2013-06-16 20:54:00,
2013-06-16 16:55:00,89.4,38.9,28.85,North,351,0.0,5.4,17,0.00,,---,0.00,VWS V14.01,2013-06-16 20:55:00,
2013-06-16 16:56:00,89.6,40.5,28.85,WNW,289,3.6,4.9,18,0.00,,---,0.00,VWS V14.01,2013-06-16 20:56:00,
2013-06-16 16:57:00,89.6,40.5,28.85,NW,320,2.7,4.0,18,0.00,,---,0.00,VWS V14.01,2013-06-16 20:57:00,
2013-06-16 16:58:00,89.6,40.5,28.85,NW,320,0.0,2.7,18,0.00,,---,0.00,VWS V14.01,2013-06-16 20:58:00,
2013-06-16 16:59:00,83.3,49.5,28.88,West,280,6.3,12.1,31,0.00,,---,0.04,VWS V14.01,2013-06-16 20:59:00,
2013-06-16 17:00:00,89.4,40.4,28.85,NNW,328,2.7,4.5,18,0.00,,---,0.00,VWS V14.01,2013-06-16 21:00:00,
2013-06-16 17:01:00,89.2,40.2,28.85,West,281,0.0,4.9,18,0.00,,---,0.00,VWS V14.01,2013-06-16 21:01:00,
2013-06-16 17:02:00,89.1,38.6,28.85,WNW,287,3.6,4.9,17,0.00,,---,0.00,VWS V14.01,2013-06-16 21:02:00,
2013-06-16 17:03:00,88.9,39.9,28.85,NNW,340,2.7,4.5,18,0.00,,---,0.00,VWS V14.01,2013-06-16 21:03:00,
2013-06-16 17:04:00,83.1,51.1,28.88,West,268,10.1,11.2,33,0.00,,---,0.04,VWS V14.01,2013-06-16 21:04:00,
2013-06-16 17:05:00,88.7,39.8,28.85,NNW,329,0.0,0.0,18,0.00,,---,0.00,VWS V14.01,2013-06-16 21:05:00,
2013-06-16 17:06:00,88.7,39.8,28.85,NW,309,4.5,4.5,18,0.00,,---,0.00,VWS V14.01,2013-06-16 21:06:00,
2013-06-16 17:07:00,88.5,39.7,28.85,WSW,251,4.9,6.9,18,0.00,,---,0.00,VWS V14.01,2013-06-16 21:07:00,
2013-06-16 17:08:00,88.3,39.5,28.85,NW,311,5.4,7.4,18,0.00,,---,0.00,VWS V14.01,2013-06-16 21:08:00,
2013-06-16 17:09:00,83.7,51.5,28.88,WNW,291,7.4,8.3,33,0.00,,---,0.04,VWS V14.01,2013-06-16 21:09:00,
2013-06-16 17:10:00,87.4,38.8,28.85,WNW,290,4.5,8.3,18,0.00,,---,0.00,VWS V14.01,2013-06-16 21:10:00,
2013-06-16 17:11:00,87.3,40.0,28.85,NW,316,5.4,5.4,19,0.00,,---,0.00,VWS V14.01,2013-06-16 21:11:00,
2013-06-16 17:12:00,87.3,38.6,28.85,WNW,286,0.0,5.4,18,0.00,,---,0.00,VWS V14.01,2013-06-16 21:12:00,
2013-06-16 17:13:00,87.4,38.8,28.85,WNW,286,2.7,3.6,18,0.00,,---,0.00,VWS V14.01,2013-06-16 21:13:00,
2013-06-16 17:14:00,83.7,50.7,28.88,WSW,254,6.7,8.7,32,0.00,,---,0.04,VWS V14.01,2013-06-16 21:14:00,
2013-06-16 17:15:00,88.0,39.2,28.85,WNW,286,0.0,3.1,18,0.00,,---,0.00,VWS V14.01,2013-06-16 21:15:00,
2013-06-16 17:16:00,88.0,39.2,28.85,WNW,290,0.0,3.6,18,0.00,,---,0.00,VWS V14.01,2013-06-16 21:16:00,
2013-06-16 17:17:00,88.2,39.4,28.85,WSW,253,4.5,4.9,18,0.00,,---,0.00,VWS V14.01,2013-06-16 21:17:00,
2013-06-16 17:18:00,88.3,39.5,28.85,WSW,253,3.6,4.5,18,0.00,,---,0.00,VWS V14.01,2013-06-16 21:18:00,
2013-06-16 17:19:00,82.4,52.0,28.88,WNW,291,6.7,7.8,35,0.00,,---,0.04,VWS V14.01,2013-06-16 21:19:00,
2013-06-16 17:20:00,89.1,40.1,28.85,West,281,5.8,5.8,18,0.00,,---,0.00,VWS V14.01,2013-06-16 21:20:00,
2013-06-16 17:21:00,89.2,38.8,28.85,West,268,3.1,5.8,17,0.00,,---,0.00,VWS V14.01,2013-06-16 21:21:00,
2013-06-16 17:22:00,89.6,40.5,28.85,West,277,4.9,5.4,18,0.00,,---,0.00,VWS V14.01,2013-06-16 21:22:00,
2013-06-16 17:23:00,89.6,39.1,28.85,WNW,297,0.0,6.9,17,0.00,,---,0.00,VWS V14.01,2013-06-16 21:23:00,
2013-06-16 17:24:00,82.8,52.3,28.88,WSW,251,5.8,9.2,35,0.00,,---,0.04,VWS V14.01,2013-06-16 21:24:00,
2013-06-16 17:25:00,90.1,39.5,28.85,WNW,297,0.0,0.0,17,0.00,,---,0.00,VWS V14.01,2013-06-16 21:25:00,
2013-06-16 17:26:00,90.3,39.6,28.85,West,268,3.6,3.6,17,0.00,,---,0.00,VWS V14.01,2013-06-16 21:26:00,
2013-06-16 17:27:00,90.5,39.8,28.85,NNW,339,3.1,4.0,17,0.00,,---,0.00,VWS V14.01,2013-06-16 21:27:00,
2013-06-16 17:28:00,90.7,39.9,28.85,West,281,5.8,5.8,17,0.00,,---,0.00,VWS V14.01,2013-06-16 21:28:00,
2013-06-16 17:29:00,83.3,52.8,28.88,West,276,11.0,11.0,35,0.00,,---,0.04,VWS V14.01,2013-06-16 21:29:00,
2013-06-16 17:30:00,90.5,39.8,28.85,West,280,0.0,3.1,17,0.00,,---,0.00,VWS V14.01,2013-06-16 21:30:00,
2013-06-16 17:31:00,90.5,39.8,28.85,West,280,0.0,0.0,17,0.00,,---,0.00,VWS V14.01,2013-06-16 21:31:00,
2013-06-16 17:32:00,90.7,39.9,28.85,West,280,0.0,0.0,17,0.00,,---,0.00,VWS V14.01,2013-06-16 21:32:00,
2013-06-16 17:33:00,90.5,39.8,28.85,NW,306,4.9,6.3,17,0.00,,---,0.00,VWS V14.01,2013-06-16 21:33:00,
2013-06-16 17:34:00,84.2,52.8,28.88,NW,305,5.8,6.7,34,0.00,,---,0.04,VWS V14.01,2013-06-16 21:34:00,
2013-06-16 17:35:00,90.1,39.5,28.85,NW,325,3.1,4.0,17,0.00,,---,0.00,VWS V14.01,2013-06-16 21:35:00,
2013-06-16 17:36:00,89.8,39.2,28.85,WNW,288,3.1,5.4,17,0.00,,---,0.00,VWS V14.01,2013-06-16 21:36:00,
2013-06-16 17:37:00,89.6,39.1,28.85,NW,314,3.1,4.5,17,0.00,,---,0.00,VWS V14.01,2013-06-16 21:37:00,
2013-06-16 17:38:00,89.4,38.9,28.85,NW,316,0.0,4.0,17,0.00,,---,0.00,VWS V14.01,2013-06-16 21:38:00,
2013-06-16 17:39:00,84.4,51.3,28.88,WNW,282,6.3,9.2,32,0.00,,---,0.04,VWS V14.01,2013-06-16 21:39:00,
2013-06-16 17:40:00,89.2,40.2,28.85,NW,308,2.7,4.0,18,0.00,,---,0.00,VWS V14.01,2013-06-16 21:40:00,
2013-06-16 17:41:00,89.1,38.6,28.85,NW,308,0.0,2.7,17,0.00,,---,0.00,VWS V14.01,2013-06-16 21:41:00,
2013-06-16 17:42:00,89.1,38.6,28.85,WNW,296,4.5,4.9,17,0.00,,---,0.00,VWS V14.01,2013-06-16 21:42:00,
2013-06-16 17:43:00,88.9,38.5,28.85,WNW,303,3.1,5.4,17,0.00,,---,0.00,VWS V14.01,2013-06-16 21:43:00,
2013-06-16 17:44:00,82.6,50.6,28.88,WNW,303,6.9,7.8,33,0.00,,---,0.04,VWS V14.01,2013-06-16 21:44:00,
2013-06-16 17:45:00,88.5,39.7,28.85,NW,316,2.7,4.9,18,0.00,,---,0.00,VWS V14.01,2013-06-16 21:45:00,
2013-06-16 17:46:00,88.7,41.2,28.85,NW,316,0.0,2.7,19,0.00,,---,0.00,VWS V14.01,2013-06-16 21:46:00,
2013-06-16 17:47:00,88.7,39.8,28.85,WNW,303,0.0,4.0,18,0.00,,---,0.00,VWS V14.01,2013-06-16 21:47:00,
2013-06-16 17:48:00,89.1,40.1,28.85,NW,304,0.0,0.0,18,0.00,,---,0.00,VWS V14.01,2013-06-16 21:48:00,
2013-06-16 17:49:00,81.1,52.4,28.88,WNW,293,11.0,11.0,37,0.00,,---,0.04,VWS V14.01,2013-06-16 21:49:00,
2013-06-16 17:50:00,89.4,38.9,28.85,NW,319,3.6,3.6,17,0.00,,---,0.00,VWS V14.01,2013-06-16 21:50:00,
2013-06-16 17:51:00,89.6,40.5,28.85,WNW,288,4.0,4.0,18,0.00,,---,0.00,VWS V14.01,2013-06-16 21:51:00,
2013-06-16 17:52:00,89.6,39.1,28.85,NW,322,3.1,6.7,17,0.00,,---,0.00,VWS V14.01,2013-06-16 21:52:00,
2013-06-16 17:53:00,89.6,39.1,28.85,NW,315,0.0,4.5,17,0.00,,---,0.00,VWS V14.01,2013-06-16 21:53:00,
2013-06-16 17:54:00,81.1,52.4,28.88,WSW,249,8.7,10.1,37,0.00,,---,0.04,VWS V14.01,2013-06-16 21:54:00,
2013-06-16 17:55:00,89.8,39.2,28.85,NW,314,0.0,4.5,17,0.00,,---,0.00,VWS V14.01,2013-06-16 21:55:00,
2013-06-16 17:56:00,90.0,39.3,28.85,NW,315,3.6,4.0,17,0.00,,---,0.00,VWS V14.01,2013-06-16 21:56:00,
2013-06-16 17:57:00,90.0,39.3,28.85,WSW,252,3.6,3.6,17,0.00,,---,0.00,VWS V14.01,2013-06-16 21:57:00,
2013-06-16 17:58:00,90.0,39.3,28.85,WNW,286,4.9,5.4,17,0.00,,---,0.00,VWS V14.01,2013-06-16 21:58:00,
2013-06-16 17:59:00,81.7,52.2,28.88,West,277,3.6,11.6,36,0.00,,---,0.04,VWS V14.01,2013-06-16 21:59:00,
2013-06-16 18:00:00,90.0,39.3,28.85,North,351,0.0,3.6,17,0.00,,---,0.00,VWS V14.01,2013-06-16 22:00:00,
2013-06-16 18:01:00,90.0,39.3,28.85,North,351,0.0,0.0,17,0.00,,---,0.00,VWS V14.01,2013-06-16 22:01:00,
2013-06-16 18:02:00,90.0,39.3,28.85,NE,55,0.0,0.0,17,0.00,,---,0.00,VWS V14.01,2013-06-16 22:02:00,
2013-06-16 18:03:00,90.1,39.5,28.85,NE,55,0.0,0.0,17,0.00,,---,0.00,VWS V14.01,2013-06-16 22:03:00,
2013-06-16 18:04:00,80.6,53.4,28.88,West,277,4.9,6.7,39,0.00,,---,0.04,VWS V14.01,2013-06-16 22:04:00,
2013-06-16 18:05:00,90.1,39.5,28.85,ENE,57,0.0,0.0,17,0.00,,---,0.00,VWS V14.01,2013-06-16 22:05:00,
2013-06-16 18:06:00,90.3,39.6,28.85,North,9,0.0,0.0,17,0.00,,---,0.00,VWS V14.01,2013-06-16 22:06:00,
2013-06-16 18:07:00,90.3,39.6,28.85,West,280,4.5,4.9,17,0.00,,---,0.00,VWS V14.01,2013-06-16 22:07:00,
2013-06-16 18:08:00,90.3,39.6,28.85,NW,304,0.0,4.9,17,0.00,,---,0.00,VWS V14.01,2013-06-16 22:08:00,
2013-06-16 18:09:00,80.2,54.4,28.88,WNW,293,7.8,7.8,41,0.00,,---,0.04,VWS V14.01,2013-06-16 22:09:00,
2013-06-16 18:10:00,90.3,36.5,28.85,West,270,0.0,3.6,15,0.00,,---,0.00,VWS V14.01,2013-06-16 22:10:00,
2013-06-16 18:11:00,90.5,39.8,28.85,West,269,0.0,2.7,17,0.00,,---,0.00,VWS V14.01,2013-06-16 22:11:00,
2013-06-16 18:12:00,90.5,34.8,28.85,West,269,2.7,3.1,14,0.00,,---,0.00,VWS V14.01,2013-06-16 22:12:00,
2013-06-16 18:13:00,90.7,35.0,28.85,West,269,0.0,3.1,14,0.00,,---,0.00,VWS V14.01,2013-06-16 22:13:00,
2013-06-16 18:14:00,81.1,55.2,28.88,West,275,6.3,7.4,41,0.00,,---,0.04,VWS V14.01,2013-06-16 22:14:00,
2013-06-16 18:15:00,90.7,35.0,28.85,North,351,0.0,4.0,14,0.00,,---,0.00,VWS V14.01,2013-06-16 22:15:00,
2013-06-16 18:16:00,90.3,36.5,28.85,NNW,332,0.0,4.0,15,0.00,,---,0.00,VWS V14.01,2013-06-16 22:16:00,
2013-06-16 18:17:00,89.8,36.0,28.85,WNW,299,3.6,4.9,15,0.00,,---,0.00,VWS V14.01,2013-06-16 22:17:00,
2013-06-16 18:18:00,89.6,35.9,28.85,WNW,301,3.6,4.9,15,0.00,,---,0.00,VWS V14.01,2013-06-16 22:18:00,
2013-06-16 18:19:00,81.1,54.5,28.88,WNW,291,6.3,7.4,40,0.00,,---,0.04,VWS V14.01,2013-06-16 22:19:00,
2013-06-16 18:20:00,89.2,35.6,28.85,WNW,292,4.0,4.5,15,0.00,,---,0.00,VWS V14.01,2013-06-16 22:20:00,
2013-06-16 18:21:00,89.1,35.5,28.85,WNW,294,2.7,4.9,15,0.00,,---,0.00,VWS V14.01,2013-06-16 22:21:00,
2013-06-16 18:22:00,89.1,35.5,28.85,West,277,3.6,4.9,15,0.00,,---,0.00,VWS V14.01,2013-06-16 22:22:00,
2013-06-16 18:23:00,88.9,38.5,28.85,WSW,252,0.0,4.0,17,0.00,,---,0.00,VWS V14.01,2013-06-16 22:23:00,
2013-06-16 18:24:00,80.4,54.6,28.88,NW,317,4.9,8.7,41,0.00,,---,0.04,VWS V14.01,2013-06-16 22:24:00,
2013-06-16 18:25:00,88.5,39.7,28.85,WSW,252,0.0,0.0,18,0.00,,---,0.00,VWS V14.01,2013-06-16 22:25:00,
2013-06-16 18:26:00,88.5,39.7,28.85,WSW,252,0.0,0.0,18,0.00,,---,0.00,VWS V14.01,2013-06-16 22:26:00,
2013-06-16 18:27:00,88.5,39.7,28.85,WSW,252,0.0,0.0,18,0.00,,---,0.00,VWS V14.01,2013-06-16 22:27:00,
2013-06-16 18:28:00,88.7,39.8,28.85,WSW,252,2.7,2.7,18,0.00,,---,0.00,VWS V14.01,2013-06-16 22:28:00,
2013-06-16 18:29:00,80.8,56.2,28.88,WNW,298,4.5,4.5,43,0.00,,---,0.04,VWS V14.01,2013-06-16 22:29:00,
2013-06-16 18:30:00,88.9,38.5,28.85,WSW,252,0.0,2.7,17,0.00,,---,0.00,VWS V14.01,2013-06-16 22:30:00,
2013-06-16 18:31:00,88.9,38.5,28.85,WSW,252,0.0,0.0,17,0.00,,---,0.00,VWS V14.01,2013-06-16 22:31:00,
2013-06-16 18:32:00,88.9,38.5,28.85,WSW,252,0.0,0.0,17,0.00,,---,0.00,VWS V14.01,2013-06-16 22:32:00,
2013-06-16 18:33:00,88.9,38.5,28.85,WSW,256,3.1,3.1,17,0.00,,---,0.00,VWS V14.01,2013-06-16 22:33:00,
2013-06-16 18:34:00,81.1,55.2,28.88,SW,225,4.5,8.7,41,0.00,,---,0.04,VWS V14.01,2013-06-16 22:34:00,
2013-06-16 18:35:00,88.7,38.3,28.85,WSW,257,0.0,0.0,17,0.00,,---,0.00,VWS V14.01,2013-06-16 22:35:00,
2013-06-16 18:36:00,88.7,38.3,28.85,WSW,257,0.0,0.0,17,0.00,,---,0.00,VWS V14.01,2013-06-16 22:36:00,
2013-06-16 18:37:00,88.7,39.8,28.85,WNW,302,0.0,4.9,18,0.00,,---,0.00,VWS V14.01,2013-06-16 22:37:00,
2013-06-16 18:38:00,88.5,39.7,28.85,WNW,302,2.7,3.1,18,0.00,,---,0.00,VWS V14.01,2013-06-16 22:38:00,
2013-06-16 18:39:00,81.7,54.3,28.88,NW,314,4.0,9.6,39,0.00,,---,0.04,VWS V14.01,2013-06-16 22:39:00,
2013-06-16 18:40:00,88.3,39.5,28.85,WNW,302,0.0,0.0,18,0.00,,---,0.00,VWS V14.01,2013-06-16 22:40:00,
2013-06-16 18:41:00,88.2,39.4,28.85,WNW,302,0.0,0.0,18,0.00,,---,0.00,VWS V14.01,2013-06-16 22:41:00,
2013-06-16 18:42:00,88.0,39.2,28.85,WNW,302,0.0,0.0,18,0.00,,---,0.00,VWS V14.01,2013-06-16 22:42:00,
2013-06-16 18:43:00,88.0,39.2,28.85,WNW,302,0.0,0.0,18,0.00,,---,0.00,VWS V14.01,2013-06-16 22:43:00,
2013-06-16 18:44:00,81.1,55.9,28.88,WSW,253,4.5,5.4,42,0.00,,---,0.04,VWS V14.01,2013-06-16 22:44:00,
2013-06-16 18:45:00,87.6,38.9,28.85,WNW,302,0.0,0.0,18,0.00,,---,0.00,VWS V14.01,2013-06-16 22:45:00,
2013-06-16 18:46:00,87.6,38.9,28.85,WNW,302,0.0,0.0,18,0.00,,---,0.00,VWS V14.01,2013-06-16 22:46:00,
2013-06-16 18:47:00,87.6,38.9,28.85,WNW,302,0.0,0.0,18,0.00,,---,0.00,VWS V14.01,2013-06-16 22:47:00,
2013-06-16 18:48:00,87.4,38.8,28.85,WNW,302,0.0,0.0,18,0.00,,---,0.00,VWS V14.01,2013-06-16 22:48:00,
2013-06-16 18:49:00,80.2,55.1,28.88,WSW,248,6.7,15.2,42,0.00,,---,0.04,VWS V14.01,2013-06-16 22:49:00,
2013-06-16 18:50:00,87.4,38.8,28.85,WNW,302,0.0,0.0,18,0.00,,---,0.00,VWS V14.01,2013-06-16 22:50:00,
2013-06-16 18:51:00,87.4,38.8,28.85,WNW,302,0.0,0.0,18,0.00,,---,0.00,VWS V14.01,2013-06-16 22:51:00,
2013-06-16 18:52:00,87.3,38.6,28.85,WNW,302,0.0,0.0,18,0.00,,---,0.00,VWS V14.01,2013-06-16 22:52:00,
2013-06-16 18:53:00,87.3,38.6,28.85,WNW,302,0.0,0.0,18,0.00,,---,0.00,VWS V14.01,2013-06-16 22:53:00,
2013-06-16 18:54:00,79.2,56.6,28.88,WSW,253,8.3,9.6,46,0.00,,---,0.04,VWS V14.01,2013-06-16 22:54:00,
2013-06-16 18:55:00,87.1,38.5,28.85,WNW,302,0.0,0.0,18,0.00,,---,0.00,VWS V14.01,2013-06-16 22:55:00,
2013-06-16 18:56:00,87.1,38.5,28.85,WNW,302,0.0,0.0,18,0.00,,---,0.00,VWS V14.01,2013-06-16 22:56:00,
2013-06-16 18:57:00,86.9,38.3,28.85,WNW,302,0.0,0.0,18,0.00,,---,0.00,VWS V14.01,2013-06-16 22:57:00,
2013-06-16 18:58:00,86.7,38.2,28.85,WNW,302,0.0,0.0,18,0.00,,---,0.00,VWS V14.01,2013-06-16 22:58:00,
2013-06-16 18:59:00,79.2,57.2,28.88,WNW,287,0.0,6.3,47,0.00,,---,0.04,VWS V14.01,2013-06-16 22:59:00,
2013-06-16 19:00:00,86.5,38.0,28.85,WNW,302,0.0,0.0,18,0.00,,---,0.00,VWS V14.01,2013-06-16 23:00:00,
2013-06-16 19:01:00,86.5,38.0,28.85,WNW,302,0.0,0.0,18,0.00,,---,0.00,VWS V14.01,2013-06-16 23:01:00,
2013-06-16 19:02:00,86.4,39.3,28.85,WNW,302,0.0,0.0,19,0.00,,---,0.00,VWS V14.01,2013-06-16 23:02:00,
2013-06-16 19:03:00,86.2,39.1,28.85,WNW,302,0.0,0.0,19,0.00,,---,0.00,VWS V14.01,2013-06-16 23:03:00,
2013-06-16 19:04:00,79.9,57.3,28.88,NW,312,8.7,8.7,46,0.00,,---,0.04,VWS V14.01,2013-06-16 23:04:00,
2013-06-16 19:05:00,86.0,37.6,28.85,WNW,302,0.0,0.0,18,0.00,,---,0.00,VWS V14.01,2013-06-16 23:05:00,
2013-06-16 19:06:00,85.8,37.5,28.85,WNW,302,0.0,0.0,18,0.00,,---,0.00,VWS V14.01,2013-06-16 23:06:00,
2013-06-16 19:07:00,85.8,38.8,28.85,WNW,302,0.0,0.0,19,0.00,,---,0.00,VWS V14.01,2013-06-16 23:07:00,
2013-06-16 19:08:00,85.6,38.7,28.85,WNW,302,0.0,0.0,19,0.00,,---,0.00,VWS V14.01,2013-06-16 23:08:00,
2013-06-16 19:09:00,83.3,55.1,28.88,NW,304,3.1,4.5,38,0.00,,---,0.04,VWS V14.01,2013-06-16 23:09:00,
2013-06-16 19:10:00,85.5,38.5,28.85,WNW,302,0.0,0.0,19,0.00,,---,0.00,VWS V14.01,2013-06-16 23:10:00,
2013-06-16 19:11:00,85.3,38.4,28.85,WNW,302,0.0,0.0,19,0.00,,---,0.00,VWS V14.01,2013-06-16 23:11:00,
2013-06-16 19:12:00,85.3,38.4,28.85,WNW,302,0.0,0.0,19,0.00,,---,0.00,VWS V14.01,2013-06-16 23:12:00,
2013-06-16 19:13:00,85.1,38.2,28.85,WNW,302,0.0,0.0,19,0.00,,---,0.00,VWS V14.01,2013-06-16 23:13:00,
2013-06-16 19:14:00,85.1,51.1,28.88,West,261,8.3,9.2,31,0.00,,---,0.04,VWS V14.01,2013-06-16 23:14:00,
2013-06-16 19:15:00,84.9,39.4,28.85,WNW,302,0.0,0.0,20,0.00,,---,0.00,VWS V14.01,2013-06-16 23:15:00,
2013-06-16 19:16:00,84.9,39.4,28.85,WNW,302,0.0,0.0,20,0.00,,---,0.00,VWS V14.01,2013-06-16 23:16:00,
2013-06-16 19:17:00,84.9,39.4,28.85,WNW,302,0.0,0.0,20,0.00,,---,0.00,VWS V14.01,2013-06-16 23:17:00,
2013-06-16 19:18:00,84.7,39.3,28.85,WNW,302,0.0,0.0,20,0.00,,---,0.00,VWS V14.01,2013-06-16 23:18:00,
2013-06-16 19:19:00,85.1,50.2,28.88,WNW,298,6.3,6.9,30,0.00,,---,0.04,VWS V14.01,2013-06-16 23:19:00,
2013-06-16 19:20:00,84.6,39.1,28.85,WNW,302,0.0,0.0,20,0.00,,---,0.00,VWS V14.01,2013-06-16 23:20:00,
2013-06-16 19:21:00,84.6,39.1,28.85,WNW,302,0.0,0.0,20,0.00,,---,0.00,VWS V14.01,2013-06-16 23:21:00,
2013-06-16 19:22:00,84.6,39.1,28.85,WNW,302,0.0,0.0,20,0.00,,---,0.00,VWS V14.01,2013-06-16 23:22:00,
2013-06-16 19:23:00,84.4,39.0,28.85,WNW,302,0.0,0.0,20,0.00,,---,0.00,VWS V14.01,2013-06-16 23:23:00,
2013-06-16 19:24:00,81.9,51.5,28.88,WSW,256,5.8,6.9,35,0.00,,---,0.04,VWS V14.01,2013-06-16 23:24:00,
2013-06-16 19:25:00,84.2,38.8,28.85,WNW,302,0.0,0.0,20,0.00,,---,0.00,VWS V14.01,2013-06-16 23:25:00,
2013-06-16 19:26:00,84.2,40.1,28.85,WNW,302,0.0,0.0,21,0.00,,---,0.00,VWS V14.01,2013-06-16 23:26:00,
2013-06-16 19:27:00,84.0,39.9,28.85,WNW,302,0.0,0.0,21,0.00,,---,0.00,VWS V14.01,2013-06-16 23:27:00,
2013-06-16 19:28:00,84.0,39.9,28.85,WNW,302,0.0,0.0,21,0.00,,---,0.00,VWS V14.01,2013-06-16 23:28:00,
2013-06-16 19:29:00,84.2,51.2,28.88,WSW,256,3.1,6.3,32,0.00,,---,0.04,VWS V14.01,2013-06-16 23:29:00,
2013-06-16 19:30:00,83.8,41.0,28.85,WNW,302,0.0,0.0,22,0.00,,---,0.00,VWS V14.01,2013-06-16 23:30:00,
2013-06-16 19:31:00,83.8,41.0,28.85,WNW,302,0.0,0.0,22,0.00,,---,0.00,VWS V14.01,2013-06-16 23:31:00,
2013-06-16 19:32:00,83.7,39.6,28.85,WNW,302,0.0,0.0,21,0.00,,---,0.00,VWS V14.01,2013-06-16 23:32:00,
2013-06-16 19:33:00,83.7,39.6,28.85,WNW,302,0.0,0.0,21,0.00,,---,0.00,VWS V14.01,2013-06-16 23:33:00,
2013-06-16 19:34:00,85.8,49.9,28.88,West,279,2.7,7.4,29,0.00,,---,0.04,VWS V14.01,2013-06-16 23:34:00,
2013-06-16 19:35:00,83.5,40.7,28.85,WNW,302,0.0,0.0,22,0.00,,---,0.00,VWS V14.01,2013-06-16 23:35:00,
2013-06-16 19:36:00,83.3,39.3,28.85,WNW,302,0.0,0.0,21,0.00,,---,0.00,VWS V14.01,2013-06-16 23:36:00,
2013-06-16 19:37:00,83.3,39.3,28.85,WNW,302,0.0,0.0,21,0.00,,---,0.00,VWS V14.01,2013-06-16 23:37:00,
2013-06-16 19:38:00,83.3,39.3,28.85,WNW,302,0.0,0.0,21,0.00,,---,0.00,VWS V14.01,2013-06-16 23:38:00,
2013-06-16 19:39:00,86.9,49.9,28.88,WSW,253,4.9,6.9,28,0.00,,---,0.04,VWS V14.01,2013-06-16 23:39:00,
2013-06-16 19:40:00,83.1,40.4,28.85,WNW,302,0.0,0.0,22,0.00,,---,0.00,VWS V14.01,2013-06-16 23:40:00,
2013-06-16 19:41:00,82.9,40.2,28.85,WNW,302,0.0,0.0,22,0.00,,---,0.00,VWS V14.01,2013-06-16 23:41:00,
2013-06-16 19:42:00,82.9,40.2,28.85,WNW,302,0.0,0.0,22,0.00,,---,0.00,VWS V14.01,2013-06-16 23:42:00,
2013-06-16 19:43:00,82.8,40.1,28.85,WNW,302,0.0,0.0,22,0.00,,---,0.00,VWS V14.01,2013-06-16 23:43:00,
2013-06-16 19:44:00,82.8,41.2,28.85,WNW,302,0.0,0.0,23,0.00,,---,0.00,VWS V14.01,2013-06-16 23:44:00,
2013-06-16 19:45:00,84.9,50.1,28.88,NW,304,4.9,5.8,30,0.00,,---,0.04,VWS V14.01,2013-06-16 23:45:00,
2013-06-16 19:46:00,82.6,41.1,28.85,WNW,302,0.0,0.0,23,0.00,,---,0.00,VWS V14.01,2013-06-16 23:46:00,
2013-06-16 19:47:00,82.6,41.1,28.85,WNW,302,0.0,0.0,23,0.00,,---,0.00,VWS V14.01,2013-06-16 23:47:00,
2013-06-16 19:48:00,82.4,40.9,28.85,WNW,302,0.0,0.0,23,0.00,,---,0.00,VWS V14.01,2013-06-16 23:48:00,
2013-06-16 19:49:00,82.4,40.9,28.85,WNW,302,0.0,0.0,23,0.00,,---,0.00,VWS V14.01,2013-06-16 23:49:00,
2013-06-16 19:50:00,81.3,52.6,28.88,NW,320,6.7,7.8,37,0.00,,---,0.04,VWS V14.01,2013-06-16 23:50:00,
2013-06-16 19:51:00,82.2,41.9,28.85,WNW,302,0.0,0.0,24,0.00,,---,0.00,VWS V14.01,2013-06-16 23:51:00,
2013-06-16 19:52:00,82.2,41.9,28.85,WNW,302,0.0,0.0,24,0.00,,---,0.00,VWS V14.01,2013-06-16 23:52:00,
2013-06-16 19:53:00,82.0,41.7,28.85,WNW,302,0.0,0.0,24,0.00,,---,0.00,VWS V14.01,2013-06-16 23:53:00,
2013-06-16 19:54:00,82.0,41.7,28.85,WNW,302,0.0,0.0,24,0.00,,---,0.00,VWS V14.01,2013-06-16 23:54:00,
2013-06-16 19:55:00,79.9,53.4,28.88,West,263,5.4,5.4,40,0.00,,---,0.04,VWS V14.01,2013-06-16 23:55:00,
2013-06-16 19:56:00,81.9,42.6,28.85,WNW,302,0.0,0.0,25,0.00,,---,0.00,VWS V14.01,2013-06-16 23:56:00,
2013-06-16 19:57:00,81.9,42.6,28.85,WNW,302,0.0,0.0,25,0.00,,---,0.00,VWS V14.01,2013-06-16 23:57:00,
2013-06-16 19:58:00,81.9,43.7,28.85,WNW,302,0.0,0.0,26,0.00,,---,0.00,VWS V14.01,2013-06-16 23:58:00,
2013-06-16 19:59:00,81.9,43.7,28.85,WNW,302,0.0,0.0,26,0.00,,---,0.00,VWS V14.01,2013-06-16 23:59:00,
2013-06-16 20:00:00,79.0,54.6,28.88,WNW,289,3.1,6.3,43,0.00,,---,0.04,VWS V14.01,2013-06-17 00:00:00,
2013-06-16 20:01:00,81.7,43.5,28.85,WNW,303,0.0,0.0,26,0.00,,---,0.00,VWS V14.01,2013-06-17 00:01:00,
2013-06-16 20:02:00,81.7,43.5,28.85,WNW,303,0.0,0.0,26,0.00,,---,0.00,VWS V14.01,2013-06-17 00:02:00,
2013-06-16 20:03:00,81.7,43.5,28.85,WNW,302,0.0,0.0,26,0.00,,---,0.00,VWS V14.01,2013-06-17 00:03:00,
2013-06-16 20:04:00,81.5,43.3,28.85,WNW,302,0.0,0.0,26,0.00,,---,0.00,VWS V14.01,2013-06-17 00:04:00,
2013-06-16 20:05:00,78.4,54.7,28.88,NNW,327,5.4,5.8,44,0.00,,---,0.04,VWS V14.01,2013-06-17 00:05:00,
2013-06-16 20:06:00,81.3,44.2,28.85,WNW,302,0.0,0.0,27,0.00,,---,0.00,VWS V14.01,2013-06-17 00:06:00,
2013-06-16 20:07:00,81.3,44.2,28.85,WNW,302,0.0,0.0,27,0.00,,---,0.00,VWS V14.01,2013-06-17 00:07:00,
2013-06-16 20:08:00,81.1,44.0,28.85,WNW,302,0.0,0.0,27,0.00,,---,0.00,VWS V14.01,2013-06-17 00:08:00,
2013-06-16 20:09:00,81.1,44.0,28.85,WNW,302,0.0,0.0,27,0.00,,---,0.00,VWS V14.01,2013-06-17 00:09:00,
2013-06-16 20:10:00,78.3,55.2,28.88,WNW,285,5.8,7.8,45,0.00,,---,0.04,VWS V14.01,2013-06-17 00:10:00,
2013-06-16 20:11:00,81.0,44.8,28.85,WNW,302,0.0,0.0,28,0.00,,---,0.00,VWS V14.01,2013-06-17 00:11:00,
2013-06-16 20:12:00,80.8,44.7,28.85,WNW,302,0.0,0.0,28,0.00,,---,0.00,VWS V14.01,2013-06-17 00:12:00,
2013-06-16 20:13:00,80.8,45.6,28.85,WNW,302,0.0,0.0,29,0.00,,---,0.00,VWS V14.01,2013-06-17 00:13:00,
2013-06-16 20:14:00,80.8,45.6,28.85,WNW,302,0.0,0.0,29,0.00,,---,0.00,VWS V14.01,2013-06-17 00:14:00,
2013-06-16 20:15:00,77.9,55.5,28.88,WNW,282,3.6,7.8,46,0.00,,---,0.04,VWS V14.01,2013-06-17 00:15:00,
2013-06-16 20:16:00,80.6,46.3,28.85,SE,139,0.0,0.0,30,0.00,,---,0.00,VWS V14.01,2013-06-17 00:16:00,
2013-06-16 20:17:00,80.6,46.3,28.85,SE,139,0.0,0.0,30,0.00,,---,0.00,VWS V14.01,2013-06-17 00:17:00,
2013-06-16 20:18:00,80.4,46.2,28.85,SE,139,0.0,0.0,30,0.00,,---,0.00,VWS V14.01,2013-06-17 00:18:00,
2013-06-16 20:19:00,80.4,46.2,28.85,SE,139,0.0,0.0,30,0.00,,---,0.00,VWS V14.01,2013-06-17 00:19:00,
2013-06-16 20:20:00,77.5,55.7,28.88,West,279,5.8,5.8,47,0.00,,---,0.04,VWS V14.01,2013-06-17 00:20:00,
2013-06-16 20:21:00,80.2,46.0,28.85,SE,139,0.0,0.0,30,0.00,,---,0.00,VWS V14.01,2013-06-17 00:21:00,
2013-06-16 20:22:00,80.2,46.0,28.85,SE,139,0.0,0.0,30,0.00,,---,0.00,VWS V14.01,2013-06-17 00:22:00,
2013-06-16 20:23:00,80.1,46.7,28.85,SE,139,0.0,0.0,31,0.00,,---,0.00,VWS V14.01,2013-06-17 00:23:00,
2013-06-16 20:24:00,80.1,46.7,28.85,SE,139,0.0,0.0,31,0.00,,---,0.00,VWS V14.01,2013-06-17 00:24:00,
2013-06-16 20:25:00,77.5,56.3,28.88,WNW,291,3.6,5.4,48,0.00,,---,0.04,VWS V14.01,2013-06-17 00:25:00,
2013-06-16 20:26:00,79.9,46.6,28.85,SE,139,0.0,0.0,31,0.00,,---,0.00,VWS V14.01,2013-06-17 00:26:00,
2013-06-16 20:27:00,79.7,47.3,28.85,SE,139,0.0,0.0,32,0.00,,---,0.00,VWS V14.01,2013-06-17 00:27:00,
2013-06-16 20:28:00,79.7,47.3,28.85,SE,139,0.0,0.0,32,0.00,,---,0.00,VWS V14.01,2013-06-17 00:28:00,
2013-06-16 20:29:00,79.7,47.3,28.85,SE,139,0.0,0.0,32,0.00,,---,0.00,VWS V14.01,2013-06-17 00:29:00,
2013-06-16 20:30:00,77.2,56.6,28.88,NW,320,4.0,4.0,49,0.00,,---,0.04,VWS V14.01,2013-06-17 00:30:00,
2013-06-16 20:31:00,79.5,47.9,28.85,SE,139,0.0,0.0,33,0.00,,---,0.00,VWS V14.01,2013-06-17 00:31:00,
2013-06-16 20:32:00,79.5,47.9,28.85,SE,139,0.0,0.0,33,0.00,,---,0.00,VWS V14.01,2013-06-17 00:32:00,
2013-06-16 20:33:00,79.3,47.8,28.85,SE,139,0.0,0.0,33,0.00,,---,0.00,VWS V14.01,2013-06-17 00:33:00,
2013-06-16 20:34:00,79.3,47.8,28.85,SE,139,0.0,0.0,33,0.00,,---,0.00,VWS V14.01,2013-06-17 00:34:00,
2013-06-16 20:35:00,77.0,57.0,28.88,NW,304,3.1,7.4,50,0.00,,---,0.04,VWS V14.01,2013-06-17 00:35:00,
2013-06-16 20:36:00,79.2,47.6,28.85,SE,139,0.0,0.0,33,0.00,,---,0.00,VWS V14.01,2013-06-17 00:36:00,
2013-06-16 20:37:00,79.2,47.6,28.85,SE,139,0.0,0.0,33,0.00,,---,0.00,VWS V14.01,2013-06-17 00:37:00,
2013-06-16 20:38:00,79.2,47.6,28.85,SE,139,0.0,0.0,33,0.00,,---,0.00,VWS V14.01,2013-06-17 00:38:00,
2013-06-16 20:39:00,79.0,47.5,28.85,SE,139,0.0,0.0,33,0.00,,---,0.00,VWS V14.01,2013-06-17 00:39:00,
2013-06-16 20:40:00,76.8,57.3,28.88,West,279,3.1,5.8,51,0.00,,---,0.04,VWS V14.01,2013-06-17 00:40:00,
2013-06-16 20:41:00,79.0,47.5,28.85,SE,139,0.0,0.0,33,0.00,,---,0.00,VWS V14.01,2013-06-17 00:41:00,
2013-06-16 20:42:00,79.0,47.5,28.85,SE,139,0.0,0.0,33,0.00,,---,0.00,VWS V14.01,2013-06-17 00:42:00,
2013-06-16 20:43:00,78.8,48.1,28.85,SE,139,0.0,0.0,34,0.00,,---,0.00,VWS V14.01,2013-06-17 00:43:00,
2013-06-16 20:44:00,78.8,48.1,28.85,SE,139,0.0,0.0,34,0.00,,---,0.00,VWS V14.01,2013-06-17 00:44:00,
2013-06-16 20:45:00,76.6,57.7,28.88,West,279,0.0,0.0,52,0.00,,---,0.04,VWS V14.01,2013-06-17 00:45:00,
2013-06-16 20:46:00,78.6,47.9,28.85,SE,139,0.0,0.0,34,0.00,,---,0.00,VWS V14.01,2013-06-17 00:46:00,
2013-06-16 20:47:00,78.6,47.9,28.85,SE,139,0.0,0.0,34,0.00,,---,0.00,VWS V14.01,2013-06-17 00:47:00,
2013-06-16 20:48:00,78.4,48.5,28.85,SE,139,0.0,0.0,35,0.00,,---,0.00,VWS V14.01,2013-06-17 00:48:00,
2013-06-16 20:49:00,78.4,48.5,28.85,SE,139,0.0,0.0,35,0.00,,---,0.00,VWS V14.01,2013-06-17 00:49:00,
2013-06-16 20:50:00,76.5,58.1,28.88,NNW,338,2.7,4.9,53,0.00,,---,0.04,VWS V14.01,2013-06-17 00:50:00,
2013-06-16 20:51:00,78.3,49.1,28.85,SE,139,0.0,0.0,36,0.00,,---,0.00,VWS V14.01,2013-06-17 00:51:00,
2013-06-16 20:52:00,78.3,49.1,28.85,SE,139,0.0,0.0,36,0.00,,---,0.00,VWS V14.01,2013-06-17 00:52:00,
2013-06-16 20:53:00,78.1,49.7,28.85,SE,139,0.0,0.0,37,0.00,,---,0.00,VWS V14.01,2013-06-17 00:53:00,
2013-06-16 20:54:00,78.1,49.7,28.85,SE,139,0.0,0.0,37,0.00,,---,0.00,VWS V14.01,2013-06-17 00:54:00,
2013-06-16 20:55:00,76.1,58.3,28.88,West,278,0.0,3.6,54,0.00,,---,0.04,VWS V14.01,2013-06-17 00:55:00,
2013-06-16 20:56:00,77.9,50.3,28.85,SE,139,0.0,0.0,38,0.00,,---,0.00,VWS V14.01,2013-06-17 00:56:00,
2013-06-16 20:57:00,77.9,50.3,28.85,SE,139,0.0,0.0,38,0.00,,---,0.00,VWS V14.01,2013-06-17 00:57:00,
2013-06-16 20:58:00,77.7,50.1,28.85,SE,139,0.0,0.0,38,0.00,,---,0.00,VWS V14.01,2013-06-17 00:58:00,
2013-06-16 20:59:00,77.7,50.1,28.85,SE,139,0.0,0.0,38,0.00,,---,0.00,VWS V14.01,2013-06-17 00:59:00,
2013-06-16 21:00:00,75.9,59.1,28.88,West,278,0.0,0.0,56,0.00,,---,0.04,VWS V14.01,2013-06-17 01:00:00,
2013-06-16 21:01:00,77.5,50.0,28.85,SE,139,0.0,0.0,38,0.00,,---,0.00,VWS V14.01,2013-06-17 01:01:00,
2013-06-16 21:02:00,77.4,49.8,28.85,SE,139,0.0,0.0,38,0.00,,---,0.00,VWS V14.01,2013-06-17 01:02:00,
2013-06-16 21:03:00,77.4,49.8,28.85,SE,139,0.0,0.0,38,0.00,,---,0.00,VWS V14.01,2013-06-17 01:03:00,
2013-06-16 21:04:00,77.4,49.8,28.85,SE,139,0.0,0.0,38,0.00,,---,0.00,VWS V14.01,2013-06-17 01:04:00,
2013-06-16 21:05:00,75.6,59.8,28.88,West,278,0.0,3.1,58,0.00,,---,0.04,VWS V14.01,2013-06-17 01:05:00,
2013-06-16 21:06:00,77.2,50.3,28.85,SE,139,0.0,0.0,39,0.00,,---,0.00,VWS V14.01,2013-06-17 01:06:00,
2013-06-16 21:07:00,77.2,50.3,28.85,SE,139,0.0,0.0,39,0.00,,---,0.00,VWS V14.01,2013-06-17 01:07:00,
2013-06-16 21:08:00,77.0,50.2,28.85,SE,139,0.0,0.0,39,0.00,,---,0.00,VWS V14.01,2013-06-17 01:08:00,
2013-06-16 21:09:00,77.0,50.2,28.85,SE,139,0.0,0.0,39,0.00,,---,0.00,VWS V14.01,2013-06-17 01:09:00,
2013-06-16 21:10:00,75.2,59.9,28.88,West,278,3.6,3.6,59,0.00,,---,0.04,VWS V14.01,2013-06-17 01:10:00,
2013-06-16 21:11:00,76.8,50.0,28.85,SE,139,0.0,0.0,39,0.00,,---,0.00,VWS V14.01,2013-06-17 01:11:00,
2013-06-16 21:12:00,76.8,50.0,28.85,SE,139,0.0,0.0,39,0.00,,---,0.00,VWS V14.01,2013-06-17 01:12:00,
2013-06-16 21:13:00,76.8,50.0,28.85,SE,139,0.0,0.0,39,0.00,,---,0.00,VWS V14.01,2013-06-17 01:13:00,
2013-06-16 21:14:00,76.8,50.0,28.85,SE,139,0.0,0.0,39,0.00,,---,0.00,VWS V14.01,2013-06-17 01:14:00,
2013-06-16 21:15:00,75.0,60.2,28.88,WSW,250,2.7,4.9,60,0.00,,---,0.04,VWS V14.01,2013-06-17 01:15:00,
2013-06-16 21:16:00,76.6,49.8,28.85,SE,139,0.0,0.0,39,0.00,,---,0.00,VWS V14.01,2013-06-17 01:16:00,
2013-06-16 21:17:00,76.6,49.8,28.85,SE,139,0.0,0.0,39,0.00,,---,0.00,VWS V14.01,2013-06-17 01:17:00,
2013-06-16 21:18:00,76.6,49.8,28.85,SE,139,0.0,0.0,39,0.00,,---,0.00,VWS V14.01,2013-06-17 01:18:00,
2013-06-16 21:19:00,76.6,49.8,28.85,SE,139,0.0,0.0,39,0.00,,---,0.00,VWS V14.01,2013-06-17 01:19:00,
2013-06-16 21:20:00,74.7,60.8,28.88,WSW,257,0.0,0.0,62,0.00,,---,0.04,VWS V14.01,2013-06-17 01:20:00,
2013-06-16 21:21:00,76.5,49.7,28.85,SE,139,0.0,0.0,39,0.00,,---,0.00,VWS V14.01,2013-06-17 01:21:00,
2013-06-16 21:22:00,76.5,49.7,28.85,SE,139,0.0,0.0,39,0.00,,---,0.00,VWS V14.01,2013-06-17 01:22:00,
2013-06-16 21:23:00,76.5,49.7,28.85,SE,139,0.0,0.0,39,0.00,,---,0.00,VWS V14.01,2013-06-17 01:23:00,
2013-06-16 21:24:00,76.5,49.7,28.85,SE,139,0.0,0.0,39,0.00,,---,0.00,VWS V14.01,2013-06-17 01:24:00,
2013-06-16 21:25:00,74.3,60.9,28.88,West,260,3.6,4.5,63,0.00,,---,0.04,VWS V14.01,2013-06-17 01:25:00,
2013-06-16 21:26:00,76.3,49.5,28.85,SE,139,0.0,0.0,39,0.00,,---,0.00,VWS V14.01,2013-06-17 01:26:00,
2013-06-16 21:27:00,76.3,49.5,28.85,SE,139,0.0,0.0,39,0.00,,---,0.00,VWS V14.01,2013-06-17 01:27:00,
2013-06-16 21:28:00,76.3,50.2,28.85,SE,139,0.0,0.0,40,0.00,,---,0.00,VWS V14.01,2013-06-17 01:28:00,
2013-06-16 21:29:00,76.3,50.2,28.85,SE,139,0.0,0.0,40,0.00,,---,0.00,VWS V14.01,2013-06-17 01:29:00,
2013-06-16 21:30:00,74.1,61.6,28.88,West,260,0.0,0.0,65,0.00,,---,0.04,VWS V14.01,2013-06-17 01:30:00,
2013-06-16 21:31:00,76.3,50.2,28.85,SE,139,0.0,0.0,40,0.00,,---,0.00,VWS V14.01,2013-06-17 01:31:00,
2013-06-16 21:32:00,76.1,50.0,28.85,SE,139,0.0,0.0,40,0.00,,---,0.00,VWS V14.01,2013-06-17 01:32:00,
2013-06-16 21:33:00,76.1,50.0,28.85,SE,139,0.0,0.0,40,0.00,,---,0.00,VWS V14.01,2013-06-17 01:33:00,
2013-06-16 21:34:00,76.1,50.7,28.85,SE,139,0.0,0.0,41,0.00,,---,0.00,VWS V14.01,2013-06-17 01:34:00,
2013-06-16 21:35:00,73.9,61.4,28.88,West,260,0.0,3.6,65,0.00,,---,0.04,VWS V14.01,2013-06-17 01:35:00,
2013-06-16 21:36:00,75.9,50.5,28.85,SE,139,0.0,0.0,41,0.00,,---,0.00,VWS V14.01,2013-06-17 01:36:00,
2013-06-16 21:37:00,75.9,50.5,28.85,SE,139,0.0,0.0,41,0.00,,---,0.00,VWS V14.01,2013-06-17 01:37:00,
2013-06-16 21:38:00,75.9,50.5,28.85,SE,139,0.0,0.0,41,0.00,,---,0.00,VWS V14.01,2013-06-17 01:38:00,
2013-06-16 21:39:00,75.9,50.5,28.85,SE,139,0.0,0.0,41,0.00,,---,0.00,VWS V14.01,2013-06-17 01:39:00,
2013-06-16 21:40:00,73.6,61.5,28.88,West,260,0.0,0.0,66,0.00,,---,0.04,VWS V14.01,2013-06-17 01:40:00,
2013-06-16 21:41:00,75.7,51.0,28.85,SE,139,0.0,0.0,42,0.00,,---,0.00,VWS V14.01,2013-06-17 01:41:00,
2013-06-16 21:42:00,75.7,51.0,28.85,SE,139,0.0,0.0,42,0.00,,---,0.00,VWS V14.01,2013-06-17 01:42:00,
2013-06-16 21:43:00,75.7,51.0,28.85,SE,139,0.0,0.0,42,0.00,,---,0.00,VWS V14.01,2013-06-17 01:43:00,
2013-06-16 21:44:00,75.7,51.0,28.85,SE,139,0.0,0.0,42,0.00,,---,0.00,VWS V14.01,2013-06-17 01:44:00,
2013-06-16 21:45:00,73.4,61.8,28.88,West,260,0.0,0.0,67,0.00,,---,0.04,VWS V14.01,2013-06-17 01:45:00,
2013-06-16 21:46:00,75.6,50.9,28.85,SE,139,0.0,0.0,42,0.00,,---,0.00,VWS V14.01,2013-06-17 01:46:00,
2013-06-16 21:47:00,75.6,50.9,28.85,SE,139,0.0,0.0,42,0.00,,---,0.00,VWS V14.01,2013-06-17 01:47:00,
2013-06-16 21:48:00,75.6,50.9,28.85,SE,139,0.0,0.0,42,0.00,,---,0.00,VWS V14.01,2013-06-17 01:48:00,
2013-06-16 21:49:00,75.6,50.9,28.85,SE,139,0.0,0.0,42,0.00,,---,0.00,VWS V14.01,2013-06-17 01:49:00,
2013-06-16 21:50:00,73.0,61.5,28.88,West,260,0.0,0.0,67,0.00,,---,0.04,VWS V14.01,2013-06-17 01:50:00,
2013-06-16 21:51:00,75.4,51.3,28.85,SE,139,0.0,0.0,43,0.00,,---,0.00,VWS V14.01,2013-06-17 01:51:00,
2013-06-16 21:52:00,75.4,51.3,28.85,SE,139,0.0,0.0,43,0.00,,---,0.00,VWS V14.01,2013-06-17 01:52:00,
2013-06-16 21:53:00,75.4,51.3,28.85,SE,139,0.0,0.0,43,0.00,,---,0.00,VWS V14.01,2013-06-17 01:53:00,
2013-06-16 21:54:00,75.4,51.3,28.85,SE,139,0.0,0.0,43,0.00,,---,0.00,VWS V14.01,2013-06-17 01:54:00,
2013-06-16 21:55:00,72.9,61.3,28.88,West,260,0.0,0.0,67,0.00,,---,0.04,VWS V14.01,2013-06-17 01:55:00,
2013-06-16 21:56:00,75.4,51.3,28.85,SE,139,0.0,0.0,43,0.00,,---,0.00,VWS V14.01,2013-06-17 01:56:00,
2013-06-16 21:57:00,75.2,51.2,28.85,SE,139,0.0,0.0,43,0.00,,---,0.00,VWS V14.01,2013-06-17 01:57:00,
2013-06-16 21:58:00,75.2,51.8,28.85,SE,139,0.0,0.0,44,0.00,,---,0.00,VWS V14.01,2013-06-17 01:58:00,
2013-06-16 21:59:00,75.2,51.8,28.85,SE,139,0.0,0.0,44,0.00,,---,0.00,VWS V14.01,2013-06-17 01:59:00,
2013-06-16 22:00:00,72.5,60.9,28.88,West,260,0.0,0.0,67,0.00,,---,0.04,VWS V14.01,2013-06-17 02:00:00,
2013-06-16 22:01:00,75.2,52.4,28.85,SE,139,0.0,0.0,45,0.00,,---,0.00,VWS V14.01,2013-06-17 02:01:00,
2013-06-16 22:02:00,75.0,52.3,28.85,SE,139,0.0,0.0,45,0.00,,---,0.00,VWS V14.01,2013-06-17 02:02:00,
2013-06-16 22:03:00,75.0,52.9,28.85,SE,139,0.0,0.0,46,0.00,,---,0.00,VWS V14.01,2013-06-17 02:03:00,
2013-06-16 22:04:00,75.0,52.9,28.85,SE,139,0.0,0.0,46,0.00,,---,0.00,VWS V14.01,2013-06-17 02:04:00,
2013-06-16 22:05:00,72.3,61.2,28.88,West,260,0.0,0.0,68,0.00,,---,0.04,VWS V14.01,2013-06-17 02:05:00,
2013-06-16 22:06:00,74.8,53.3,28.85,SE,139,0.0,0.0,47,0.00,,---,0.00,VWS V14.01,2013-06-17 02:06:00,
2013-06-16 22:07:00,74.8,53.3,28.85,SE,139,0.0,0.0,47,0.00,,---,0.00,VWS V14.01,2013-06-17 02:07:00,
2013-06-16 22:08:00,74.7,53.1,28.85,SE,139,0.0,0.0,47,0.00,,---,0.00,VWS V14.01,2013-06-17 02:08:00,
2013-06-16 22:09:00,74.7,53.1,28.85,SE,139,0.0,0.0,47,0.00,,---,0.00,VWS V14.01,2013-06-17 02:09:00,
2013-06-16 22:10:00,72.1,61.8,28.88,West,260,0.0,0.0,70,0.00,,---,0.04,VWS V14.01,2013-06-17 02:10:00,
2013-06-16 22:11:00,74.7,53.1,28.85,SE,139,0.0,0.0,47,0.00,,---,0.00,VWS V14.01,2013-06-17 02:11:00,
2013-06-16 22:12:00,74.5,53.0,28.85,SE,139,0.0,0.0,47,0.00,,---,0.00,VWS V14.01,2013-06-17 02:12:00,
2013-06-16 22:13:00,74.5,53.0,28.85,SE,139,0.0,0.0,47,0.00,,---,0.00,VWS V14.01,2013-06-17 02:13:00,
2013-06-16 22:14:00,74.5,53.0,28.85,SE,139,0.0,0.0,47,0.00,,---,0.00,VWS V14.01,2013-06-17 02:14:00,
2013-06-16 22:15:00,71.8,61.5,28.88,West,260,0.0,0.0,70,0.00,,---,0.04,VWS V14.01,2013-06-17 02:15:00,
2013-06-16 22:16:00,74.5,53.0,28.85,SE,139,0.0,0.0,47,0.00,,---,0.00,VWS V14.01,2013-06-17 02:16:00,
2013-06-16 22:17:00,74.3,52.8,28.85,SE,139,0.0,0.0,47,0.00,,---,0.00,VWS V14.01,2013-06-17 02:17:00,
2013-06-16 22:18:00,74.3,52.8,28.85,SE,139,0.0,0.0,47,0.00,,---,0.00,VWS V14.01,2013-06-17 02:18:00,
2013-06-16 22:19:00,74.3,53.4,28.85,SE,139,0.0,0.0,48,0.00,,---,0.00,VWS V14.01,2013-06-17 02:19:00,
2013-06-16 22:20:00,71.6,61.3,28.88,West,260,0.0,0.0,70,0.00,,---,0.04,VWS V14.01,2013-06-17 02:20:00,
2013-06-16 22:21:00,74.3,53.4,28.85,SE,139,0.0,0.0,48,0.00,,---,0.00,VWS V14.01,2013-06-17 02:21:00,
2013-06-16 22:22:00,74.3,53.4,28.85,SE,139,0.0,0.0,48,0.00,,---,0.00,VWS V14.01,2013-06-17 02:22:00,
2013-06-16 22:23:00,74.1,53.2,28.85,SE,139,0.0,0.0,48,0.00,,---,0.00,VWS V14.01,2013-06-17 02:23:00,
2013-06-16 22:24:00,74.1,53.2,28.85,SE,139,0.0,0.0,48,0.00,,---,0.00,VWS V14.01,2013-06-17 02:24:00,
2013-06-16 22:25:00,71.6,61.7,28.88,West,260,0.0,0.0,71,0.00,,---,0.04,VWS V14.01,2013-06-17 02:25:00,
2013-06-16 22:26:00,74.1,53.2,28.85,SE,139,0.0,0.0,48,0.00,,---,0.00,VWS V14.01,2013-06-17 02:26:00,
2013-06-16 22:27:00,74.1,53.8,28.85,SE,139,0.0,0.0,49,0.00,,---,0.00,VWS V14.01,2013-06-17 02:27:00,
2013-06-16 22:28:00,74.1,53.8,28.85,SE,139,0.0,0.0,49,0.00,,---,0.00,VWS V14.01,2013-06-17 02:28:00,
2013-06-16 22:29:00,73.9,54.2,28.85,SE,139,0.0,0.0,50,0.00,,---,0.00,VWS V14.01,2013-06-17 02:29:00,
2013-06-16 22:30:00,71.4,63.1,28.91,West,260,0.0,0.0,75,0.00,,---,0.04,VWS V14.01,2013-06-17 02:30:00,
2013-06-16 22:31:00,73.9,54.7,28.85,SE,139,0.0,0.0,51,0.00,,---,0.00,VWS V14.01,2013-06-17 02:31:00,
2013-06-16 22:32:00,73.9,54.7,28.85,SE,139,0.0,0.0,51,0.00,,---,0.00,VWS V14.01,2013-06-17 02:32:00,
2013-06-16 22:33:00,73.8,54.5,28.85,SE,139,0.0,0.0,51,0.00,,---,0.00,VWS V14.01,2013-06-17 02:33:00,
2013-06-16 22:34:00,73.8,54.5,28.85,SE,139,0.0,0.0,51,0.00,,---,0.00,VWS V14.01,2013-06-17 02:34:00,
2013-06-16 22:35:00,71.2,62.9,28.91,West,260,0.0,0.0,75,0.00,,---,0.04,VWS V14.01,2013-06-17 02:35:00,
2013-06-16 22:36:00,73.8,54.5,28.85,SE,139,0.0,0.0,51,0.00,,---,0.00,VWS V14.01,2013-06-17 02:36:00,
2013-06-16 22:37:00,73.6,54.4,28.85,SE,139,0.0,0.0,51,0.00,,---,0.00,VWS V14.01,2013-06-17 02:37:00,
2013-06-16 22:38:00,73.6,54.4,28.85,SE,139,0.0,0.0,51,0.00,,---,0.00,VWS V14.01,2013-06-17 02:38:00,
2013-06-16 22:39:00,73.6,54.4,28.85,SE,139,0.0,0.0,51,0.00,,---,0.00,VWS V14.01,2013-06-17 02:39:00,
2013-06-16 22:40:00,71.1,63.1,28.91,West,260,0.0,0.0,76,0.00,,---,0.04,VWS V14.01,2013-06-17 02:40:00,
2013-06-16 22:41:00,73.6,54.4,28.85,SE,139,0.0,0.0,51,0.00,,---,0.00,VWS V14.01,2013-06-17 02:41:00,
2013-06-16 22:42:00,73.4,54.2,28.85,SE,139,0.0,0.0,51,0.00,,---,0.00,VWS V14.01,2013-06-17 02:42:00,
2013-06-16 22:43:00,73.4,54.2,28.85,SE,139,0.0,0.0,51,0.00,,---,0.00,VWS V14.01,2013-06-17 02:43:00,
2013-06-16 22:44:00,73.4,54.2,28.85,SE,139,0.0,0.0,51,0.00,,---,0.00,VWS V14.01,2013-06-17 02:44:00,
2013-06-16 22:45:00,70.9,63.0,28.91,West,260,0.0,0.0,76,0.00,,---,0.04,VWS V14.01,2013-06-17 02:45:00,
2013-06-16 22:46:00,73.4,54.2,28.85,SE,139,0.0,0.0,51,0.00,,---,0.00,VWS V14.01,2013-06-17 02:46:00,
2013-06-16 22:47:00,73.4,54.2,28.85,SE,139,0.0,0.0,51,0.00,,---,0.00,VWS V14.01,2013-06-17 02:47:00,
2013-06-16 22:48:00,73.4,54.2,28.85,SE,139,0.0,0.0,51,0.00,,---,0.00,VWS V14.01,2013-06-17 02:48:00,
2013-06-16 22:49:00,73.4,54.7,28.85,SE,139,0.0,0.0,52,0.00,,---,0.00,VWS V14.01,2013-06-17 02:49:00,
2013-06-16 22:50:00,70.7,62.8,28.91,West,260,0.0,0.0,76,0.00,,---,0.04,VWS V14.01,2013-06-17 02:50:00,
2013-06-16 22:51:00,73.2,54.6,28.85,SE,139,0.0,0.0,52,0.00,,---,0.00,VWS V14.01,2013-06-17 02:51:00,
2013-06-16 22:52:00,73.2,54.6,28.85,SE,139,0.0,0.0,52,0.00,,---,0.00,VWS V14.01,2013-06-17 02:52:00,
2013-06-16 22:53:00,73.2,55.1,28.85,SE,139,0.0,0.0,53,0.00,,---,0.00,VWS V14.01,2013-06-17 02:53:00,
2013-06-16 22:54:00,73.2,55.1,28.85,SE,139,0.0,0.0,53,0.00,,---,0.00,VWS V14.01,2013-06-17 02:54:00,
2013-06-16 22:55:00,70.5,62.6,28.91,West,260,0.0,0.0,76,0.00,,---,0.04,VWS V14.01,2013-06-17 02:55:00,
2013-06-16 22:56:00,73.2,55.1,28.85,SE,139,0.0,0.0,53,0.00,,---,0.00,VWS V14.01,2013-06-17 02:56:00,
2013-06-16 22:57:00,73.0,54.9,28.85,SE,139,0.0,0.0,53,0.00,,---,0.00,VWS V14.01,2013-06-17 02:57:00,
2013-06-16 22:58:00,73.0,54.9,28.85,SE,139,0.0,0.0,53,0.00,,---,0.00,VWS V14.01,2013-06-17 02:58:00,
2013-06-16 22:59:00,73.0,54.9,28.85,SE,139,0.0,0.0,53,0.00,,---,0.00,VWS V14.01,2013-06-17 02:59:00,
2013-06-16 23:00:00,70.5,63.0,28.91,West,260,0.0,0.0,77,0.00,,---,0.04,VWS V14.01,2013-06-17 03:00:00,
2013-06-16 23:01:00,73.0,54.9,28.85,SE,139,0.0,0.0,53,0.00,,---,0.00,VWS V14.01,2013-06-17 03:01:00,
2013-06-16 23:02:00,73.0,54.9,28.85,SE,139,0.0,0.0,53,0.00,,---,0.00,VWS V14.01,2013-06-17 03:02:00,
2013-06-16 23:03:00,72.9,54.8,28.85,SE,139,0.0,0.0,53,0.00,,---,0.00,VWS V14.01,2013-06-17 03:03:00,
2013-06-16 23:04:00,72.9,54.8,28.85,SE,139,0.0,0.0,53,0.00,,---,0.00,VWS V14.01,2013-06-17 03:04:00,
2013-06-16 23:05:00,70.5,63.3,28.91,West,260,0.0,0.0,78,0.00,,---,0.04,VWS V14.01,2013-06-17 03:05:00,
2013-06-16 23:06:00,72.9,54.8,28.85,SE,139,0.0,0.0,53,0.00,,---,0.00,VWS V14.01,2013-06-17 03:06:00,
2013-06-16 23:07:00,72.9,54.8,28.85,SE,139,0.0,0.0,53,0.00,,---,0.00,VWS V14.01,2013-06-17 03:07:00,
2013-06-16 23:08:00,72.9,54.8,28.85,SE,139,0.0,0.0,53,0.00,,---,0.00,VWS V14.01,2013-06-17 03:08:00,
2013-06-16 23:09:00,72.7,54.6,28.85,SE,139,0.0,0.0,53,0.00,,---,0.00,VWS V14.01,2013-06-17 03:09:00,
2013-06-16 23:10:00,70.5,63.7,28.91,West,260,0.0,0.0,79,0.00,,---,0.04,VWS V14.01,2013-06-17 03:10:00,
2013-06-16 23:11:00,72.7,54.6,28.85,SE,139,0.0,0.0,53,0.00,,---,0.00,VWS V14.01,2013-06-17 03:11:00,
2013-06-16 23:12:00,72.7,54.6,28.85,SE,139,0.0,0.0,53,0.00,,---,0.00,VWS V14.01,2013-06-17 03:12:00,
2013-06-16 23:13:00,72.7,54.6,28.85,SE,139,0.0,0.0,53,0.00,,---,0.00,VWS V14.01,2013-06-17 03:13:00,
2013-06-16 23:14:00,72.7,54.6,28.85,SE,139,0.0,0.0,53,0.00,,---,0.00,VWS V14.01,2013-06-17 03:14:00,
2013-06-16 23:15:00,70.3,63.9,28.91,West,260,0.0,0.0,80,0.00,,---,0.04,VWS V14.01,2013-06-17 03:15:00,
2013-06-16 23:16:00,72.5,54.4,28.85,SE,139,0.0,0.0,53,0.00,,---,0.00,VWS V14.01,2013-06-17 03:16:00,
2013-06-16 23:17:00,72.5,54.4,28.85,SE,139,0.0,0.0,53,0.00,,---,0.00,VWS V14.01,2013-06-17 03:17:00,
2013-06-16 23:18:00,72.5,54.9,28.85,SE,139,0.0,0.0,54,0.00,,---,0.00,VWS V14.01,2013-06-17 03:18:00,
2013-06-16 23:19:00,72.5,54.9,28.85,SE,139,0.0,0.0,54,0.00,,---,0.00,VWS V14.01,2013-06-17 03:19:00,
2013-06-16 23:20:00,70.2,63.7,28.91,West,260,0.0,0.0,80,0.00,,---,0.04,VWS V14.01,2013-06-17 03:20:00,
2013-06-16 23:21:00,72.5,54.9,28.85,SE,139,0.0,0.0,54,0.00,,---,0.00,VWS V14.01,2013-06-17 03:21:00,
2013-06-16 23:22:00,72.5,54.9,28.85,SE,139,0.0,0.0,54,0.00,,---,0.00,VWS V14.01,2013-06-17 03:22:00,
2013-06-16 23:23:00,72.5,54.9,28.85,SE,139,0.0,0.0,54,0.00,,---,0.00,VWS V14.01,2013-06-17 03:23:00,
2013-06-16 23:24:00,72.5,54.9,28.85,SE,139,0.0,0.0,54,0.00,,---,0.00,VWS V14.01,2013-06-17 03:24:00,
2013-06-16 23:25:00,70.2,64.1,28.91,West,260,0.0,0.0,81,0.00,,---,0.04,VWS V14.01,2013-06-17 03:25:00,
2013-06-16 23:26:00,72.3,54.8,28.85,SE,139,0.0,0.0,54,0.00,,---,0.00,VWS V14.01,2013-06-17 03:26:00,
2013-06-16 23:27:00,72.3,54.8,28.85,SE,139,0.0,0.0,54,0.00,,---,0.00,VWS V14.01,2013-06-17 03:27:00,
2013-06-16 23:28:00,72.3,54.8,28.85,SE,139,0.0,0.0,54,0.00,,---,0.00,VWS V14.01,2013-06-17 03:28:00,
2013-06-16 23:29:00,72.3,54.8,28.85,SE,139,0.0,0.0,54,0.00,,---,0.00,VWS V14.01,2013-06-17 03:29:00,
2013-06-16 23:30:00,70.2,64.1,28.91,West,260,0.0,0.0,81,0.00,,---,0.04,VWS V14.01,2013-06-17 03:30:00,
2013-06-16 23:31:00,72.1,54.6,28.85,SE,139,0.0,0.0,54,0.00,,---,0.00,VWS V14.01,2013-06-17 03:31:00,
2013-06-16 23:32:00,72.1,54.6,28.85,SE,139,0.0,0.0,54,0.00,,---,0.00,VWS V14.01,2013-06-17 03:32:00,
2013-06-16 23:33:00,72.1,54.6,28.85,SE,139,0.0,0.0,54,0.00,,---,0.00,VWS V14.01,2013-06-17 03:33:00,
2013-06-16 23:34:00,72.1,54.6,28.85,SE,139,0.0,0.0,54,0.00,,---,0.00,VWS V14.01,2013-06-17 03:34:00,
2013-06-16 23:35:00,70.0,63.9,28.91,West,260,0.0,0.0,81,0.00,,---,0.04,VWS V14.01,2013-06-17 03:35:00,
2013-06-16 23:36:00,72.1,55.1,28.85,SE,139,0.0,0.0,55,0.00,,---,0.00,VWS V14.01,2013-06-17 03:36:00,
2013-06-16 23:37:00,72.1,55.1,28.85,SE,139,0.0,0.0,55,0.00,,---,0.00,VWS V14.01,2013-06-17 03:37:00,
2013-06-16 23:38:00,72.1,55.1,28.85,SE,139,0.0,0.0,55,0.00,,---,0.00,VWS V14.01,2013-06-17 03:38:00,
2013-06-16 23:39:00,72.1,55.1,28.85,SE,139,0.0,0.0,55,0.00,,---,0.00,VWS V14.01,2013-06-17 03:39:00,
2013-06-16 23:40:00,70.0,63.9,28.91,West,260,0.0,0.0,81,0.00,,---,0.04,VWS V14.01,2013-06-17 03:40:00,
2013-06-16 23:41:00,72.1,55.1,28.85,SE,139,0.0,0.0,55,0.00,,---,0.00,VWS V14.01,2013-06-17 03:41:00,
2013-06-16 23:42:00,72.1,55.1,28.85,SE,139,0.0,0.0,55,0.00,,---,0.00,VWS V14.01,2013-06-17 03:42:00,
2013-06-16 23:43:00,72.1,55.1,28.85,SE,139,0.0,0.0,55,0.00,,---,0.00,VWS V14.01,2013-06-17 03:43:00,
2013-06-16 23:44:00,72.1,55.1,28.85,SE,139,0.0,0.0,55,0.00,,---,0.00,VWS V14.01,2013-06-17 03:44:00,
2013-06-16 23:45:00,70.0,64.2,28.91,West,259,0.0,0.0,82,0.00,,---,0.04,VWS V14.01,2013-06-17 03:45:00,
2013-06-16 23:46:00,72.1,55.1,28.85,SE,139,0.0,0.0,55,0.00,,---,0.00,VWS V14.01,2013-06-17 03:46:00,
2013-06-16 23:47:00,72.1,55.1,28.85,SE,139,0.0,0.0,55,0.00,,---,0.00,VWS V14.01,2013-06-17 03:47:00,
2013-06-16 23:48:00,72.1,55.6,28.85,SE,139,0.0,0.0,56,0.00,,---,0.00,VWS V14.01,2013-06-17 03:48:00,
2013-06-16 23:49:00,72.1,55.6,28.85,SE,139,0.0,0.0,56,0.00,,---,0.00,VWS V14.01,2013-06-17 03:49:00,
2013-06-16 23:50:00,70.0,64.2,28.91,West,259,0.0,0.0,82,0.00,,---,0.04,VWS V14.01,2013-06-17 03:50:00,
2013-06-16 23:51:00,72.0,55.4,28.85,SE,139,0.0,0.0,56,0.00,,---,0.00,VWS V14.01,2013-06-17 03:51:00,
2013-06-16 23:52:00,72.0,55.4,28.85,SE,139,0.0,0.0,56,0.00,,---,0.00,VWS V14.01,2013-06-17 03:52:00,
2013-06-16 23:53:00,72.0,55.4,28.85,SE,139,0.0,0.0,56,0.00,,---,0.00,VWS V14.01,2013-06-17 03:53:00,
2013-06-16 23:54:00,72.0,55.4,28.85,SE,139,0.0,0.0,56,0.00,,---,0.00,VWS V14.01,2013-06-17 03:54:00,
2013-06-16 23:55:00,69.8,64.4,28.91,West,259,0.0,0.0,83,0.00,,---,0.04,VWS V14.01,2013-06-17 03:55:00,
2013-06-16 23:56:00,71.8,55.3,28.85,SE,139,0.0,0.0,56,0.00,,---,0.00,VWS V14.01,2013-06-17 03:56:00,
2013-06-16 23:57:00,71.8,55.3,28.85,SE,139,0.0,0.0,56,0.00,,---,0.00,VWS V14.01,2013-06-17 03:57:00,
2013-06-16 23:58:00,71.8,55.3,28.85,SE,139,0.0,0.0,56,0.00,,---,0.00,VWS V14.01,2013-06-17 03:58:00,
2013-06-16 23:59:00,71.8,55.3,28.85,SE,139,0.0,0.0,56,0.00,,---,0.00,VWS V14.01,2013-06-17 03:59:00,